[[{"header":{"parameterUnit":"m.s-1","parameterCategory":1,"la1":30.6,"la2":28.766,"lo1":-90.7593,"lo2":-88.6598,"dy":0.0162,"dx":0.0183,"nx":116,"ny":114,"refTime":"2024-04-16T06:00:00:Z","depth":0,"parameterNumber":2,"parameterNumberName":"U-component_of_WINDS"},"data":[0.0,0.0,0.0,0.0,0.0,0.0,0.0,0.0,0.0,0.0,0.0,0.0,0.0,0.0,0.0,0.0,0.0,0.0,0.0,0.0,0.0,0.0,0.0,0.0,0.0,0.0,0.0,0.0,0.0,0.0,0.0,0.0,0.0,0.0,0.0,0.0,0.0,0.0,0.0,0.0,0.0,0.0,0.0,0.0,0.0,0.0,0.0,0.0,0.0,0.0,0.0,0.0,0.0,0.0,0.0,0.0,0.0,0.0,0.0,0.0,0.0,0.0,0.0,0.0,0.0,0.0,0.0,0.0,0.0,0.0,0.0,0.0,0.0,0.0,0.0,0.0,0.0,0.0,0.0,0.0,0.0,0.0,0.0,0.0,0.0,0.0,0.0,0.0,0.0,0.0,0.0,0.0,0.0,0.0,0.0,0.0,0.0,0.0,0.0,0.0,0.0,0.0,0.0,0.0,0.0,0.0,0.0,0.0,0.0,0.0,0.0,0.0,0.0,0.0,0.0,0.0,0.0,0.0,0.0,0.0,0.0,0.0,0.0,0.0,0.0,0.0,0.0,0.0,0.0,0.0,0.0,0.0,0.0,0.0,0.0,0.0,0.0,0.0,0.0,0.0,0.0,0.0,0.0,0.0,0.0,0.0,0.0,0.0,0.0,0.0,0.0,0.0,0.0,0.0,0.0,0.0,0.0,0.0,0.0,0.0,0.0,0.0,0.0,0.0,0.0,0.0,0.0,0.0,0.0,0.0,0.0,0.0,0.0,0.0,0.0,0.0,0.0,0.0,0.0,0.0,0.0,0.0,0.0,0.0,0.0,0.0,0.0,0.0,0.0,0.0,0.0,0.0,0.0,0.0,0.0,0.0,0.0,0.0,0.0,0.0,0.0,0.0,0.0,0.0,0.0,0.0,0.0,0.0,0.0,0.0,0.0,0.0,0.0,0.0,0.0,0.0,0.0,0.0,0.0,0.0,0.0,0.0,0.0,0.0,0.0,0.0,0.0,0.0,0.0,0.0,0.0,0.0,0.0,0.0,0.0,0.0,0.0,0.0,0.0,0.0,0.0,0.0,0.0,0.0,0.0,0.0,0.0,0.0,0.0,0.0,0.0,0.0,0.0,0.0,0.0,0.0,0.0,0.0,0.0,0.0,0.0,0.0,0.0,0.0,0.0,0.0,0.0,0.0,0.0,0.0,0.0,0.0,0.0,0.0,0.0,0.0,0.0,0.0,0.0,0.0,0.0,0.0,0.0,0.0,0.0,0.0,0.0,0.0,0.0,0.0,0.0,0.0,0.0,0.0,0.0,0.0,0.0,0.0,0.0,0.0,0.0,0.0,0.0,0.0,0.0,0.0,0.0,0.0,0.0,0.0,0.0,0.0,0.0,0.0,0.0,0.0,0.0,0.0,0.0,0.0,0.0,0.0,0.0,0.0,0.0,0.0,0.0,0.0,0.0,0.0,0.0,0.0,0.0,0.0,0.0,0.0,0.0,0.0,0.0,0.0,0.0,0.0,0.0,0.0,0.0,0.0,0.0,0.0,0.0,0.0,0.0,0.0,0.0,0.0,0.0,0.0,0.0,0.0,0.0,0.0,0.0,0.0,0.0,0.0,0.0,0.0,0.0,0.0,0.0,0.0,0.0,0.0,0.0,0.0,0.0,0.0,0.0,0.0,0.0,0.0,0.0,0.0,0.0,0.0,0.0,0.0,0.0,0.0,0.0,0.0,0.0,0.0,0.0,0.0,0.0,0.0,0.0,0.0,0.0,0.0,0.0,0.0,0.0,0.0,0.0,0.0,0.0,0.0,0.0,0.0,0.0,0.0,0.0,0.0,0.0,0.0,0.0,0.0,0.0,0.0,0.0,0.0,0.0,0.0,0.0,0.0,0.0,0.0,0.0,0.0,0.0,0.0,0.0,0.0,0.0,0.0,0.0,0.0,0.0,0.0,0.0,0.0,0.0,0.0,0.0,0.0,0.0,0.0,0.0,0.0,0.0,0.0,0.0,0.0,0.0,0.0,0.0,0.0,0.0,0.0,0.0,0.0,0.0,0.0,0.0,0.0,0.0,0.0,0.0,0.0,0.0,0.0,0.0,0.0,0.0,0.0,0.0,0.0,0.0,0.0,0.0,0.0,0.0,0.0,0.0,0.0,0.0,0.0,0.0,0.0,0.0,0.0,0.0,0.0,0.0,0.0,0.0,0.0,0.0,0.0,0.0,0.0,0.0,0.0,0.0,0.0,0.0,0.0,0.0,0.0,0.0,0.0,0.0,0.0,0.0,0.0,0.0,0.0,0.0,0.0,0.0,0.0,0.0,0.0,0.0,0.0,0.0,0.0,0.0,0.0,0.0,0.0,0.0,0.0,0.0,0.0,0.0,0.0,0.0,0.0,0.0,0.0,0.0,0.0,0.0,0.0,0.0,0.0,0.0,0.0,0.0,0.0,0.0,0.0,0.0,0.0,0.0,0.0,0.0,0.0,0.0,0.0,0.0,0.0,0.0,0.0,0.0,0.0,0.0,0.0,0.0,0.0,0.0,0.0,0.0,0.0,0.0,0.0,0.0,0.0,0.0,0.0,0.0,0.0,0.0,0.0,0.0,0.0,0.0,0.0,0.0,0.0,0.0,0.0,0.0,0.0,0.0,0.0,0.0,0.0,0.0,0.0,0.0,0.0,0.0,0.0,0.0,0.0,0.0,0.0,0.0,0.0,0.0,0.0,0.0,0.0,0.0,0.0,0.0,0.0,0.0,0.0,0.0,0.0,0.0,0.0,0.0,0.0,0.0,0.0,0.0,0.0,0.0,0.0,0.0,0.0,0.0,0.0,0.0,0.0,0.0,0.0,0.0,0.0,0.0,0.0,0.0,0.0,0.0,0.0,0.0,0.0,0.0,0.0,0.0,0.0,0.0,0.0,0.0,0.0,0.0,0.0,0.0,0.0,0.0,0.0,0.0,0.0,0.0,0.0,0.0,0.0,0.0,0.0,0.0,0.0,0.0,0.0,0.0,0.0,0.0,0.0,0.0,0.0,0.0,0.0,0.0,0.0,0.0,0.0,0.0,0.0,0.0,0.0,0.0,0.0,0.0,0.0,0.0,0.0,0.0,0.0,0.0,0.0,0.0,0.0,0.0,0.0,0.0,0.0,0.0,0.0,0.0,0.0,0.0,0.0,0.0,0.0,0.0,0.0,0.0,0.0,0.0,0.0,0.0,0.0,0.0,0.0,0.0,0.0,0.0,0.0,0.0,0.0,0.0,0.0,0.0,0.0,0.0,0.0,0.0,0.0,0.0,0.0,0.0,0.0,0.0,0.0,0.0,0.0,0.0,0.0,0.0,0.0,0.0,0.0,0.0,0.0,0.0,0.0,0.0,0.0,0.0,0.0,0.0,0.0,0.0,0.0,0.0,0.0,0.0,0.0,0.0,0.0,0.0,0.0,0.0,0.0,0.0,0.0,0.0,0.0,0.0,0.0,0.0,0.0,0.0,0.0,0.0,0.0,0.0,0.0,0.0,0.0,0.0,0.0,0.0,0.0,0.0,0.0,0.0,0.0,0.0,0.0,0.0,0.0,0.0,0.0,0.0,0.0,0.0,0.0,0.0,0.0,0.0,0.0,0.0,0.0,0.0,0.0,0.0,0.0,0.0,0.0,0.0,0.0,0.0,0.0,0.0,0.0,0.0,0.0,0.0,0.0,0.0,0.0,0.0,0.0,0.0,0.0,0.0,0.0,0.0,0.0,0.0,0.0,0.0,0.0,0.0,0.0,0.0,0.0,0.0,0.0,0.0,0.0,0.0,0.0,0.0,0.0,0.0,0.0,0.0,0.0,0.0,0.0,0.0,0.0,0.0,0.0,0.0,0.0,0.0,0.0,0.0,0.0,0.0,0.0,0.0,0.0,0.0,0.0,0.0,0.0,0.0,0.0,0.0,0.0,0.0,0.0,0.0,0.0,0.0,0.0,0.0,0.0,0.0,0.0,0.0,0.0,0.0,0.0,0.0,0.0,0.0,0.0,0.0,0.0,0.0,0.0,0.0,0.0,0.0,0.0,0.0,0.0,0.0,0.0,0.0,0.0,0.0,0.0,0.0,0.0,0.0,0.0,0.0,0.0,0.0,0.0,0.0,0.0,0.0,0.0,0.0,0.0,0.0,0.0,0.0,0.0,0.0,0.0,0.0,0.0,0.0,0.0,0.0,0.0,0.0,0.0,0.0,0.0,0.0,0.0,0.0,0.0,0.0,0.0,0.0,0.0,0.0,0.0,0.0,0.0,0.0,0.0,0.0,0.0,0.0,0.0,0.0,0.0,0.0,0.0,0.0,0.0,0.0,0.0,0.0,0.0,0.0,0.0,0.0,0.0,0.0,0.0,0.0,0.0,0.0,0.0,0.0,0.0,0.0,0.0,0.0,0.0,0.0,0.0,0.0,0.0,0.0,0.0,0.0,0.0,0.0,0.0,0.0,0.0,0.0,0.0,0.0,0.0,0.0,0.0,0.0,0.0,0.0,0.0,0.0,0.0,0.0,0.0,0.0,0.0,0.0,0.0,0.0,0.0,0.0,0.0,0.0,0.0,0.0,0.0,0.0,0.0,0.0,0.0,0.0,0.0,0.0,0.0,0.0,0.0,0.0,0.0,0.0,0.0,0.0,0.0,0.0,0.0,0.0,0.0,0.0,0.0,0.0,0.0,0.0,0.0,0.0,0.0,0.0,0.0,0.0,0.0,0.0,0.0,0.0,0.0,0.0,0.0,0.0,0.0,0.0,0.0,0.0,0.0,0.0,0.0,0.0,0.0,0.0,0.0,0.0,0.0,0.0,0.0,0.0,0.0,0.0,0.0,0.0,0.0,0.0,0.0,0.0,0.0,0.0,0.0,0.0,0.0,0.0,0.0,0.0,0.0,0.0,0.0,0.0,0.0,0.0,0.0,0.0,0.0,0.0,0.0,0.0,0.0,0.0,0.0,0.0,0.0,0.0,0.0,0.0,0.0,0.0,0.0,0.0,0.0,0.0,0.0,0.0,0.0,0.0,0.0,0.0,0.0,0.0,0.0,0.0,0.0,0.0,0.0,0.0,0.0,0.0,0.0,0.0,0.0,0.0,0.0,0.0,0.0,0.0,0.0,0.0,0.0,0.0,0.0,0.0,0.0,0.0,0.0,0.0,0.0,0.0,0.0,0.0,0.0,0.0,0.0,0.0,0.0,0.0,0.0,0.0,0.0,0.0,0.0,0.0,0.0,0.0,0.0,0.0,0.0,0.0,0.0,0.0,0.0,0.0,0.0,0.0,0.0,0.0,0.0,0.0,0.0,0.0,0.0,0.0,0.0,0.0,0.0,0.0,0.0,0.0,0.0,0.0,0.0,0.0,0.0,0.0,0.0,0.0,0.0,0.0,0.0,0.0,0.0,0.0,0.0,0.0,0.0,0.0,0.0,0.0,0.0,0.0,0.0,0.0,0.0,0.0,0.0,0.0,0.0,0.0,0.0,0.0,0.0,0.0,0.0,0.0,0.0,0.0,0.0,0.0,0.0,0.0,0.0,0.0,0.0,0.0,0.0,0.0,0.0,0.0,0.0,0.0,0.0,0.0,0.0,0.0,0.0,0.0,0.0,0.0,0.0,0.0,0.0,0.0,0.0,0.0,0.0,0.0,0.0,0.0,0.0,0.0,0.0,0.0,0.0,0.0,0.0,0.0,0.0,0.0,0.0,0.0,0.0,0.0,0.0,0.0,0.0,0.0,0.0,0.0,0.0,0.0,0.0,0.0,0.0,0.0,0.0,0.0,0.0,0.0,0.0,0.0,0.0,0.0,0.0,0.0,0.0,0.0,0.0,0.0,0.0,0.0,0.0,0.0,0.0,0.0,0.0,0.0,0.0,0.0,0.0,0.0,0.0,0.0,0.0,0.0,0.0,0.0,0.0,0.0,0.0,0.0,0.0,0.0,0.0,0.0,0.0,0.0,0.0,0.0,0.0,0.0,0.0,0.0,0.0,0.0,0.0,0.0,0.0,0.0,0.0,0.0,0.0,0.0,0.0,0.0,0.0,0.0,0.0,0.0,0.0,0.0,0.0,0.0,0.0,0.0,0.0,0.0,0.0,0.0,0.0,0.0,0.0,-4.2924,0.0,0.0,0.0,0.0,0.0,0.0,0.0,0.0,0.0,0.0,0.0,0.0,0.0,0.0,0.0,0.0,0.0,0.0,0.0,0.0,0.0,0.0,0.0,0.0,-3.5055,-3.5266,-3.5122,-3.5113,-3.5113,-3.5113,0.0,0.0,0.0,0.0,0.0,-3.42,-3.3747,-3.3404,-3.3199,-3.4151,-3.4509,-3.4321,-3.62,-3.7456,-3.8132,0.0,0.0,0.0,0.0,0.0,0.0,0.0,0.0,0.0,0.0,0.0,0.0,0.0,0.0,0.0,0.0,0.0,0.0,0.0,0.0,0.0,0.0,0.0,0.0,0.0,0.0,0.0,0.0,0.0,0.0,0.0,0.0,0.0,0.0,0.0,0.0,0.0,0.0,0.0,0.0,0.0,0.0,0.0,0.0,0.0,0.0,0.0,0.0,0.0,0.0,0.0,0.0,0.0,0.0,0.0,0.0,0.0,0.0,0.0,0.0,0.0,0.0,0.0,0.0,0.0,0.0,0.0,0.0,0.0,0.0,0.0,-4.2449,0.0,0.0,0.0,0.0,0.0,0.0,0.0,0.0,0.0,0.0,0.0,0.0,0.0,0.0,0.0,0.0,0.0,0.0,0.0,0.0,0.0,-3.4772,-3.3832,-3.4511,-3.4944,-3.4714,-3.4694,-3.4694,-3.4694,-3.4694,0.0,0.0,0.0,-3.414,-3.4031,-3.3482,-3.3105,-3.2968,-3.3158,-3.3704,-3.4459,-3.4599,-3.5117,-3.6042,-3.7261,0.0,0.0,0.0,0.0,0.0,0.0,0.0,0.0,0.0,0.0,0.0,0.0,0.0,0.0,0.0,0.0,0.0,0.0,0.0,0.0,0.0,0.0,0.0,0.0,0.0,0.0,0.0,0.0,0.0,0.0,0.0,0.0,0.0,0.0,0.0,0.0,0.0,0.0,0.0,0.0,0.0,0.0,0.0,0.0,0.0,0.0,0.0,0.0,0.0,0.0,0.0,0.0,0.0,0.0,0.0,0.0,0.0,0.0,0.0,0.0,0.0,0.0,0.0,-4.315,-4.3393,-4.3892,-4.3752,-4.3125,-4.212,-4.1805,-4.1301,-4.0747,-4.2175,0.0,0.0,0.0,0.0,0.0,0.0,0.0,0.0,0.0,0.0,0.0,0.0,0.0,0.0,0.0,0.0,0.0,0.0,0.0,-3.3629,-3.3479,-3.4235,-3.4734,-3.4694,-3.4694,-3.4694,-3.4694,-3.4694,-3.4561,-3.4288,-3.4211,-3.3931,-3.3339,-3.3258,-3.2809,-3.1986,-3.1742,-3.1993,-3.2746,-3.3384,-3.3762,-3.393,-3.493,-3.6533,-3.8508,0.0,0.0,0.0,0.0,0.0,0.0,0.0,0.0,0.0,0.0,0.0,0.0,0.0,0.0,0.0,0.0,0.0,0.0,0.0,0.0,0.0,0.0,0.0,0.0,0.0,0.0,0.0,0.0,0.0,0.0,0.0,0.0,0.0,0.0,0.0,0.0,0.0,0.0,0.0,0.0,0.0,-4.2495,-4.3767,0.0,0.0,0.0,0.0,0.0,0.0,0.0,0.0,0.0,0.0,0.0,0.0,0.0,-4.3251,-4.3833,-4.4466,-4.4554,-4.4131,-4.4123,-4.3889,-4.3459,-4.2822,-4.2413,-4.2258,-4.1571,0.0,-4.0873,-4.0978,0.0,0.0,0.0,0.0,0.0,0.0,0.0,0.0,0.0,0.0,0.0,0.0,0.0,0.0,0.0,0.0,0.0,0.0,0.0,0.0,0.0,-3.3564,-3.3901,-3.3497,-3.4118,-3.4347,-3.3886,-3.4494,-3.4606,-3.4005,-3.3755,-3.351,-3.3214,-3.2022,-3.1073,-3.046,-3.1071,-3.1691,-3.2361,-3.2676,-3.3023,-3.3403,-3.3822,-3.5225,-3.7291,-3.6767,0.0,0.0,0.0,0.0,0.0,0.0,0.0,0.0,0.0,0.0,0.0,0.0,0.0,0.0,0.0,0.0,0.0,0.0,0.0,0.0,0.0,0.0,0.0,0.0,0.0,0.0,0.0,0.0,0.0,0.0,0.0,0.0,0.0,0.0,0.0,0.0,0.0,0.0,0.0,-4.1662,-4.2978,-4.3028,-4.3709,-4.4111,0.0,0.0,0.0,0.0,0.0,0.0,0.0,0.0,0.0,-4.5735,-4.5147,-4.48,-4.4796,-4.4708,-4.4576,-4.4475,-4.4465,-4.432,-4.4079,-4.4164,-4.3978,-4.3565,-4.2777,-4.2394,-4.2227,-4.1215,-4.0998,-4.13,0.0,0.0,0.0,0.0,-4.1318,-4.1265,0.0,0.0,0.0,0.0,0.0,0.0,0.0,0.0,0.0,0.0,0.0,0.0,-3.2524,-3.3162,-3.3467,-3.3083,-3.3773,-3.3995,-3.3511,-3.4138,-3.4334,-3.3825,-3.3404,-3.3072,-3.2802,-3.1016,-2.9972,-2.9656,-3.0831,-3.1729,-3.2331,-3.2514,-3.2972,-3.3608,-3.381,-3.4833,-3.6418,-3.5958,-3.6577,-3.7699,0.0,0.0,0.0,0.0,0.0,0.0,0.0,0.0,0.0,0.0,0.0,0.0,0.0,0.0,0.0,0.0,0.0,0.0,0.0,0.0,0.0,0.0,0.0,0.0,0.0,0.0,0.0,0.0,0.0,0.0,0.0,0.0,0.0,0.0,0.0,0.0,0.0,-4.2396,-4.3497,-4.2708,-4.4213,-4.4929,0.0,0.0,0.0,0.0,0.0,0.0,-4.7333,-4.6623,-4.656,-4.7353,-4.6592,-4.6013,-4.5772,-4.5402,-4.5193,-4.5173,-4.5331,-4.5331,-4.519,-4.572,-4.5585,-4.4823,-4.4045,-4.3578,-4.3261,-4.1447,-4.0823,-4.0968,-4.1073,-4.12,-4.1358,-4.1165,-4.1077,-4.1038,0.0,0.0,0.0,0.0,0.0,0.0,0.0,0.0,0.0,0.0,0.0,-3.1466,-3.2901,-3.3367,-3.388,-3.4535,-3.4023,-3.3819,-3.4209,-3.3635,-3.3444,-3.3793,-3.3404,-3.2719,-3.1689,-3.0818,-3.0373,-3.0352,-3.107,-3.1731,-3.2415,-3.3116,-3.381,-3.4461,-3.5157,-3.5859,-3.6435,-3.5588,-3.5576,-3.6185,-3.6859,0.0,0.0,0.0,0.0,0.0,0.0,0.0,0.0,0.0,0.0,0.0,0.0,0.0,0.0,0.0,0.0,0.0,0.0,0.0,0.0,0.0,0.0,0.0,0.0,0.0,0.0,0.0,0.0,0.0,0.0,0.0,0.0,0.0,0.0,0.0,0.0,0.0,0.0,-4.3551,-4.5535,0.0,0.0,0.0,0.0,-4.6984,-4.7681,-4.8159,-4.8251,-4.7056,-4.6731,-4.7546,-4.637,-4.606,-4.6726,-4.7374,-4.7374,-4.6684,-4.7411,-4.7378,-4.6684,-4.6718,-4.6346,-4.5602,-4.484,-4.4096,-4.325,-4.1052,-4.0544,-4.1052,-3.9696,-3.9585,-4.0111,-3.9416,-3.9137,-3.8945,0.0,0.0,0.0,0.0,0.0,-3.0349,-3.0163,-3.0325,-3.0621,-3.0984,-3.1344,-3.1954,-3.2931,-3.3141,-3.3393,-3.3825,-3.3946,-3.3841,-3.3494,-3.3505,-3.3343,-3.2983,-3.2533,-3.163,-3.0212,-2.9954,-2.9834,-2.9884,-3.1387,-3.2458,-3.3123,-3.3819,-3.4485,-3.5151,-3.5431,-3.5663,-3.5822,-3.503,-3.5291,-3.6156,-3.4929,-3.4594,0.0,0.0,0.0,0.0,0.0,0.0,0.0,0.0,0.0,0.0,0.0,0.0,0.0,0.0,0.0,0.0,0.0,0.0,0.0,0.0,0.0,0.0,0.0,0.0,0.0,0.0,0.0,0.0,0.0,0.0,0.0,0.0,0.0,0.0,0.0,0.0,0.0,-4.5872,-4.718,0.0,-4.7209,-4.8099,-4.8724,-4.878,-4.9027,-4.944,-5.002,-4.8718,-4.8311,-4.9114,-4.8282,-4.7953,-4.8206,-4.802,-4.7753,-4.7513,-4.7753,-4.7513,-4.6802,-4.7293,-4.6853,-4.5703,-4.5415,-4.4874,-4.4028,-4.2236,-4.139,-4.1102,-4.0087,-3.9876,-4.0079,-3.9808,-3.9723,-3.9623,0.0,0.0,0.0,0.0,0.0,-3.0349,-3.0157,-3.0399,-3.0706,-3.0991,-3.1505,-3.2201,-3.307,-3.3377,-3.3495,-3.348,-3.3502,-3.3205,-3.2342,-3.2545,-3.2524,-3.2146,-3.1528,-3.0536,-2.9134,-2.9385,-2.9761,-3.0238,-3.1764,-3.2961,-3.3844,-3.4294,-3.4846,-3.5504,-3.5504,-3.5508,-3.5462,-3.4988,-3.5133,-3.5595,-3.4067,-3.3888,-3.4318,0.0,0.0,0.0,0.0,0.0,0.0,0.0,0.0,0.0,0.0,0.0,0.0,0.0,0.0,0.0,0.0,0.0,0.0,0.0,0.0,0.0,0.0,0.0,0.0,0.0,0.0,0.0,0.0,0.0,0.0,0.0,0.0,0.0,0.0,0.0,-4.6992,-4.7249,-4.8547,-4.928,-4.8939,-4.9834,-5.0573,-5.0865,-5.0894,-5.129,-5.2141,-5.0552,-4.9837,-5.0385,-4.9496,-4.9001,-4.9001,-4.8528,-4.8156,-4.7889,-4.8142,-4.7767,-4.6819,-4.7581,-4.7107,-4.5703,-4.5703,-4.528,-4.4479,-4.2956,-4.1999,-4.1474,-4.0502,-4.0096,-4.0096,-4.0096,-4.0096,-4.007,0.0,0.0,0.0,0.0,0.0,-3.041,-3.0404,-3.0208,-3.0236,-3.0799,-3.1335,-3.2128,-3.337,-3.412,-3.428,-3.369,-3.2811,-3.1901,-3.0968,-3.0724,-3.0819,-3.1283,-3.0427,-2.9512,-2.8573,-2.9232,-3.0238,-3.1525,-3.2183,-3.3215,-3.4503,-3.4533,-3.4861,-3.5504,-3.5504,-3.5504,-3.5504,-3.5504,-3.5095,-3.4446,-3.4537,-3.4356,-3.3958,0.0,0.0,0.0,0.0,0.0,0.0,0.0,0.0,0.0,0.0,0.0,0.0,0.0,0.0,0.0,0.0,0.0,0.0,0.0,0.0,0.0,0.0,0.0,0.0,0.0,0.0,0.0,0.0,0.0,0.0,0.0,0.0,0.0,-4.4859,-4.7021,-4.8266,-4.7611,-4.9615,-5.0726,-4.9916,-5.1237,-5.2449,-5.3163,-5.3282,-5.3647,-5.4392,-5.235,-5.117,-5.117,-4.9769,-4.9001,-4.9001,-4.9001,-4.8646,-4.7922,-4.8663,-4.824,-4.6853,-4.7581,-4.7107,-4.5703,-4.5703,-4.5263,-4.4445,-4.2939,-4.2286,-4.2117,-4.0671,-4.0096,-4.0096,-4.0096,-4.0096,-3.9978,0.0,0.0,0.0,-3.0404,-3.0441,-3.0452,-3.0402,-3.0753,-3.0871,-3.0439,-3.1912,-3.3132,-3.3526,-3.4474,-3.5009,-3.485,-3.3288,-3.1972,-3.1173,-2.9717,-2.8987,-2.9201,-2.856,-2.874,-2.9927,-2.9728,-3.0462,-3.2213,-3.2901,-3.3649,-3.4518,-3.4996,-3.5325,-3.5504,-3.5504,-3.5504,-3.5504,-3.5504,-3.5384,-3.5156,-3.4651,-3.44,-3.4264,0.0,0.0,0.0,0.0,0.0,0.0,0.0,0.0,0.0,0.0,0.0,0.0,0.0,0.0,0.0,0.0,0.0,0.0,0.0,0.0,0.0,0.0,0.0,0.0,0.0,0.0,0.0,0.0,0.0,0.0,0.0,-4.389,-4.5178,-4.6521,-4.7835,-4.917,-5.0647,-5.1483,-5.2059,-5.2421,-5.3337,-5.3775,-5.346,-5.3432,-5.3284,-5.2938,-5.1323,-5.0393,-5.0393,-4.9497,-4.9001,-4.9001,-4.9001,-4.89,-4.8714,-4.89,-4.8511,-4.7614,-4.7804,-4.7107,-4.5703,-4.5703,-4.4959,-4.3673,-4.2692,-4.1982,-4.1407,-4.0485,-4.0096,-4.0096,-4.0096,-4.0096,-3.9978,0.0,0.0,0.0,-3.0404,-3.0452,-3.0477,-3.0408,-3.0752,-3.0791,-3.0196,-3.2266,-3.3579,-3.3065,-3.4356,-3.4771,-3.3567,-3.231,-3.0874,-2.9224,-2.8296,-2.8015,-2.8424,-2.8365,-2.8901,-3.0101,-3.0295,-3.1091,-3.2512,-3.344,-3.4129,-3.4518,-3.519,-3.5504,-3.5504,-3.5504,-3.5504,-3.5504,-3.5504,-3.5504,-3.5462,-3.5015,-3.4849,-3.4816,-3.4226,-3.4145,-3.4345,-3.4522,-3.5519,-3.6737,-3.6636,0.0,0.0,0.0,0.0,0.0,0.0,0.0,0.0,0.0,0.0,0.0,0.0,0.0,0.0,0.0,0.0,0.0,0.0,0.0,0.0,0.0,0.0,0.0,0.0,-4.5645,-4.7179,-4.8781,-4.9142,-5.0096,-5.2407,-5.2454,-5.2621,-5.3416,-5.3881,-5.4074,-5.3962,-5.368,-5.3406,-5.3261,-5.1834,-5.1014,-5.1014,-4.9999,-4.9458,-4.9458,-4.9154,-4.9001,-4.9001,-4.9001,-4.846,-4.7445,-4.7445,-4.6633,-4.5213,-4.4891,-4.422,-4.3308,-4.2269,-4.1593,0.0,0.0,0.0,0.0,0.0,-4.0096,-4.0045,0.0,0.0,0.0,-3.0408,-3.0462,-3.0477,-3.0408,-3.0457,-3.0389,-3.0037,-3.2419,-3.3641,-3.2322,-3.3978,-3.4078,-3.1288,-3.0798,-2.9424,-2.6523,-2.6876,-2.7567,-2.8354,-2.9117,-2.9551,-2.9696,-3.0868,-3.1869,-3.2617,-3.3784,-3.4474,-3.4638,-3.522,-3.5504,-3.5504,-3.5504,-3.5504,-3.5504,-3.5504,-3.5504,-3.5504,-3.5504,-3.5504,-3.537,-3.4173,-3.4409,-3.5306,-3.4705,-3.5029,-3.584,-3.6482,0.0,0.0,0.0,0.0,0.0,0.0,0.0,0.0,0.0,0.0,0.0,0.0,0.0,0.0,0.0,0.0,0.0,0.0,0.0,0.0,0.0,0.0,0.0,0.0,-4.7834,-4.9476,-5.1216,-5.0771,-5.107,-5.3238,-5.2853,-5.2723,-5.3433,-5.3501,-5.3783,-5.4437,-5.3848,-5.3783,-5.4419,0.0,0.0,0.0,0.0,-5.0084,-5.0084,-4.9373,-4.9001,-4.9001,-4.9001,-4.8274,-4.6921,-4.6836,-4.6024,-4.4682,-4.3792,-4.3341,-4.3156,-4.1779,-4.1153,-4.1018,-4.0367,-4.0096,-4.0096,-4.0096,-4.0096,-4.0096,0.0,0.0,0.0,-3.0463,-3.0485,-3.0477,-3.0408,-3.0457,-3.0389,-3.0037,-3.2213,-3.3374,-3.2243,-3.3876,-3.4229,-3.2206,-3.1335,-2.9832,-2.7258,-2.6765,-2.6933,-2.775,-2.8936,-2.9805,-3.0313,-3.1092,-3.2079,-3.3305,-3.3559,-3.4247,-3.531,-3.5444,-3.5504,-3.5504,-3.5504,-3.5504,-3.5504,-3.5504,-3.5504,-3.5504,-3.5504,-3.5504,-3.5474,-3.522,-3.4941,-3.4693,-3.4557,-3.5401,-3.6599,-3.6718,-3.7514,-3.8517,-3.9082,-3.8495,0.0,0.0,0.0,0.0,0.0,0.0,0.0,0.0,0.0,0.0,0.0,0.0,0.0,0.0,0.0,0.0,0.0,0.0,0.0,-4.6561,-4.8485,-5.0584,-5.2732,-5.2361,-5.2226,-5.3276,-5.3316,-5.3331,-5.3484,-5.3501,-5.3568,-5.3684,-5.3584,-5.3551,-5.3701,-5.2822,-5.23,-5.23,-5.0862,-5.0084,-5.0084,-4.9373,-4.9001,-4.9001,0.0,0.0,-4.7682,-4.7073,-4.6312,-4.5415,-4.4028,-4.3064,-4.2439,-4.1559,-4.0849,-4.0316,-4.0163,-4.0096,-4.0096,-4.0096,-4.0096,-4.0096,0.0,0.0,0.0,-3.049,-3.0498,-3.0477,-3.0408,-3.0491,-3.0481,-3.0284,-3.2503,-3.3506,-3.1924,-3.3399,-3.3602,-3.1348,-2.947,-2.8369,-2.8308,-2.7163,-2.7406,-2.9445,-3.0573,-3.1598,-3.2577,-3.3635,-3.416,-3.4104,-3.4744,-3.5217,-3.5536,-3.5518,-3.5701,-3.6023,-3.5668,-3.5504,-3.5537,-3.5894,-3.6054,-3.6086,-3.6477,-3.6662,-3.6585,-3.5797,-3.5507,-3.5568,-3.5568,-3.6306,-3.735,-3.7741,-3.8324,-3.9003,-3.9687,-3.9301,-3.8695,0.0,0.0,0.0,0.0,0.0,0.0,0.0,0.0,0.0,0.0,0.0,0.0,0.0,0.0,-4.1102,-4.3095,0.0,-4.6853,-4.8714,-5.0236,-5.1734,-5.3276,-5.3139,-5.3155,-5.3929,-5.3707,-5.3501,-5.3501,-5.3501,-5.3501,-5.3501,-5.3501,-5.3501,-5.3501,-5.3129,-5.2723,-5.2317,-5.1234,-5.0473,-5.0084,-4.9373,-4.9001,-4.9001,-4.9001,-4.8612,-4.7855,-4.7141,-4.6397,-4.5602,-4.369,-4.2642,-4.2202,-4.1102,-4.0434,-4.0096,-4.0096,-4.0096,-4.0096,-4.0096,-4.0096,-4.0096,0.0,0.0,0.0,-3.0528,-3.0494,-3.0467,-3.0402,-3.0498,-3.0554,-3.0511,-3.2532,-3.3293,-3.1438,-3.2632,-3.2619,-3.0242,-2.7757,-2.7278,-2.9479,-2.821,-2.8657,-3.1589,-3.2605,-3.3525,-3.4469,-3.5888,-3.6031,-3.4875,-3.6048,-3.6422,-3.6032,-3.5967,-3.618,-3.6584,-3.6149,-3.5846,-3.575,-3.6508,-3.6813,-3.6873,-3.7544,-3.7793,-3.7677,-3.6538,-3.6399,-3.6813,-3.6813,-3.7154,-3.77,-3.8614,-3.8782,-3.8851,-3.9791,-3.9849,-3.9583,-3.9658,-3.9482,0.0,0.0,0.0,0.0,0.0,0.0,0.0,0.0,0.0,-4.0491,-4.1201,-4.1377,-4.2503,-4.609,-4.7254,-4.8477,-5.1014,-5.2046,-5.2756,-5.3416,-5.3501,-5.3717,-5.4328,-5.3865,-5.3501,-5.3501,-5.3501,-5.3501,-5.3501,-5.3501,-5.3501,-5.3501,-5.3501,-5.3129,-5.2334,-5.1589,-5.0862,-5.0101,-4.9373,-4.9001,-4.9001,-4.9001,-4.8697,-4.8075,-4.7192,-4.6481,-4.5788,-4.3352,-4.2134,-4.1788,-4.0603,-4.0096,-4.0096,-4.0096,-4.0096,-4.0096,-4.0096,-4.0096,-4.0096,0.0,0.0,0.0,0.0,0.0,-3.0402,-3.0404,-3.0467,-3.0516,-3.0503,-3.1479,-3.1789,-3.0722,-3.1463,-3.1546,-3.0296,-2.9026,-2.8983,-3.0599,-3.0303,-3.0784,-3.2415,-3.3766,-3.4239,-3.3734,-3.5171,-3.5812,-3.56,-3.6378,-3.7048,-3.7549,-3.7541,-3.7219,-3.663,-3.7249,-3.713,-3.6523,-3.7338,-3.7661,-3.7661,-3.7748,-3.7793,-3.7819,-3.8135,-3.8,-3.7661,-3.7661,-3.732,-3.7042,-3.8434,-3.8453,-3.818,-3.9648,-3.963,-3.9149,-3.9583,0.0,-3.8915,-3.9905,-4.0726,-4.1334,-4.1665,-4.1306,-4.1238,0.0,0.0,-4.2011,-4.1947,-4.4123,-4.6157,-4.6477,-4.8835,-5.1048,-5.2029,-5.2858,-5.3399,-5.3501,-5.3501,-5.3534,-5.3618,-5.3568,-5.3501,-5.3501,-5.3501,-5.3501,-5.3501,-5.3501,-5.3501,-5.3501,-5.3501,-5.3129,-5.2334,-5.1589,-5.0862,-5.0101,-4.9373,-4.9001,-4.9001,-4.9001,-4.8968,-4.8832,-4.7428,-4.6752,-4.6498,-4.3555,-4.1568,-4.0333,-4.018,-4.0096,-4.0096,-4.0096,-4.0096,-4.0096,-4.0096,-4.0096,-4.0096,0.0,0.0,0.0,0.0,0.0,-3.0404,-3.0404,-3.0457,-3.0505,-3.0544,-3.1385,-3.1598,-3.0658,-3.0679,-3.0428,-2.9629,-2.8767,-2.9112,-3.1115,-3.0597,-3.153,-3.4513,-3.5801,-3.6611,-3.6975,-3.8503,-3.9054,-3.8554,-3.8552,-3.8682,-3.8943,-3.8173,-3.7847,-3.793,-3.7847,-3.7602,-3.7368,-3.8133,-3.8641,-3.8997,-3.9417,-3.9809,-4.0146,-4.0384,-4.0031,-3.927,-3.8102,-3.8052,0.0,-3.7853,-3.833,-3.9251,-3.9885,-4.0189,-4.0324,-4.0523,-4.0281,0.0,-4.0922,-4.1132,-4.1261,0.0,-4.1518,-4.1356,-4.2484,-4.2821,-4.3175,-4.3997,-4.5925,-4.7798,-4.9001,-5.0654,-5.2097,0.0,-5.3281,-5.3501,-5.3501,-5.3501,-5.3331,-5.2858,-5.3213,-5.3501,-5.3501,-5.3501,-5.3501,-5.3501,-5.3501,-5.3501,-5.3501,-5.3061,-5.2452,-5.1691,-5.0947,-5.0202,-4.9475,-4.9154,-4.9001,-4.9001,-4.9001,-4.9001,-4.8951,-4.7462,-4.6075,-4.4739,-4.3031,-4.1694,-4.0696,-4.0282,-4.0096,-4.0096,-4.0096,-4.0096,-4.0096,-4.0096,-4.0096,-4.0096,0.0,0.0,0.0,0.0,0.0,-3.0417,-3.039,-3.0457,-3.0521,-3.0594,-3.1213,-3.1383,-3.0673,-3.0314,-2.989,-2.9391,-2.897,-2.9569,-3.1559,-3.1324,-3.2696,-3.6241,-3.7637,-3.8743,-3.9571,-4.1215,-4.1691,-4.0905,-4.0624,-4.0498,-4.0474,-3.9385,-3.906,-3.9365,-3.9083,-3.8963,-3.8953,-3.9548,-4.0138,-4.0721,-4.1007,-4.1424,-4.1796,-4.173,-4.1182,-4.0276,-3.8654,-3.8424,-3.8637,-3.716,-3.7657,-3.8886,-3.9123,-3.9781,-4.0492,-4.0578,-4.0747,-4.1047,-4.1727,0.0,0.0,-4.248,-4.2355,-4.2216,-4.2954,-4.374,-4.4572,-4.5635,-4.7432,-4.9212,-5.0555,-5.1797,-5.2824,-5.3416,-5.3501,-5.3501,-5.3501,-5.3315,-5.2959,-5.2367,-5.2638,-5.2959,-5.3162,-5.3365,-5.3501,-5.3501,-5.3501,-5.3501,-5.3501,-5.2959,-5.2198,-5.1219,-5.0676,-4.9949,-4.9018,-4.9001,-4.9001,-4.9001,-4.8798,-4.8714,-4.8663,-4.7175,-4.5365,-4.3358,-4.2844,-4.2066,-4.117,-4.0612,-4.0282,-4.0096,-4.0096,-4.0096,-4.0096,-4.0096,-4.0096,-4.0096,0.0,0.0,0.0,0.0,0.0,-3.0472,-3.0408,-3.0457,-3.0521,-3.0594,-3.0685,-3.0698,-3.0611,-3.0472,-3.0292,-3.0006,-3.0322,-3.099,-3.2109,-3.3256,-3.4864,-3.7065,-3.8939,-3.9987,-4.0077,-4.1845,-4.2417,-4.168,-4.205,-4.2221,-4.2219,-4.1855,-4.1279,-4.0597,-4.1536,-4.1905,-4.1786,-4.194,-4.2352,-4.2837,-4.2072,-4.1771,-4.1764,-4.1507,-4.0905,-4.0128,-3.9534,-3.8114,-3.6478,-3.6343,-3.607,-3.5853,-3.6637,-3.7729,-3.8732,-3.8989,-3.9925,-4.1099,0.0,0.0,-4.3146,-4.3944,-4.4121,-4.4311,-4.505,-4.588,-4.6456,-4.6319,-4.8855,-5.0839,-4.9987,-5.1848,-5.3467,-5.3501,-5.3501,-5.3501,-5.3501,-5.2841,-5.2334,-5.23,-5.1708,-5.1555,0.0,-5.3044,-5.3501,-5.3501,-5.3501,-5.3501,-5.3501,-5.3484,-5.2773,-5.1236,-5.1168,-5.049,-4.9018,-4.9001,-4.9001,-4.9001,-4.8291,-4.7922,-4.7872,-4.6413,-4.4891,-4.3392,-4.3375,-4.2557,-4.1204,-4.1187,-4.0747,-4.0096,-4.0096,-4.0096,-4.0096,-4.0096,-4.0096,-4.0096,0.0,0.0,0.0,0.0,0.0,0.0,-3.0408,-3.0431,-3.0467,-3.0584,-3.1109,0.0,0.0,0.0,0.0,0.0,-3.0122,-3.1003,-3.2865,-3.3568,-3.5132,-3.7808,-3.9808,-4.103,-4.1423,-4.3118,-4.3867,-4.3634,-4.3351,-4.3238,-4.3221,-4.2704,-4.2494,-4.2531,-4.2884,-4.3172,-4.3392,-4.2911,-4.3066,-4.3481,-4.2078,-4.2095,-4.2795,-4.163,-4.1025,-4.0571,0.0,-3.7484,-3.6415,-3.5242,-3.5397,-3.6165,-3.6633,-3.7403,-3.8303,-3.9255,-3.9932,-4.071,0.0,0.0,-4.4278,-4.5434,-4.6152,-4.6779,-4.7518,-4.8272,-4.8697,-4.8148,-4.889,-4.9445,-4.8671,-4.9624,-5.0676,-5.115,-5.2063,-5.2892,-5.3433,-5.3264,-5.2723,-5.1708,-5.1792,0.0,0.0,0.0,0.0,-5.3467,-5.3501,-5.3501,-5.3501,-5.2993,-5.2469,-5.1961,-5.098,-5.0219,-4.9729,-4.9238,-4.9001,-4.9001,-4.8257,-4.7618,-4.7141,-4.616,-4.5145,-4.4164,-4.3639,-4.2844,-4.188,-4.1407,-4.0764,-4.0096,-4.0096,-4.0096,-4.0096,-4.0096,-4.0096,-4.0096,0.0,0.0,0.0,0.0,0.0,0.0,0.0,0.0,0.0,0.0,0.0,0.0,0.0,0.0,0.0,0.0,0.0,-3.0852,-3.2532,-3.3125,-3.4604,-3.7299,-3.903,-4.0369,-4.1332,-4.2519,-4.3278,-4.3612,-4.3372,-4.3429,-4.3729,-4.3547,-4.3594,-4.3899,-4.3943,-4.4178,-4.4504,-4.378,-4.3474,-4.3342,-4.1887,-4.155,-4.1804,-4.0682,-4.0065,0.0,-3.7716,-3.6854,-3.6297,-3.4516,-3.4621,-3.5573,-3.5885,-3.6857,-3.8143,-3.9399,-4.0483,-4.169,0.0,-4.5115,-4.633,-4.7685,-4.8452,-4.8996,-4.9477,-4.9967,-5.0097,-4.9342,-4.9019,-4.8681,-4.795,-4.8048,-4.8376,-4.8832,-4.9712,-5.0794,-5.2097,-5.1843,-5.1539,-5.1606,-5.1555,-5.1352,0.0,0.0,0.0,-5.301,-5.3348,-5.3501,-5.3501,-5.301,-5.2604,-5.2317,-5.1116,-5.0371,-5.0084,-4.9373,-4.8748,-4.8206,-4.7733,-4.6989,-4.5974,-4.5229,-4.4621,-4.413,-4.3352,-4.2591,-4.1863,-4.1407,-4.0764,-4.0096,-4.0096,-4.0096,-4.0096,-4.0096,-4.0096,-4.0096,0.0,0.0,0.0,0.0,0.0,0.0,0.0,0.0,0.0,0.0,0.0,0.0,0.0,0.0,0.0,0.0,0.0,0.0,-3.1291,-3.208,-3.3502,-3.5692,-3.6891,-3.828,-3.9919,-4.0356,-4.0969,-4.1788,-4.2288,-4.2942,-4.3781,-4.4289,-4.4537,-4.4555,-4.4699,-4.4895,-4.5118,-4.4514,-4.361,-4.2544,-4.1438,-4.025,-3.9092,-3.8773,-3.8212,-3.7511,-3.6615,-3.6321,-3.6076,-3.4258,-3.3929,-3.4298,-3.4572,-3.618,-3.8187,-3.9462,-4.1538,-4.3868,-4.5982,-4.7635,-4.9094,-5.0515,-5.0894,-5.093,-5.093,-5.0933,-5.071,-4.987,-4.9195,-4.8459,0.0,0.0,-4.6701,-4.6786,-4.6921,-4.7784,-4.9965,-4.9086,-4.9221,0.0,0.0,0.0,0.0,0.0,0.0,-5.2249,0.0,-5.3467,-5.3501,-5.3501,-5.3162,-5.2384,-5.1623,-5.0879,-5.0152,-4.939,-4.8274,-4.6853,-4.6802,-4.6036,-4.4581,-4.3775,-4.3375,-4.3291,-4.2591,-4.188,-4.1204,-4.1204,-4.0764,-4.0096,-4.0096,-4.0096,-4.0096,-4.0096,-4.007,-4.0045,0.0,0.0,0.0,0.0,0.0,0.0,0.0,0.0,0.0,0.0,0.0,0.0,0.0,0.0,0.0,0.0,0.0,0.0,-3.1591,-3.2352,-3.3628,-3.5492,-3.7049,-3.8385,-3.946,-4.0784,-4.1585,-4.1788,-4.2565,-4.3049,-4.3279,-4.3426,-4.3643,-4.3939,-4.4016,-4.4266,-4.4562,-4.3802,-4.287,-4.1742,-4.0234,-3.963,-3.9547,-3.8294,-3.8429,-3.9035,-3.7019,-3.6703,-3.69,0.0,0.0,0.0,0.0,-3.7804,-3.9097,-4.1061,-4.2465,-4.3974,-4.6667,-4.8495,-4.9985,-5.1344,-5.2142,-5.2601,-5.2601,-5.2147,-5.1329,-4.9978,-4.7884,-4.5884,0.0,0.0,0.0,-4.6616,-4.8646,0.0,-5.2384,-5.2317,0.0,-5.2283,0.0,-5.1674,-5.1505,-5.1809,0.0,0.0,-5.2486,-5.2875,-5.3467,-5.3501,-5.3416,-5.3213,-5.1911,-5.1116,-5.093,-4.9644,-4.8545,-4.7631,-4.7056,-4.6036,-4.4581,-4.3775,-4.3115,-4.2574,-4.2371,-4.188,-4.1204,-4.1204,-4.0764,-4.0096,-4.0096,-4.0096,-4.0096,-4.0096,-3.9731,-3.9289,0.0,0.0,0.0,0.0,0.0,0.0,0.0,0.0,0.0,0.0,0.0,0.0,0.0,0.0,0.0,0.0,0.0,0.0,0.0,-3.2641,-3.3506,-3.4872,-3.5834,-3.6738,-3.7603,-3.8911,-3.9558,-3.9558,-4.0816,-4.1431,-4.1431,-4.1797,-4.2087,-4.2288,-4.2336,-4.2396,-4.2444,-4.1983,-4.0959,0.0,0.0,-3.8331,-3.7917,-3.7625,-3.8062,-3.8667,-3.7309,-3.7033,0.0,0.0,0.0,-3.7466,-3.8548,-3.9597,-4.0815,-4.277,0.0,-4.5834,-4.8101,-5.0051,-5.1616,-5.2352,-5.3133,-5.3463,-5.2399,-5.159,-5.0617,-4.8904,-4.6413,0.0,0.0,0.0,0.0,0.0,0.0,0.0,-5.1217,-5.1539,-5.186,0.0,-5.252,0.0,-5.2232,-5.2266,-5.2452,0.0,-5.2841,-5.3027,-5.3484,-5.3501,-5.3348,-5.2993,-5.1826,-5.0881,-5.0253,-4.9407,-4.8477,-4.7411,-4.6667,-4.5534,-4.4045,-4.2946,-4.2219,-4.1796,0.0,-4.1085,-4.0713,-4.0713,-4.046,-4.0096,-4.0096,-4.0096,-4.0096,-4.0096,-3.9808,-3.9489,0.0,0.0,0.0,0.0,0.0,0.0,0.0,0.0,0.0,0.0,-3.4729,-3.5518,0.0,0.0,0.0,0.0,0.0,0.0,0.0,0.0,-3.3295,-3.4167,-3.4205,-3.4603,-3.5481,-3.6288,-3.6692,-3.6692,-3.8334,-3.913,-3.915,-3.9842,-4.0169,-4.0169,-4.0169,-4.001,-3.9719,-3.969,-3.8617,-3.6994,-3.7511,-3.6887,-3.5739,0.0,-3.7566,-3.7658,-3.7658,0.0,0.0,0.0,-3.9003,-3.8599,-4.0062,-4.1627,-4.3183,-4.475,-4.6589,-4.8442,-5.0021,-5.1847,-5.3321,-5.3346,-5.3812,-5.3647,-5.1334,-5.0083,-4.8941,-4.7179,0.0,-4.2998,-4.263,-4.1909,-4.1627,-4.2455,0.0,-4.6058,-4.9018,-4.9441,-5.0456,-5.3179,-5.2892,-5.2739,-5.3433,-5.2875,-5.2756,-5.345,-5.3501,-5.3501,-5.3501,-5.3501,-5.3095,-5.2181,-5.1454,-5.0405,-4.9018,-4.89,-4.8156,-4.6786,-4.6058,-4.4908,-4.3341,-4.1982,-4.1288,-4.117,-4.0434,-4.0096,-4.0096,-4.0096,-4.0096,-4.0096,-4.0096,-4.0096,-4.0096,-4.0096,-4.002,-3.9952,0.0,0.0,0.0,0.0,0.0,0.0,0.0,0.0,0.0,0.0,-3.5348,-3.4921,0.0,0.0,0.0,0.0,0.0,0.0,0.0,0.0,0.0,-3.4167,-3.4205,-3.4603,-3.5481,-3.6288,-3.6692,-3.6692,-3.7719,-3.8238,-3.8238,-3.8373,-3.843,-3.843,-3.843,-3.8408,-3.8335,-3.8112,-3.7281,-3.6155,-3.6682,-3.6602,-3.626,-3.7173,0.0,0.0,0.0,0.0,0.0,0.0,-4.032,-4.0899,-4.2344,-4.4299,-4.6295,-4.78,-4.8924,-5.0163,-5.2237,-5.3105,-5.349,-5.4062,-5.3812,-5.2968,-5.1206,-4.8828,0.0,0.0,-4.3283,-4.1192,-4.0495,-4.1327,0.0,-4.3988,0.0,0.0,0.0,0.0,-5.2181,0.0,0.0,0.0,0.0,0.0,0.0,0.0,0.0,-5.3501,-5.3501,-5.3501,-5.2858,-5.1454,-5.0676,-4.9881,-4.9018,-4.8409,-4.7665,-4.6786,-4.6058,-4.4908,-4.3358,-4.2506,-4.1779,-4.117,-4.0434,0.0,-4.0096,-4.0096,-4.0096,-4.0096,-4.0096,-4.0096,-4.0096,-4.0096,-3.9662,-3.9193,0.0,0.0,0.0,0.0,0.0,0.0,0.0,-3.4981,-3.6151,-3.7956,-3.759,-3.7094,-3.6919,-3.6561,-3.5926,0.0,0.0,0.0,0.0,0.0,0.0,0.0,0.0,0.0,-3.6115,-3.6949,-3.7373,-3.7373,0.0,-3.843,-3.8007,-3.8007,-3.8007,-3.7988,-3.7526,-3.7315,-3.7281,-3.658,-3.6131,-3.5956,-3.6483,-3.6803,-3.7015,0.0,0.0,0.0,0.0,0.0,0.0,0.0,-4.0993,-4.2244,-4.346,-4.5436,-4.7432,-4.8196,-4.9221,-5.0492,-5.2333,-5.3414,-5.41,-5.4328,-5.3812,-5.2543,-5.0068,0.0,0.0,0.0,-4.1767,-3.9914,-3.9818,0.0,0.0,0.0,0.0,0.0,0.0,0.0,0.0,0.0,0.0,0.0,0.0,0.0,0.0,0.0,0.0,-5.3501,-5.3501,-5.2756,-5.1978,-5.1202,-5.0118,-4.9357,-4.9001,-4.8291,-4.753,-4.6786,-4.5652,-4.4316,-4.2811,-4.2066,-4.1322,-4.0595,-4.0265,-4.0096,-4.0096,-4.0096,-4.0096,-4.0096,-4.0096,-4.0096,-4.0096,-4.0096,-3.9876,-3.9584,0.0,0.0,0.0,0.0,0.0,0.0,-3.6231,-3.6212,-3.698,-3.9613,-4.0062,-3.9828,-3.9039,-3.8093,-3.7046,0.0,0.0,0.0,0.0,0.0,0.0,0.0,0.0,0.0,0.0,0.0,0.0,-3.8277,-3.8777,0.0,0.0,0.0,0.0,0.0,-3.7276,-3.6865,-3.6647,-3.5949,-3.5742,0.0,0.0,-3.7289,0.0,0.0,0.0,0.0,0.0,0.0,0.0,0.0,-4.1112,-4.2594,-4.3617,-4.5674,-4.7745,-4.7987,-4.9128,-5.0666,-5.2155,-5.3676,-5.4759,-5.4496,-5.3668,-5.2142,-4.9022,-4.5461,0.0,0.0,-4.052,-3.8955,-3.952,0.0,0.0,0.0,0.0,0.0,0.0,0.0,0.0,0.0,0.0,0.0,0.0,0.0,0.0,0.0,0.0,-5.3501,-5.3501,-5.2046,-5.1185,-5.1185,-4.9779,-4.9001,-4.9001,-4.8122,-4.7378,-4.6769,-4.5309,-4.3972,-4.2743,-4.1847,-4.1119,-4.0553,-4.0248,-4.0096,-4.0096,-4.0096,-4.0096,-4.0096,-4.0096,-4.0096,-4.0096,-4.0096,-4.0096,-4.0096,0.0,0.0,0.0,0.0,0.0,0.0,-3.5596,-3.6834,-3.8721,-4.1414,-4.183,-4.1836,-4.1746,-4.0363,-3.8717,0.0,0.0,0.0,0.0,0.0,0.0,0.0,0.0,0.0,0.0,0.0,0.0,-3.9188,-3.8469,0.0,0.0,0.0,0.0,0.0,0.0,-3.745,-3.6724,-3.7181,0.0,0.0,0.0,0.0,0.0,0.0,0.0,0.0,0.0,0.0,0.0,0.0,0.0,-4.1427,-4.2436,-4.4982,-4.7727,-4.843,0.0,0.0,-5.2961,-5.4466,-5.5413,-5.4694,-5.3303,-5.1444,-4.8893,0.0,0.0,-4.1913,-3.9811,-3.8234,-3.8926,-3.9551,-4.0208,0.0,0.0,-4.4405,0.0,0.0,0.0,0.0,0.0,0.0,0.0,0.0,0.0,0.0,0.0,-5.3501,-5.3501,-5.2046,-5.1185,-5.1185,-4.9779,-4.9001,-4.9001,-4.7597,-4.6853,-4.6769,-4.5309,-4.453,-4.4344,-4.2861,-4.2151,-4.2016,-4.0688,-4.0096,0.0,-4.0096,-4.0096,-4.0096,-4.0096,-4.0096,-4.0096,-4.0096,-4.0096,-4.0096,0.0,0.0,0.0,0.0,0.0,0.0,-3.7546,-3.7911,-3.9167,-4.2422,-4.2866,-4.2939,-4.3056,-4.2469,-4.0878,-3.7938,-3.7679,0.0,0.0,0.0,0.0,0.0,0.0,0.0,0.0,0.0,-3.9639,-4.0498,-4.0642,0.0,0.0,0.0,0.0,0.0,0.0,0.0,-3.825,-3.7783,0.0,0.0,0.0,0.0,0.0,0.0,0.0,0.0,0.0,0.0,0.0,0.0,0.0,0.0,-4.0843,-4.2625,0.0,0.0,-4.8816,-5.0867,-5.2949,-5.4208,-5.5016,-5.5112,-5.2852,-5.016,-4.8636,0.0,-4.1676,-4.1789,-4.0336,-3.9018,-3.9011,-3.953,-3.9968,-3.9884,0.0,0.0,0.0,0.0,0.0,0.0,0.0,0.0,0.0,0.0,0.0,0.0,0.0,-5.3298,-5.2807,-5.1775,-5.1014,-5.0557,-4.9543,-4.9001,-4.9001,-4.753,-4.6786,-4.6769,-4.5309,-4.4361,-4.3842,-4.2777,-4.2049,-4.1576,-4.0553,-4.0096,0.0,-4.0096,-4.0096,-4.0121,-4.0449,-4.0577,-4.0577,-4.0577,-4.0577,-4.0546,0.0,0.0,0.0,0.0,0.0,-3.6538,-3.8604,-3.8604,-3.9482,-4.2578,-4.3011,-4.3179,-4.3575,-4.3604,-4.2548,-3.9904,-3.8991,0.0,0.0,0.0,0.0,0.0,0.0,0.0,0.0,0.0,-4.0828,-4.2045,-4.2359,-4.2824,0.0,0.0,0.0,0.0,0.0,0.0,0.0,0.0,0.0,0.0,0.0,0.0,0.0,0.0,0.0,0.0,0.0,0.0,0.0,0.0,0.0,0.0,0.0,0.0,0.0,0.0,-4.7226,-4.971,-5.1901,-5.3321,-5.4287,-5.4771,-5.2093,-4.8989,0.0,0.0,-4.1515,-4.1258,-4.0472,-3.9698,-3.9365,-3.9702,-3.9861,-3.941,0.0,-4.0789,0.0,0.0,0.0,0.0,0.0,0.0,0.0,0.0,0.0,0.0,0.0,-5.2807,-5.2029,-5.1285,-5.0642,-5.0101,-4.9373,-4.9001,-4.9001,-4.753,-4.6786,-4.6769,-4.5309,-4.4282,-4.3741,-4.2963,-4.2219,-4.1474,-4.073,-4.0316,0.0,-4.0096,-4.0096,-4.0146,-4.0703,-4.0803,-4.0679,-4.0833,-4.0803,-4.0625,0.0,0.0,0.0,0.0,0.0,-3.6981,-3.7873,-3.8738,-3.9935,-4.1788,-4.2063,-4.2443,-4.3315,-4.3529,-4.3487,-4.3175,-4.0839,0.0,0.0,0.0,0.0,0.0,0.0,0.0,0.0,0.0,-4.1767,-4.3759,-4.2921,-4.3111,-4.4259,-4.3451,-4.2624,-4.1788,0.0,0.0,0.0,0.0,0.0,0.0,0.0,0.0,0.0,0.0,0.0,0.0,0.0,0.0,0.0,0.0,0.0,0.0,0.0,-4.1095,-4.1352,0.0,-4.511,-4.799,-4.9663,-5.1748,-5.3389,-5.3271,-5.0945,-4.8088,0.0,0.0,-4.1413,-4.0085,-3.9817,-3.9853,-4.0068,-3.9928,-3.9865,-4.006,-4.0528,0.0,0.0,0.0,0.0,0.0,0.0,0.0,0.0,0.0,0.0,0.0,-5.2756,0.0,-5.1236,-5.0507,-5.0101,-5.0084,-4.9373,-4.9001,-4.9001,-4.753,-4.6786,-4.6769,-4.5309,-4.4615,-4.4564,-4.3775,-4.2997,-4.2236,-4.1508,-4.0764,0.0,-4.0096,-4.0096,-4.0146,-4.0703,-4.0577,-4.0154,-4.0685,-4.0552,-4.0096,0.0,0.0,0.0,0.0,0.0,0.0,-3.7777,-3.8318,-3.9406,-4.1752,-4.2092,-4.247,-4.3423,-4.3401,-4.3291,-4.3214,-4.1962,0.0,0.0,0.0,0.0,0.0,0.0,0.0,0.0,-4.1098,-4.193,-4.3115,-4.3668,-4.4254,-4.4832,-4.4199,-4.3778,-4.3489,-4.2931,-4.2066,0.0,0.0,0.0,0.0,0.0,0.0,0.0,0.0,0.0,0.0,0.0,0.0,0.0,0.0,0.0,0.0,0.0,0.0,0.0,-3.9996,-4.3047,-4.6802,-4.8108,-4.8935,-4.9454,-4.9513,-4.7543,-4.5432,-4.4682,0.0,-4.1551,-4.0706,-4.0556,-4.0457,-4.017,-4.0067,-4.0014,-4.0087,-4.0254,0.0,0.0,0.0,0.0,0.0,0.0,0.0,0.0,0.0,0.0,0.0,-5.2756,-5.1978,-5.1251,-5.049,-4.9864,-4.9357,-4.912,-4.9001,-4.9001,-4.753,-4.6786,-4.6769,-4.5309,-4.4615,-4.4564,-4.3234,-4.2523,-4.2219,-4.0984,-4.0333,-4.0096,-4.0096,-4.0096,-4.0146,-4.0703,-4.0803,-4.0679,-4.085,-4.0803,-4.0601,0.0,0.0,0.0,0.0,0.0,0.0,-3.7796,-3.8073,-3.8824,-4.0798,-4.1068,-4.1557,-4.2788,-4.3095,-4.3312,-4.3599,-4.3153,0.0,0.0,0.0,0.0,0.0,0.0,0.0,-4.078,-4.1212,-4.2009,-4.3249,-4.4303,-4.4915,-4.5096,-4.5073,-4.4776,-4.4278,-4.3778,-4.3085,0.0,0.0,0.0,0.0,0.0,0.0,-4.2983,0.0,0.0,0.0,0.0,0.0,0.0,0.0,0.0,0.0,0.0,0.0,0.0,0.0,-4.1131,-4.4357,-4.6071,-4.6688,-4.6924,-4.7275,-4.5611,0.0,0.0,0.0,-4.1221,-4.0364,-4.0567,-4.075,-4.0204,-4.0096,-4.0096,-4.0096,-4.0096,0.0,0.0,0.0,0.0,0.0,0.0,0.0,0.0,0.0,0.0,0.0,-5.2334,-5.1572,-5.0828,-5.0084,-4.9475,-4.9018,-4.9001,-4.9001,-4.9001,-4.753,-4.6786,-4.6769,-4.5309,-4.4615,-4.4564,-4.3284,-4.2557,-4.2219,-4.1018,-4.0367,0.0,-4.0096,-4.0096,-4.0146,-4.0703,-4.078,-4.0607,-4.0827,-4.078,-4.0552,0.0,0.0,0.0,0.0,0.0,0.0,0.0,-3.7964,-3.8337,-3.9191,-3.9419,-4.0049,-4.1567,-4.2599,-4.347,-4.4141,-4.4316,0.0,0.0,0.0,0.0,0.0,0.0,0.0,-4.1537,-4.1322,-4.2097,-4.3971,-4.473,-4.5106,-4.5082,-4.5845,-4.5548,-4.4393,-4.4393,-4.397,-4.3299,-4.3655,-4.4117,-4.4553,-4.4105,-4.3267,0.0,0.0,0.0,0.0,0.0,0.0,0.0,0.0,0.0,0.0,0.0,0.0,0.0,0.0,0.0,0.0,0.0,-4.4719,-4.5418,-4.5994,-4.46,-4.269,-4.1209,0.0,0.0,0.0,-3.9932,-4.0634,-4.0179,-4.0096,-4.0096,-4.0096,0.0,0.0,0.0,0.0,0.0,0.0,0.0,0.0,0.0,0.0,0.0,-5.2367,-5.164,-5.0896,-5.0135,-4.9407,-4.9001,-4.9001,-4.9001,-4.9001,-4.9001,-4.753,-4.6786,-4.6769,-4.5309,-4.4581,-4.4496,-4.369,-4.2929,0.0,-4.1441,-4.073,-4.0096,-4.0096,-4.0096,-4.0146,-4.0655,-4.0528,-4.0171,-4.0655,-4.0546,-4.0096,0.0,0.0,0.0,0.0,0.0,0.0,0.0,0.0,0.0,0.0,-3.9969,-4.0531,-4.0913,-4.2254,-4.3192,0.0,0.0,0.0,0.0,0.0,0.0,0.0,0.0,0.0,-4.1201,-4.1748,-4.2538,-4.3631,-4.4066,-4.4435,-4.4739,-4.5175,-4.5359,-4.5287,-4.5287,-4.519,-4.4962,-4.4152,-4.4117,-4.451,-4.3483,-4.2764,0.0,0.0,0.0,0.0,-3.9014,-3.8574,0.0,0.0,0.0,0.0,0.0,0.0,0.0,0.0,-3.7689,-3.8565,-3.9942,0.0,-4.1947,-4.169,-4.0817,-3.9944,0.0,0.0,0.0,0.0,0.0,0.0,0.0,0.0,0.0,0.0,0.0,0.0,0.0,0.0,0.0,0.0,0.0,0.0,0.0,0.0,0.0,-5.2367,-5.164,-5.0896,-5.0135,-4.9407,-4.9001,-4.9001,-4.9001,-4.9001,-4.9001,-4.753,-4.6786,-4.6769,-4.5309,-4.4265,-4.3673,-4.2895,-4.2151,-4.1424,-4.0663,-4.0265,-4.0096,-4.0096,-4.0096,-4.0121,-4.0254,-4.0204,-4.0138,-4.0254,-4.0204,-4.0096,0.0,0.0,0.0,0.0,0.0,0.0,0.0,0.0,0.0,0.0,-3.976,-4.0352,-4.1124,-4.2341,-4.3258,0.0,0.0,0.0,0.0,0.0,0.0,0.0,0.0,-4.1477,-4.166,-4.2084,-4.269,-4.3515,-4.4048,-4.4423,-4.4612,-4.5155,-4.55,-4.5594,-4.5594,-4.5513,-4.5333,-4.4664,-4.4478,-4.4491,-4.3292,0.0,0.0,0.0,0.0,0.0,-3.7846,-3.7433,0.0,-3.6923,-3.6664,-3.6419,0.0,0.0,0.0,0.0,-3.6933,-3.7724,-3.7933,-3.8983,-4.0045,-4.0086,-3.9554,-3.8988,-3.8988,0.0,0.0,0.0,0.0,0.0,0.0,0.0,0.0,0.0,0.0,0.0,0.0,0.0,0.0,0.0,0.0,0.0,0.0,0.0,-5.3044,-5.1894,-5.1437,-5.0744,-4.9644,-4.9221,-4.9001,-4.9001,-4.9001,-4.9001,-4.9001,-4.753,-4.6786,-4.6769,-4.5309,-4.435,-4.391,-4.2794,-4.2066,-4.1644,-4.057,-4.0096,-4.0096,-4.0096,-4.0096,-4.0096,-4.0096,-4.0096,-4.0096,-4.0096,-4.0096,-4.0096,0.0,0.0,0.0,0.0,0.0,0.0,0.0,0.0,0.0,0.0,0.0,0.0,0.0,0.0,0.0,0.0,0.0,0.0,0.0,0.0,0.0,0.0,-4.224,-4.2108,-4.2119,-4.2249,-4.269,-4.3515,-4.4176,-4.4506,-4.4533,-4.5221,-4.55,-4.5448,-4.5448,-4.5322,-4.5096,-4.5096,-4.4931,-4.4569,-4.3357,0.0,0.0,0.0,0.0,0.0,0.0,0.0,0.0,-3.6308,-3.5985,-3.56,-3.56,0.0,0.0,0.0,0.0,0.0,-3.706,-3.7783,-3.8831,-3.958,-3.9276,-3.8802,-3.8684,0.0,0.0,0.0,0.0,0.0,0.0,0.0,0.0,0.0,0.0,0.0,0.0,0.0,0.0,0.0,0.0,0.0,0.0,-5.3264,-5.2739,-5.1319,-5.1116,-5.0456,-4.9069,-4.9001,-4.9001,-4.9001,-4.9001,-4.8951,-4.8832,-4.7479,-4.6786,-4.6769,-4.5309,-4.4547,-4.4378,-4.2946,-4.2236,-4.2049,0.0,0.0,-4.0096,-4.0096,-4.0096,-4.0096,-4.0096,-4.0096,-4.0096,-4.0096,-4.0096,-4.0096,0.0,0.0,0.0,0.0,0.0,0.0,0.0,0.0,0.0,0.0,0.0,0.0,0.0,0.0,0.0,0.0,0.0,0.0,0.0,0.0,0.0,-4.4241,-4.2863,-4.1827,-4.1295,-4.1956,-4.269,-4.3515,-4.3608,-4.3822,-4.4087,-4.4218,-4.4463,-4.4745,-4.4745,-4.4884,-4.5096,-4.5096,-4.5074,-4.4931,-4.3712,0.0,0.0,0.0,0.0,0.0,0.0,0.0,0.0,-3.5876,-3.5672,-3.56,-3.56,0.0,0.0,0.0,0.0,0.0,-3.7415,-3.7409,-3.7235,-3.8048,-3.8159,-3.7905,-3.7286,0.0,0.0,0.0,0.0,0.0,0.0,0.0,0.0,0.0,0.0,0.0,0.0,0.0,0.0,0.0,0.0,0.0,0.0,-5.2131,-5.2131,-5.1252,-5.0625,-4.9898,-4.9052,-4.9001,-4.9001,-4.9001,-4.9001,-4.8714,-4.8058,-4.7225,-4.6786,-4.6769,-4.5309,-4.4231,-4.3555,-4.2692,-4.1948,-4.1322,0.0,-4.0096,-4.0096,-4.0096,-4.0096,-4.0096,-4.0096,-4.0096,-4.0096,-4.0096,-4.0096,-4.0096,0.0,0.0,0.0,0.0,0.0,0.0,0.0,0.0,0.0,0.0,0.0,0.0,0.0,0.0,0.0,0.0,0.0,0.0,0.0,0.0,-4.5083,-4.3951,-4.3158,-4.2492,-4.1977,-4.2608,-4.2991,-4.3087,-4.3357,-4.3679,-4.3998,-4.4219,-4.4323,-4.4294,-4.4501,-4.4548,-4.4516,-4.4943,-4.4865,-4.4446,0.0,0.0,0.0,0.0,0.0,0.0,0.0,0.0,0.0,0.0,-3.56,-3.56,-3.56,0.0,0.0,0.0,0.0,0.0,-3.6563,-3.6701,-3.6744,-3.6671,-3.6671,-3.6624,-3.6295,-3.5613,0.0,0.0,0.0,0.0,0.0,0.0,0.0,0.0,0.0,0.0,0.0,0.0,0.0,0.0,0.0,0.0,-5.106,-5.1765,-5.1826,-5.0693,-5.0287,-4.9779,-4.9035,-4.9001,-4.9001,-4.9001,-4.9001,-4.8663,-4.7889,-4.7175,-4.6599,-4.6194,-4.5122,-4.4181,-4.3358,-4.2642,-4.1897,-4.117,0.0,-4.0096,-4.0096,-4.0096,-4.0096,-4.0096,-4.0096,-4.0096,-4.0096,-4.0096,-4.0096,-4.0096,0.0,0.0,0.0,0.0,0.0,0.0,0.0,0.0,0.0,0.0,0.0,0.0,0.0,0.0,0.0,0.0,0.0,0.0,0.0,-4.5306,-4.4825,-4.376,-4.3643,-4.3222,-4.2406,-4.2796,-4.2905,-4.2711,-4.3105,-4.351,-4.3896,-4.4194,-4.418,-4.3896,-4.4209,-4.4223,-4.4028,-4.4612,-4.4574,-4.4105,0.0,0.0,0.0,0.0,0.0,0.0,0.0,0.0,0.0,0.0,0.0,0.0,0.0,0.0,0.0,-3.56,-3.6045,-3.6394,-3.5795,-3.5949,-3.6084,-3.5331,-3.532,-3.5502,-3.5635,-3.5123,0.0,0.0,0.0,0.0,0.0,0.0,0.0,0.0,0.0,0.0,0.0,0.0,0.0,0.0,0.0,-5.1028,-5.0803,-5.1396,-5.1319,-5.0168,-4.9932,-4.9593,-4.9035,-4.9001,-4.9001,-4.9001,-4.8832,-4.8392,-4.7665,-4.6921,-4.6261,-4.5703,-4.4942,-4.4265,-4.3656,-4.2726,-4.1982,-4.1407,-4.0502,-4.0096,-4.0096,-4.0096,-4.0096,-4.0096,-4.0096,-4.0096,-4.0096,-4.0096,-4.0096,-4.0096,0.0,0.0,0.0,0.0,0.0,0.0,0.0,0.0,0.0,0.0,0.0,0.0,0.0,0.0,0.0,0.0,0.0,0.0,0.0,-4.4393,-4.4565,-4.4952,-4.4662,-4.3573,-4.1539,-4.1539,-4.1918,-4.2711,-4.275,-4.3032,-4.3531,-4.3582,-4.3546,-4.3531,-4.3582,-4.3742,-4.3998,-4.4058,-4.4261,-4.4527,-4.4101,0.0,0.0,0.0,0.0,0.0,0.0,0.0,0.0,0.0,0.0,0.0,0.0,0.0,-3.56,-3.56,-3.5633,-3.5689,-3.5693,-3.5235,-3.4622,-3.3995,-3.4311,-3.4937,-3.5484,-3.5085,0.0,-3.6163,0.0,0.0,0.0,0.0,0.0,0.0,0.0,0.0,0.0,0.0,0.0,0.0,-5.0611,-5.0839,-5.0818,-5.0476,-5.0202,-5.0101,-4.9458,-4.9069,-4.9001,-4.9001,-4.9001,-4.9001,-4.8359,-4.7631,-4.6887,-4.616,-4.5754,-4.5703,-4.4942,-4.4581,-4.4479,-4.299,-4.2252,-4.2134,-4.0722,-4.0096,-4.0096,-4.0096,-4.0096,-4.0096,-4.0096,-4.0096,-4.0096,-4.0096,-4.0096,-4.0096,0.0,0.0,0.0,0.0,0.0,0.0,0.0,0.0,0.0,0.0,0.0,-4.5229,-4.5556,0.0,0.0,0.0,0.0,0.0,0.0,-4.4028,-4.4306,-4.4296,-4.4492,-4.3712,-4.1809,-4.2393,-4.2705,-4.2711,-4.3032,-4.3303,-4.3515,-4.3515,-4.3515,-4.3515,-4.3515,-4.3563,-4.3693,-4.3909,-4.3974,-4.3915,-4.3971,-4.2916,0.0,0.0,0.0,0.0,0.0,0.0,0.0,0.0,-3.5211,-3.56,-3.56,-3.56,-3.56,-3.56,-3.56,-3.5498,-3.5131,-3.4818,-3.452,-3.4272,-3.407,0.0,0.0,-3.4725,-3.4911,-3.6214,-3.6833,0.0,0.0,0.0,0.0,0.0,0.0,0.0,0.0,0.0,0.0,-4.75,-4.9087,-4.9752,-4.8673,-4.9493,-4.9898,-4.9458,-4.9171,-4.9001,-4.9001,-4.9001,-4.9001,-4.9001,-4.8261,-4.7564,-4.6802,-4.6075,-4.5466,-4.4993,-4.4733,-4.4107,-4.3159,-4.2557,-4.1805,-4.0908,-4.035,-4.0096,-4.0096,-4.0096,-4.0096,-4.0096,-4.0096,-4.0096,-4.0096,-4.0096,-4.0096,-4.0096,0.0,0.0,0.0,0.0,0.0,0.0,0.0,0.0,-4.3701,0.0,0.0,0.0,0.0,-4.4105,0.0,0.0,0.0,0.0,-4.2624,-4.3451,-4.3939,-4.3961,-4.4216,-4.3779,-4.259,-4.3037,-4.2935,-4.2296,-4.3104,-4.3515,-4.3515,-4.3515,-4.3515,-4.3515,-4.3515,-4.3515,-4.3513,-4.3481,-4.3488,-4.3495,-4.3463,-4.2511,0.0,0.0,0.0,0.0,0.0,0.0,0.0,0.0,-3.4883,-3.5492,-3.5311,-3.5245,-3.5245,-3.5245,-3.5116,-3.476,-3.3871,-3.3641,-3.3628,-3.3581,0.0,0.0,-3.4848,-3.4983,-3.5235,-3.6776,-3.7419,0.0,0.0,0.0,0.0,0.0,0.0,0.0,0.0,0.0,-4.6155,-4.5616,-4.7294,-4.8155,-4.7273,-4.8462,-4.9209,-4.9004,-4.9001,-4.89,-4.868,-4.8663,-4.8562,-4.8308,-4.7597,-4.6972,-4.6447,-4.572,-4.5094,-4.4615,-4.4333,-4.3656,-4.2642,-4.2405,-4.161,-4.0434,-4.0197,-4.0096,-4.0096,-4.0096,-4.0096,-4.0096,-4.0096,-4.0096,-4.0096,-4.0096,-4.0096,-4.0096,0.0,0.0,0.0,0.0,0.0,0.0,0.0,0.0,-4.3701,-4.5364,-4.4836,0.0,0.0,0.0,0.0,0.0,0.0,0.0,-4.1731,-4.2604,-4.3451,-4.4239,-4.3971,-4.3798,-4.3798,-4.3144,-4.2357,-4.1411,-4.2812,-4.3515,-4.3496,-4.3515,-4.3515,-4.3496,-4.3515,-4.3496,-4.3424,-4.2635,-4.2745,-4.3387,-4.2598,-4.1792,-4.1095,0.0,0.0,0.0,0.0,0.0,0.0,0.0,-3.4629,-3.5212,-3.4666,-3.451,-3.4489,-3.4489,-3.4063,-3.3294,-3.1878,-3.1558,-3.1605,0.0,0.0,0.0,-3.5878,-3.5983,-3.6058,-3.7988,0.0,-3.8392,-3.8392,0.0,0.0,0.0,0.0,0.0,0.0,0.0,-4.4541,-4.52,-4.5541,-4.61,-4.708,-4.7425,-4.7982,-4.894,-4.9001,-4.868,-4.7922,-4.7889,-4.7564,-4.6802,-4.6075,-4.5703,-4.5703,-4.4987,-4.4615,-4.4598,-4.3792,-4.3392,-4.3358,-4.2625,-4.188,-4.1153,-4.0434,-4.0096,-4.0096,-4.0096,-4.0096,-4.0096,-4.0096,-4.0096,-4.0096,-4.0096,-4.0096,-4.0096,0.0,0.0,0.0,0.0,0.0,0.0,0.0,0.0,-4.4124,-4.4624,-4.4998,0.0,0.0,0.0,0.0,0.0,0.0,0.0,-4.0912,-4.17,-4.2566,-4.3412,-4.3684,-4.3819,-4.3869,-4.316,-4.2826,-4.2866,-4.3299,-4.3221,-4.2671,-4.3239,-4.3185,-4.2671,-4.324,-4.2974,-4.2087,-4.1851,-4.1542,-4.1233,-4.098,-4.0643,-4.0267,0.0,0.0,0.0,0.0,0.0,0.0,0.0,0.0,0.0,-3.4874,-3.4772,-3.4423,-3.3996,-3.3752,-3.3315,-3.1953,-3.1935,0.0,0.0,0.0,0.0,0.0,-3.5983,0.0,0.0,0.0,-3.8392,0.0,0.0,0.0,-4.0292,-4.1669,-4.288,-4.3499,-4.3589,-4.3663,-4.3858,-4.4594,-4.5166,-4.5466,-4.6772,-4.7737,-4.7982,-4.8625,-4.868,-4.7922,-4.7889,-4.7564,-4.6802,-4.6075,-4.5703,-4.5703,-4.4987,-4.4615,-4.4598,-4.3792,-4.3149,-4.2591,-4.1863,-4.1119,-4.0417,-4.0197,-4.0096,-4.0096,-4.0096,-4.0096,-4.0096,-4.0096,-4.0096,-4.0096,-4.0096,-4.0096,-4.0096,0.0,0.0,0.0,0.0,0.0,0.0,-4.289,-4.3109,-4.3279,-4.3769,-4.4278,-4.4528,0.0,0.0,0.0,0.0,0.0,0.0,-4.1046,-4.1508,-4.22,-4.3066,-4.3368,-4.3576,-4.3658,-4.2919,-4.2701,-4.302,-4.302,-4.2598,-4.1846,-4.2653,-4.2641,-4.1993,-4.2813,-4.2268,-4.0735,-4.0716,-4.0268,-3.9587,-3.9568,-3.9571,-3.9584,0.0,0.0,0.0,0.0,0.0,0.0,0.0,0.0,0.0,-3.5216,-3.484,-3.4227,-3.3411,-3.2984,-3.248,-3.1111,0.0,0.0,0.0,0.0,0.0,0.0,0.0,0.0,0.0,0.0,0.0,0.0,0.0,0.0,-4.1025,-4.2058,-4.288,-4.3245,-4.329,-4.329,-4.329,-4.3849,-4.4266,-4.4387,-4.5738,-4.6666,-4.6749,-4.7594,-4.78,-4.709,-4.7039,-4.6701,-4.594,-4.5179,-4.4807,-4.4807,-4.435,-4.3978,-4.3684,-4.32,-4.2591,-4.1847,-4.1407,-4.0798,-4.0096,-4.0096,-4.0096,-4.0096,-4.0096,-4.0096,-4.0096,-4.0096,-4.0096,-4.0096,-4.0096,-4.0096,-4.0096,0.0,0.0,-3.9223,-3.9611,0.0,0.0,-4.1307,-4.1483,-4.1887,-4.2849,-4.3104,-4.3431,0.0,0.0,0.0,-4.4085,0.0,0.0,0.0,-4.175,-4.22,-4.3066,-4.3258,-4.336,-4.3467,-4.2649,-4.222,-4.2243,-4.2211,-4.1756,-4.0936,-4.1815,-4.183,-4.1175,-4.2093,-4.1321,-3.9317,-3.931,-3.8852,-3.8116,-3.8199,-3.8432,-3.8724,-3.8796,0.0,0.0,0.0,0.0,0.0,0.0,0.0,0.0,-3.5688,-3.4923,-3.4093,-3.2983,-3.2124,-3.1238,-3.0018,0.0,0.0,0.0,0.0,0.0,0.0,0.0,0.0,0.0,0.0,0.0,0.0,0.0,0.0,-4.2111,-4.2821,-4.323,-4.329,-4.329,-4.329,-4.329,-4.3245,-4.3322,-4.3636,-4.4402,-4.5019,-4.5369,-4.6179,-4.6406,-4.5754,-4.5703,-4.5348,-4.4632,-4.3826,-4.3392,-4.3392,-4.3325,-4.2963,-4.2286,-4.2219,-4.1847,-4.1204,-4.1136,-4.073,-4.0096,-4.0096,-4.0096,-4.0096,-4.0096,-4.0096,-4.0096,-4.0096,-4.0096,-4.0096,-4.0096,-4.0096,-4.0096,0.0,0.0,-3.9344,-4.0096,0.0,0.0,-4.2127,-4.2896,-4.3043,-4.2187,-4.3239,-4.3605,-4.247,-4.2951,0.0,-4.2412,-4.2,0.0,0.0,-4.1412,-4.22,-4.3066,-4.4355,-4.495,-4.4722,-4.3615,-4.2626,-4.1753,-4.1475,-4.0745,-3.9567,-4.0963,-4.0688,-3.9103,-4.0511,-3.9646,-3.721,-3.776,-3.6888,-3.5213,-3.6377,-3.6412,-3.5864,-3.6453,-3.6501,0.0,0.0,0.0,0.0,0.0,0.0,0.0,-3.6287,-3.5788,-3.4933,-3.419,-3.2842,-3.151,0.0,-3.0815,0.0,0.0,0.0,0.0,0.0,0.0,0.0,0.0,0.0,0.0,0.0,0.0,0.0,-4.1459,-4.2186,-4.2746,-4.3215,-4.329,-4.329,-4.329,-4.288,-4.2623,-4.2689,-4.306,-4.3617,-4.4344,-4.5256,-4.5754,-4.5708,-4.5703,-4.5348,-4.4632,-4.3826,-4.3392,-4.3392,-4.2828,-4.2455,-4.2286,-4.1711,-4.1356,-4.1187,-4.0595,-4.0265,-4.0096,-4.0096,-4.0096,-4.0096,-4.0096,-4.0096,-4.0096,-4.0096,-4.0096,-4.0096,-4.0096,-4.0096,-4.0096,0.0,0.0,0.0,0.0,0.0,0.0,0.0,0.0,-4.2686,-4.1684,-4.2825,-4.3393,-4.2527,-4.2835,0.0,0.0,-4.2038,0.0,0.0,-4.1162,-4.1758,-4.3047,-4.4556,-4.5001,-4.4258,-4.3089,-4.1801,-4.0402,-3.9483,-3.8854,-3.856,-3.9515,-3.926,-3.7997,-3.8848,-3.784,-3.5565,-3.5959,-3.5235,-3.3894,-3.4644,-3.5025,-3.5092,-3.5125,-3.519,-3.5248,-3.5248,0.0,0.0,0.0,0.0,0.0,0.0,0.0,-3.582,-3.4709,-3.3689,-3.2691,0.0,0.0,0.0,0.0,0.0,0.0,0.0,0.0,0.0,0.0,0.0,0.0,0.0,0.0,0.0,-4.1265,-4.1707,-4.2156,-4.2776,-4.2865,-4.2985,-4.326,-4.2761,-4.2276,-4.1961,-4.2111,-4.2326,-4.2449,-4.3314,-4.384,-4.3913,-4.3988,-4.3843,-4.3442,-4.2739,-4.2371,-4.2371,-4.1965,-4.1593,-4.1221,-4.0855,-4.029,-3.9583,-3.9941,-4.0096,-4.0096,-4.0096,-4.0096,-4.0096,-4.0096,-4.0096,-4.0096,-4.0096,-3.9859,-3.9584,-3.9952,-3.9876,-3.9584,0.0,0.0,0.0,0.0,0.0,0.0,0.0,0.0,0.0,-4.1348,-4.2218,-4.2816,-4.2662,-4.2527,-4.2374,0.0,0.0,0.0,0.0,0.0,0.0,-4.322,-4.4172,-4.4251,-4.3335,-4.1906,-4.044,-3.8903,-3.7264,-3.6801,-3.7452,-3.787,-3.7679,-3.6991,-3.7176,-3.6075,-3.4138,-3.4252,-3.388,-3.322,-3.3355,-3.3953,-3.4723,-3.4101,-3.4081,-3.4359,-3.4359,-3.4907,-3.567,-3.6122,0.0,0.0,0.0,0.0,-3.6611,-3.5211,-3.4563,-3.3924,0.0,0.0,0.0,0.0,0.0,0.0,0.0,0.0,0.0,0.0,0.0,0.0,0.0,0.0,0.0,-4.1085,-4.1205,-4.1482,-4.2141,-4.2336,-4.256,-4.2955,-4.2521,-4.1931,-4.1115,-4.1111,-4.0982,-4.0566,-4.1079,-4.155,-4.1805,-4.1936,-4.2021,-4.2021,-4.1354,-4.1004,-4.1004,-4.0869,-4.0499,-3.9876,-4.0044,-3.9352,-3.8035,-3.9305,-3.9808,-3.9705,-3.985,-3.9901,-3.9901,-4.0045,-4.002,-3.9901,-4.0045,-3.9532,-3.8816,-3.961,-3.9463,-3.8962,0.0,0.0,0.0,0.0,0.0,0.0,0.0,0.0,0.0,0.0,-4.17,-4.17,-4.0939,-4.0227,-3.9488,-3.8757,-3.9277,-3.9623,-3.9623,0.0,0.0,-4.4066,-4.3369,-4.3045,-4.3297,-4.0827,-3.9065,-3.8159,-3.6077,-3.5277,-3.5667,-3.6351,-3.6038,-3.4941,-3.5581,-3.466,-3.2649,-3.3271,-3.3119,-3.2513,-3.3136,-3.313,-3.2686,-3.2601,-3.2421,-3.2211,-3.2211,-3.3002,-3.402,-3.4089,-3.5065,0.0,0.0,0.0,-3.7057,-3.6541,-3.543,-3.403,0.0,0.0,0.0,0.0,0.0,0.0,0.0,0.0,0.0,0.0,0.0,0.0,0.0,0.0,0.0,-4.0322,-4.0531,-4.0756,-4.1452,-4.2036,-4.2216,-4.1698,-4.1564,-4.1025,-3.9798,-3.9157,-3.9111,-3.9774,-3.938,-3.9722,-4.1054,-4.1262,-4.1337,-4.1337,-4.0641,-4.0238,-4.0238,-3.9566,-3.9158,-3.9086,-3.9763,-3.9633,-3.8772,-3.8978,-3.869,-3.8149,-3.8772,-3.9059,-3.9113,-3.9808,-3.9688,-3.9139,-3.985,-3.9226,-3.8035,-3.8772,-3.8989,-3.8827,0.0,0.0,0.0,0.0,0.0,0.0,0.0,0.0,0.0,0.0,0.0,-4.1036,-4.0345,-3.9961,-3.9276,-3.8096,-3.8796,-3.9304,-3.9304,-3.9988,-4.1143,-4.2835,-4.2065,-4.1488,-4.1288,-3.9722,-3.8044,-3.6219,-3.4852,-3.4402,-3.4839,-3.477,-3.4861,-3.5115,-3.503,-3.4218,-3.2899,-3.2814,-3.2615,-3.2293,-3.2188,-3.2205,-3.2259,-3.1853,-3.1582,-3.1451,-3.1451,-3.2101,-3.295,-3.3263,-3.4369,-3.5618,-3.5704,0.0,0.0,0.0,0.0,0.0,0.0,0.0,0.0,0.0,0.0,0.0,0.0,0.0,0.0,0.0,0.0,0.0,0.0,0.0,0.0,0.0,-3.9589,-4.0083,-4.0741,-4.107,-4.1294,-4.1407,-4.1055,-4.0606,-4.0023,-3.9005,-3.8552,-3.8937,-3.8348,-3.8256,-3.8963,-3.9093,-3.9173,-3.9173,-3.8943,-3.8817,-3.8817,-3.8464,-3.806,-3.7613,-3.7958,-3.7745,-3.698,-3.698,-3.7279,-3.7835,-3.858,-3.8908,-3.8962,-3.9782,-3.9636,-3.8935,-3.9289,-3.8497,-3.7203,-3.7991,-3.8003,-3.7613,0.0,0.0,0.0,0.0,0.0,0.0,0.0,0.0,0.0,0.0,0.0,0.0,-3.9715,0.0,0.0,0.0,-3.8036,-3.8654,-3.895,-3.8977,-3.9719,-4.1393,-4.0636,-4.0021,-3.9713,-3.8632,-3.6928,-3.4517,-3.3756,-3.3678,-3.4201,-3.366,-3.418,-3.5566,-3.4827,-3.4083,-3.3355,-3.2615,-3.2412,-3.2513,-3.1562,-3.165,-3.2226,-3.1481,-3.119,-3.119,-3.119,-3.1565,-3.2083,0.0,0.0,-3.4572,-3.4689,-3.5505,0.0,0.0,0.0,0.0,0.0,0.0,0.0,0.0,0.0,0.0,0.0,0.0,0.0,0.0,0.0,0.0,0.0,0.0,0.0,0.0,-3.8415,-3.914,-3.9798,-4.0038,-4.0337,-4.0831,-4.0442,-4.0008,-3.9679,-3.8586,-3.7913,-3.7913,-3.73,-3.7,-3.7165,-3.7298,-3.7343,-3.7343,-3.7441,-3.7485,-3.7485,-3.7485,-3.7308,-3.6904,-3.6904,-3.6508,-3.5782,-3.5782,-3.6305,-3.7265,-3.8003,-3.8425,-3.8663,-3.9279,-3.9262,-3.8881,-3.869,-3.7803,-3.6661,-3.7263,-3.7233,-3.6964,0.0,0.0,0.0,0.0,0.0,0.0,0.0,0.0,0.0,0.0,0.0,0.0,-3.8493,-3.7745,-3.6716,-3.5363,-3.5989,-3.6903,-3.8,-3.8065,-3.8815,-4.0496,-3.9201,0.0,-3.9675,-3.7551,-3.5548,-3.3772,-3.2942,-3.2876,-3.3457,-3.3423,-3.418,-3.5566,-3.4827,-3.4083,-3.3355,-3.2615,-3.2696,-3.322,-3.1782,-3.165,-3.2226,-3.1481,-3.119,-3.119,-3.119,0.0,0.0,0.0,0.0,0.0,0.0,0.0,0.0,0.0,0.0,0.0,0.0,0.0,0.0,0.0,0.0,0.0,0.0,0.0,0.0,0.0,0.0,0.0,0.0,0.0,0.0,0.0,-3.688,-3.7749,-3.8407,-3.905,-3.9448,-3.9514,-3.9448,-3.894,-3.7689,-3.6971,-3.6582,-3.6582,-3.5983,-3.5878,-3.6492,-3.6609,-3.6662,-3.6662,-3.6661,-3.6661,-3.6661,-3.6661,-3.7024,-3.7719,-3.7719,-3.7308,-3.6554,-3.6554,-3.6196,-3.5651,-3.6384,-3.7144,-3.7863,-3.7892,-3.8318,-3.8827,-3.8149,-3.7322,-3.6615,-3.6646,-3.713,-3.7632,0.0,0.0,0.0,0.0,0.0,0.0,0.0,0.0,0.0,0.0,0.0,0.0,0.0,-3.6723,-3.6295,-3.4964,-3.5107,-3.5666,-3.6577,-3.6159,-3.6717,-3.8555,-3.7753,-3.7282,-3.7254,-3.6628,-3.5341,-3.338,-3.2791,-3.2722,-3.3147,-3.2825,-3.3474,-3.4912,-3.5115,-3.481,-3.4027,-3.2909,-3.2546,-3.2597,-3.0778,-3.0462,-3.1001,-3.0299,-3.0293,-3.0621,0.0,0.0,0.0,0.0,0.0,0.0,0.0,0.0,0.0,0.0,0.0,0.0,0.0,0.0,0.0,0.0,0.0,0.0,0.0,0.0,0.0,0.0,0.0,0.0,0.0,0.0,0.0,0.0,0.0,-3.7494,-3.7719,-3.7973,-3.8287,-3.8706,-3.8392,-3.8108,-3.8048,-3.7105,-3.6492,-3.6492,-3.5878,-3.5609,-3.5848,-3.5886,-3.5894,-3.5894,-3.5894,-3.5894,-3.5894,-3.5894,-3.6038,-3.6321,-3.6321,-3.6164,-3.5894,-3.5894,-3.575,-3.5504,-3.5782,-3.6631,-3.7835,-3.8302,-3.8386,-3.8177,-3.7892,-3.7308,-3.6554,-3.6054,-3.6384,-3.6994,0.0,0.0,0.0,-3.8927,0.0,-3.7419,-3.7144,-3.6395,-3.5862,-3.5862,0.0,0.0,0.0,0.0,-3.6019,-3.4658,-3.4643,-3.4931,-3.5469,-3.5006,-3.5389,-3.6967,-3.6824,-3.641,-3.5783,-3.6377,-3.5542,-3.3199,-3.3012,-3.2932,-3.2984,-3.2517,-3.2953,-3.415,-3.4641,-3.4616,-3.4119,-3.2989,-3.2337,-3.1932,-3.0126,-2.9943,-3.0664,-3.0007,0.0,0.0,0.0,0.0,0.0,0.0,0.0,0.0,0.0,0.0,0.0,0.0,0.0,0.0,0.0,0.0,0.0,0.0,0.0,0.0,0.0,0.0,0.0,0.0,0.0,0.0,0.0,0.0,0.0,0.0,0.0,-3.6851,-3.7075,-3.7105,-3.7345,-3.7988,-3.7494,-3.727,-3.7704,-3.6791,-3.6148,-3.6148,-3.5744,0.0,-3.5504,-3.5504,-3.5504,-3.5504,-3.5504,-3.5504,-3.5504,-3.5504,-3.5504,-3.5504,-3.5504,-3.5504,-3.5504,-3.5504,-3.5504,-3.5504,-3.5504,-3.6227,-3.7456,-3.7946,-3.8145,-3.8133,-3.7892,-3.7616,-3.7247,-3.6228,-3.6508,-3.7336,-4.0528,-4.0119,-3.9643,-3.8836,-3.801,-3.7199,-3.6413,-3.5536,-3.4968,-3.5004,0.0,0.0,0.0,0.0,0.0,-3.4357,-3.4524,-3.4711,-3.4674,-3.4674,-3.5042,-3.5836,-3.6395,-3.6329,-3.5552,-3.6791,-3.6087,-3.325,-3.3528,-3.3424,-3.2968,-3.2483,-3.2666,-3.3372,-3.3372,-3.3426,-3.3499,-3.276,-3.2099,-3.1414,-2.9952,-3.0177,-3.1309,0.0,0.0,0.0,-3.1381,-3.1788,0.0,-3.1577,0.0,0.0,0.0,0.0,0.0,0.0,0.0,0.0,0.0,0.0,0.0,0.0,0.0,0.0,-3.5233,0.0,-3.3285,0.0,0.0,0.0,0.0,0.0,0.0,0.0,0.0,0.0,-3.6372,-3.6462,-3.6686,-3.7266,-3.6836,-3.6462,-3.6443,-3.5893,-3.5504,-3.5504,-3.5504,-3.5504,-3.5504,-3.5504,-3.5504,-3.5504,-3.5504,-3.5504,-3.5504,-3.5504,-3.5504,-3.5504,-3.5504,-3.5504,-3.5504,-3.5504,-3.5504,-3.5504,-3.5504,-3.5926,-3.6584,-3.6615,-3.7496,-3.8772,-3.8076,-3.8246,-3.869,-3.7188,-3.7584,-3.8799,-4.0087,-3.9958,-3.9643,-3.8836,-3.7551,-3.656,-3.6321,-3.5073,-3.4344,0.0,0.0,0.0,-3.5899,-3.6156,-3.5887,-3.4865,-3.4847,-3.4672,-3.4092,-3.4055,-3.4519,-3.556,-3.6131,-3.6403,-3.6366,-3.6537,-3.5929,-3.4501,-3.3389,-3.2769,-3.2633,-3.1871,-3.1904,-3.2615,-3.2615,-3.237,-3.1984,-3.1346,-3.1516,-3.2019,-2.9722,-2.9591,0.0,0.0,0.0,0.0,0.0,-3.1153,-3.1709,0.0,-3.1852,-3.166,0.0,0.0,0.0,0.0,0.0,0.0,-3.2406,0.0,0.0,0.0,0.0,0.0,-3.4221,-3.4152,-3.4009,0.0,0.0,0.0,0.0,0.0,0.0,0.0,0.0,0.0,-3.5744,-3.5774,-3.5751,-3.5667,-3.5718,-3.5659,-3.5448,-3.547,-3.5504,0.0,-3.5504,-3.5504,-3.5504,-3.5504,-3.5504,-3.5504,-3.5504,-3.5504,-3.5504,-3.5504,-3.5504,-3.5504,-3.5504,-3.5504,-3.5504,-3.5504,-3.5504,-3.5504,-3.5504,-3.5619,-3.5894,-3.7025,-3.7381,-3.7336,-3.823,-3.8386,-3.8048,-3.7632,-3.8076,-3.8881,-3.9405,-3.9207,-3.8929,-3.8439,-3.7132,-3.6134,-3.6134,-3.4759,-3.3985,0.0,0.0,0.0,-3.6349,-3.6366,-3.5954,-3.5078,-3.5334,-3.5188,-3.4362,-3.4633,-3.5133,-3.5795,-3.6435,-3.6716,-3.6541,-3.6711,-3.6211,-3.5004,-3.3667,-3.2836,-3.2484,-3.1618,-3.1427,-3.1853,-3.1853,-3.1498,-3.0935,-3.0593,0.0,0.0,-2.9305,0.0,0.0,-3.0103,-3.0365,0.0,0.0,0.0,-3.1909,-3.1941,-3.1709,0.0,0.0,0.0,0.0,0.0,0.0,0.0,0.0,0.0,0.0,0.0,0.0,0.0,-3.4164,-3.4031,-3.3932,0.0,-3.3324,0.0,0.0,0.0,0.0,0.0,0.0,0.0,0.0,-3.5504,-3.5266,-3.4649,-3.4777,-3.4804,-3.46,-3.4762,-3.5052,-3.5472,-3.5504,-3.5504,-3.5504,-3.5504,-3.5504,-3.5504,-3.5504,-3.5504,-3.5504,-3.5504,-3.5504,-3.5504,-3.5504,-3.5504,-3.5504,-3.5504,-3.5504,-3.5537,-3.5846,-3.5782,-3.5651,-3.7515,-3.779,-3.7263,-3.8799,-3.9129,-3.8723,-3.8374,-3.8734,-3.9342,0.0,-3.8267,-3.7893,-3.7893,-3.6792,-3.5914,-3.5914,-3.4659,-3.3988,0.0,-3.496,-3.5527,-3.6691,-3.6534,-3.6062,-3.5353,-3.5899,-3.5936,-3.5059,-3.5826,-3.6303,-3.6303,-3.707,-3.7217,-3.6578,-3.7088,-3.6619,-3.5076,-3.4064,-3.3155,-3.2401,-3.1564,-3.119,-3.119,-3.119,-3.0858,-3.03,-3.0364,0.0,-2.9367,-2.8958,-2.949,0.0,0.0,-3.0972,-3.1511,-3.1511,-3.1938,-3.2384,-3.1643,-3.146,0.0,0.0,0.0,0.0,0.0,-3.1469,0.0,0.0,0.0,0.0,0.0,0.0,0.0,-3.4629,-3.4186,-3.3629,-3.2889,-3.3191,0.0,0.0,0.0,0.0,0.0,0.0,0.0,0.0,-3.5554,-3.51,-3.3993,-3.3945,-3.391,-3.3705,-3.3774,-3.4259,-3.5246,-3.5439,-3.5504,-3.5504,-3.5504,-3.5504,-3.5504,-3.5504,-3.5504,-3.5504,-3.5504,-3.5504,-3.5504,-3.5504,-3.5504,-3.5504,-3.5504,-3.5504,-3.5537,-3.6196,-3.6134,-3.5782,-3.7889,-3.833,-3.7835,-3.9454,-4.0045,-3.9901,-3.9246,-3.9489,-3.9995,-3.8707,-3.8267,-3.7893,-3.7893,-3.6792,-3.5914,-3.5914,-3.5083,-3.4783,-3.556,-3.6287,-3.6969,-3.7608,-3.7041,-3.6728,-3.7004,-3.6593,-3.5936,-3.5059,-3.5826,-3.6303,-3.6303,-3.707,-3.7731,-3.823,-3.711,-3.6175,-3.5489,-3.365,-3.2457,-3.1933,-3.143,-3.119,-3.119,-3.119,-3.0858,-3.03,-3.0364,0.0,-2.8795,-2.9743,0.0,-3.0567,-3.1092,-3.1391,-3.1511,-3.1511,-3.1582,-3.169,-3.1455,-3.1789,-3.226,0.0,0.0,0.0,-3.2116,0.0,0.0,0.0,0.0,0.0,0.0,0.0,0.0,-3.4678,-3.4927,-3.5079,0.0,-3.3865,0.0,0.0,0.0,0.0,0.0,0.0,0.0,0.0,0.0,0.0,-3.3066,-3.3518,-3.3415,-3.1888,-3.2429,-3.3276,-3.4211,-3.5019,-3.5504,-3.5504,-3.5504,-3.5504,-3.5504,-3.5504,-3.5504,-3.5504,-3.5504,-3.5504,-3.5504,-3.5504,-3.5504,-3.5504,-3.5504,-3.5504,-3.5504,-3.5636,-3.5975,-3.6477,-3.7557,-3.7557,-3.7054,-3.9236,-3.9688,-3.9193,-3.9688,-3.9969,-4.0155,-3.8707,-3.8083,-3.7542,-3.7542,-3.6552,-3.5748,-3.5748,-3.5091,-3.4866,-3.5645,-3.605,-3.6343,-3.6589,-3.6132,-3.5747,-3.5616,-3.5596,-3.5399,-3.4918,-3.5934,-3.6713,-3.708,-3.7354,-3.7878,-3.8689,-3.6707,-3.5619,-3.5596,-3.3512,-3.2247,-3.1789,-3.1389,-3.1004,-3.0647,-3.0711,-3.0199,-2.9335,0.0,-2.9213,-2.817,-2.9504,0.0,-3.0118,-3.0776,-3.1212,-3.1511,-3.1511,-3.1511,-3.1448,-3.1091,-3.1432,0.0,0.0,-3.1495,-3.1519,0.0,-3.1747,-3.1599,0.0,0.0,0.0,-3.3395,0.0,0.0,0.0,-3.4864,-3.5566,-3.5182,0.0,0.0,0.0,0.0,0.0,0.0,0.0,0.0,0.0,0.0,0.0,-3.4081,-3.3969,-3.3449,-3.2033,-3.2321,-3.2996,-3.391,-3.4953,-3.5504,-3.5504,-3.5504,-3.5504,-3.5504,-3.5504,-3.5504,-3.5504,-3.5504,-3.5504,-3.5504,-3.5504,-3.5504,-3.5504,-3.5504,-3.5504,-3.5537,-3.5894,-3.6244,-3.6691,-3.7876,-3.8117,-3.7901,-3.9489,-3.9833,-3.9592,-4.0348,-4.0646,-4.0747,-3.8432,-3.7644,-3.6889,-3.6767,-3.6004,-3.5329,-3.5194,-3.4675,-3.4556,-3.5278,-3.5253,-3.5192,-3.5292,-3.4845,-3.4429,-3.4163,-3.4339,-3.4605,-3.4995,-3.5913,-3.6691,-3.7287,-3.7467,-3.7811,-3.8324,-3.6314,-3.5334,-3.5465,-3.3479,-3.223,-3.1678,-3.1237,-3.0712,-3.0154,-3.0129,-2.954,-2.8586,0.0,0.0,-2.7899,0.0,-2.9532,-2.9475,-3.0223,-3.0748,-3.1152,-3.1271,-3.1391,-3.1421,-3.0896,-3.1047,-3.1406,-3.0853,-3.1062,0.0,0.0,0.0,0.0,0.0,0.0,0.0,0.0,0.0,-3.4276,0.0,0.0,0.0,0.0,0.0,0.0,0.0,0.0,0.0,0.0,0.0,0.0,0.0,0.0,0.0,-3.5351,-3.4629,-3.3813,-3.2713,-3.2749,-3.3171,-3.3945,-3.4953,-3.5504,-3.5504,-3.5504,-3.5504,-3.5504,-3.5504,-3.5504,-3.5504,-3.5504,-3.5504,-3.5504,-3.5504,-3.5504,-3.5504,-3.5504,-3.5504,-3.5537,-3.6149,-3.6569,-3.6934,-3.8173,-3.8854,-3.9209,-4.0002,-4.0316,-4.0417,-4.1136,-4.1407,-4.1525,-3.7511,-3.678,-3.5844,-3.519,-3.4809,-3.4404,-3.3761,-3.3592,-3.3795,-3.4523,-3.4605,-3.4772,-3.5252,-3.4067,-3.3891,-3.5597,-3.3984,-3.3684,-3.5649,-3.535,-3.5136,-3.5137,-3.6893,-3.7581,-3.7017,-3.6452,-3.576,-3.4976,-3.3311,-3.2074,-3.1252,-3.0662,-3.0365,-3.024,-2.9729,-2.9458,0.0,0.0,-2.9118,0.0,-2.928,-2.9235,0.0,-3.0043,-3.0223,-2.9879,-3.0417,-3.0987,-3.1496,0.0,-3.1436,-3.1496,0.0,-3.1436,-3.1511,-3.1511,0.0,0.0,0.0,0.0,0.0,0.0,-3.3661,0.0,0.0,0.0,-3.5505,-3.4844,0.0,0.0,0.0,0.0,0.0,0.0,0.0,0.0,0.0,0.0,0.0,-3.5463,-3.5126,-3.442,-3.2757,-3.3345,-3.3876,-3.3993,-3.4953,-3.5504,-3.5504,-3.5504,-3.5504,-3.5504,-3.5504,-3.5504,-3.5504,-3.5504,-3.5504,-3.5504,-3.5504,-3.5504,-3.5504,-3.5504,-3.5504,-3.5504,-3.5587,-3.6399,-3.769,-3.7863,-3.875,-4.0045,-4.0789,-4.1085,-4.117,-4.1897,-4.2168,-4.2269,-3.6182,-3.5784,-3.5082,-3.4562,-3.4129,-3.3761,-3.3457,-3.3761,-3.4303,-3.5047,-3.4776,-3.4597,-3.4797,0.0,0.0,0.0,0.0,-3.3012,0.0,0.0,-3.4858,-3.5692,-3.6667,-3.728,-3.7423,-3.6188,-3.533,-3.4906,-3.3278,-3.2056,-3.119,-3.058,-3.0062,-2.9642,-2.9102,0.0,-2.8863,0.0,-2.8837,0.0,0.0,0.0,0.0,-2.946,-3.0028,-3.0148,-3.0417,-3.0913,-3.1511,0.0,-3.1511,0.0,0.0,0.0,0.0,0.0,0.0,0.0,0.0,0.0,0.0,0.0,0.0,0.0,-3.3184,0.0,-3.5571,0.0,0.0,0.0,0.0,0.0,0.0,0.0,-3.732,0.0,0.0,0.0,0.0,0.0,0.0,0.0,-3.4287,-3.4037,-3.3993,-3.3993,-3.4953,-3.5504,-3.5504,-3.5504,-3.5504,-3.5504,-3.5504,-3.5504,-3.5504,-3.5504,-3.5504,-3.5504,-3.5504,-3.5504,-3.5504,-3.5504,-3.5504,-3.5504,-3.5504,-3.6101,-3.7144,-3.7602,-3.843,-3.958,-4.1199,-4.1576,-4.1288,-4.2016,-4.2574,-4.3064,-3.4438,0.0,-3.427,-3.3654,-3.33,-3.3102,-3.3102,-3.3728,-3.4455,-3.5194,-3.4827,-3.4489,-3.4489,-3.4015,0.0,0.0,-3.253,-3.2784,0.0,0.0,-3.4329,-3.5824,-3.635,0.0,-3.7379,-3.5786,-3.4934,-3.4906,-3.3158,-3.1932,-3.119,-3.0414,-2.9765,-2.9228,-2.8748,-2.8489,-2.8471,0.0,-2.8607,-2.8637,-2.9116,-2.8727,-2.7959,-2.8753,-2.9639,-3.0477,-3.0313,-3.0806,-3.1511,-3.1511,-3.1511,0.0,-3.1511,0.0,0.0,0.0,0.0,0.0,-3.1824,0.0,0.0,0.0,0.0,0.0,0.0,0.0,0.0,0.0,0.0,0.0,0.0,0.0,0.0,0.0,0.0,-3.728,0.0,0.0,0.0,0.0,0.0,0.0,0.0,-3.5168,-3.4703,-3.4703,0.0,-3.5504,-3.5504,-3.5504,-3.5504,-3.5504,-3.5504,-3.5504,-3.5504,-3.5504,-3.5504,-3.5504,-3.5504,-3.5504,-3.5504,-3.5504,-3.5504,-3.5504,-3.5504,-3.5926,-3.6646,-3.7249,-3.8048,-3.9094,-4.0946,-4.1379,-4.1043,-4.2436,-4.3267,-4.3809,-3.2091,-3.2845,0.0,-3.2088,-3.2137,-3.2344,-3.2344,-3.2949,-3.3694,-3.4438,0.0,0.0,0.0,0.0,0.0,0.0,0.0,-3.3203,-3.538,0.0,-3.3025,0.0,0.0,-3.63,0.0,-3.5244,-3.4836,-3.4906,-3.2826,-3.1621,-3.1171,-2.9978,-2.9413,-2.9361,-2.8828,-2.8588,-2.8588,-2.8592,-2.8607,-2.8607,-2.8622,-2.8607,-2.8502,0.0,-2.8858,-3.0417,-2.9846,0.0,0.0,-3.1511,-3.1511,0.0,0.0,0.0,0.0,0.0,0.0,0.0,0.0,0.0,0.0,-3.344,0.0,0.0,0.0,0.0,-3.4525,0.0,0.0,0.0,0.0,0.0,0.0,0.0,0.0,0.0,0.0,0.0,0.0,0.0,0.0,0.0,0.0,-3.6994,-3.6507,0.0,-3.5894,-3.5504,-3.5504,-3.5504,-3.5504,-3.5504,-3.5504,-3.5504,-3.5504,-3.5504,-3.5504,-3.5504,-3.5504,-3.5504,-3.5504,-3.5504,-3.5504,-3.5504,-3.5504,-3.5926,-3.6615,-3.663,-3.7526,-3.899,-3.9847,-4.0172,-4.0486,-4.3435,-4.4547,-4.4581,-3.1915,0.0,0.0,0.0,0.0,-3.1763,-3.228,-3.3369,0.0,0.0,-3.5732,0.0,0.0,-3.6272,-3.5575,0.0,0.0,-3.3217,-3.3526,-3.3255,0.0,0.0,0.0,-3.6356,0.0,0.0,-3.5168,-3.4435,-3.32,-3.1912,-3.0597,-2.9783,-2.918,-2.8772,-2.8187,-2.8173,0.0,0.0,0.0,0.0,0.0,-2.8483,-2.9157,0.0,-2.8289,-2.9265,-2.9505,-3.0133,0.0,-3.1346,-3.1511,-3.1511,-3.1511,-3.1117,-3.0807,-3.1351,-3.1286,-3.1116,0.0,0.0,-3.3138,-3.2686,0.0,0.0,0.0,0.0,0.0,0.0,0.0,0.0,0.0,0.0,0.0,0.0,0.0,0.0,0.0,0.0,0.0,0.0,0.0,0.0,0.0,0.0,0.0,0.0,0.0,0.0,-3.5507,-3.5504,-3.5699,-3.6148,-3.5729,-3.5714,-3.6148,-3.5729,-3.5504,-3.5504,-3.5504,-3.5504,-3.5504,-3.5504,-3.5504,-3.5504,-3.5504,-3.5636,-3.5926,-3.6384,-3.6904,-3.7565,-3.9277,-3.9981,-4.0274,-4.2858,-4.3496,-4.3218,-3.1728,0.0,0.0,0.0,0.0,0.0,0.0,0.0,0.0,0.0,-3.5926,0.0,-3.7036,0.0,-3.6124,0.0,-3.4172,-3.3601,-3.2924,-3.3056,0.0,-3.4559,-3.5346,0.0,0.0,0.0,0.0,0.0,-3.3229,-3.2029,-3.0601,-2.9783,-2.918,-2.8795,0.0,-2.8053,-2.8293,0.0,-2.9097,0.0,0.0,-2.8124,0.0,0.0,-2.8169,-2.8966,0.0,-2.9789,-3.0567,-3.0987,-3.1301,-3.1438,-3.1161,-3.0718,-3.0389,-3.0925,-3.0873,-3.0795,-3.1432,-3.2584,0.0,-3.3054,-3.4076,0.0,-3.4352,0.0,0.0,0.0,0.0,0.0,0.0,0.0,0.0,0.0,0.0,0.0,0.0,-3.7652,0.0,0.0,0.0,0.0,0.0,0.0,0.0,0.0,0.0,0.0,0.0,-3.5504,-3.5804,-3.6462,-3.5848,-3.5818,-3.6477,-3.5833,-3.5504,-3.5504,-3.5504,-3.5504,-3.5504,-3.5504,-3.5504,-3.5504,-3.5504,-3.5504,-3.5537,-3.6006,-3.6353,-3.68,-3.8731,-3.9296,-3.9402,-4.1957,-4.2594,-4.2332,-3.1424,-3.1205,0.0,0.0,-3.1261,0.0,0.0,0.0,-3.3814,0.0,-3.5218,-3.568,-3.5664,-3.6238,-3.6063,-3.4686,-3.4532,-3.4202,-3.3527,-3.2873,0.0,0.0,-3.4576,-3.5163,-3.6333,0.0,0.0,0.0,0.0,-3.1935,-3.1131,-2.9935,-2.9384,-2.9325,-2.8803,0.0,-2.769,-2.9007,-2.8813,-2.7645,-2.76,-2.7615,-2.7645,-2.76,-2.8438,-2.9532,-2.8876,-2.9445,-3.0507,-3.0537,-3.0957,-3.138,-3.0614,-3.0299,-3.0238,-3.0329,-3.1161,-3.2121,-3.2405,-3.3453,-3.4485,-3.4485,-3.4517,0.0,0.0,0.0,-3.5504,0.0,0.0,0.0,0.0,0.0,0.0,0.0,0.0,0.0,0.0,0.0,0.0,0.0,0.0,0.0,0.0,0.0,0.0,0.0,0.0,0.0,0.0,-3.5489,-3.5818,-3.6507,-3.5893,-3.5863,-3.6522,-3.5878,-3.5534,-3.5504,-3.5504,-3.5504,-3.5504,-3.5504,-3.5504,-3.5504,-3.5549,-3.5534,-3.5504,-3.5549,-3.5957,-3.6677,-3.8055,-3.821,-3.7979,-4.0848,-4.1933,-4.1997,-3.1382,-3.1253,-3.1308,0.0,-3.1454,-3.1438,0.0,0.0,0.0,0.0,-3.57,-3.6422,-3.6506,-3.6127,-3.537,-3.405,-3.3396,0.0,0.0,0.0,0.0,-3.382,-3.4333,-3.4971,-3.5805,-3.5486,0.0,-3.3618,0.0,0.0,-3.0518,-2.9761,-2.9157,-2.8701,0.0,0.0,-2.766,-2.8487,-2.8652,-2.8293,-2.7809,-2.7899,-2.8278,0.0,-2.8438,-2.9592,-2.9412,-2.9834,-3.0582,-3.1077,-3.1361,-3.1467,-3.1248,-3.0329,-2.9566,-3.0837,-3.0739,-3.05,-3.1857,-3.3173,-3.4132,-3.4132,-3.4687,-3.5295,0.0,0.0,0.0,0.0,0.0,0.0,0.0,0.0,0.0,0.0,0.0,0.0,0.0,0.0,0.0,-3.9665,0.0,0.0,0.0,0.0,0.0,0.0,0.0,0.0,0.0,0.0,-3.6013,-3.7135,-3.6567,-3.6537,-3.7165,-3.6552,-3.5983,-3.5504,-3.5504,-3.5504,-3.5504,-3.5504,-3.5504,-3.5534,-3.6028,-3.5953,-3.5549,-3.6028,-3.6054,-3.5872,-3.6736,-3.7537,-3.8345,-3.9763,-4.1035,-4.1997,-3.1855,0.0,0.0,-3.1388,0.0,0.0,-3.1448,-3.2468,0.0,-3.407,-3.4824,0.0,-3.5769,-3.5368,-3.4698,-3.3718,-3.2929,0.0,-3.154,0.0,0.0,-3.3556,-3.3962,-3.4616,-3.5577,-3.5278,0.0,-3.388,0.0,0.0,-3.1149,-3.0228,-2.9473,-2.8873,0.0,-2.786,-2.7615,-2.8004,-2.8323,-2.8547,-2.7869,-2.8004,0.0,-2.8173,-2.8858,-2.9983,-2.9983,-3.0208,-3.0567,-3.0956,-3.1256,-3.1438,-3.1087,-3.0329,-2.9766,-3.0703,-3.0834,-3.0898,-3.1836,-3.3029,-3.391,-3.3484,-3.3822,-3.4225,-3.4225,-3.4558,-3.4839,0.0,-3.518,-3.5651,0.0,0.0,0.0,0.0,0.0,0.0,0.0,0.0,0.0,0.0,-3.9584,0.0,0.0,0.0,0.0,0.0,0.0,0.0,0.0,0.0,-3.6088,-3.7375,-3.6522,-3.6492,-3.7404,-3.6507,-3.5863,-3.5504,-3.5504,-3.5504,-3.5504,-3.5504,-3.5669,-3.5938,-3.6028,-3.6013,-3.5938,-3.6028,-3.5833,-3.5594,-3.6522,-3.7689,-3.8912,-3.9393,-4.0124,-4.0876,0.0,0.0,0.0,0.0,0.0,0.0,0.0,-3.1839,0.0,-3.3469,0.0,-3.3814,-3.4324,-3.4294,-3.3979,-3.3305,0.0,-3.2108,-3.154,-3.1511,-3.2104,-3.3417,-3.3556,-3.4202,-3.543,-3.4834,-3.4438,0.0,0.0,0.0,-3.2121,-3.08,-2.9892,0.0,0.0,0.0,0.0,-2.76,-2.7944,-2.8412,-2.7839,-2.8004,-2.8607,-2.8607,-2.94,-3.0507,-3.038,-3.0483,-3.0642,-3.0642,-3.1017,-3.1395,-3.0776,-3.0462,-3.0343,-3.0521,-3.1358,-3.2173,-3.2108,-3.3029,-3.3774,-3.282,-3.2593,-3.2593,-3.2593,-3.3241,-3.3842,-3.3993,-3.4691,-3.5359,0.0,0.0,0.0,0.0,0.0,0.0,0.0,0.0,0.0,0.0,0.0,0.0,0.0,0.0,0.0,0.0,0.0,0.0,0.0,0.0,-3.6088,-3.7375,-3.6342,-3.6327,-3.7524,-3.6432,-3.5804,-3.5624,-3.5624,-3.5594,-3.5504,-3.5504,-3.5863,-3.6447,-3.5878,-3.6013,-3.6567,-3.5983,-3.5759,-3.5878,-3.706,-3.8257,-3.929,-3.9394,-3.9388,-3.9388,0.0,0.0,0.0,0.0,0.0,-3.2497,-3.3066,-3.3619,-3.4038,-3.4309,-3.4339,-3.4174,-3.3709,-3.3185,-3.2587,-3.1914,-3.1735,0.0,0.0,0.0,0.0,-3.2749,-3.3313,-3.3962,-3.4759,-3.46,-3.4201,0.0,0.0,-3.1989,-3.1357,-3.013,0.0,0.0,0.0,0.0,-2.76,-2.76,0.0,-2.7764,-2.7645,-2.8004,-2.8607,-2.8607,-2.94,-3.0408,-2.974,-3.0308,-3.1316,-3.1316,-3.1406,-3.1571,-3.1976,-3.1292,-3.0535,-3.1767,-3.2156,-3.2173,-3.2108,-3.3029,-3.3774,-3.282,-3.2593,-3.2593,-3.2593,-3.2749,-3.3066,-3.3842,-3.4129,-3.4509,-3.5359,0.0,0.0,0.0,0.0,0.0,0.0,0.0,0.0,0.0,0.0,-3.8218,0.0,0.0,0.0,0.0,0.0,0.0,0.0,0.0,-3.6088,0.0,-3.7195,-3.7449,0.0,0.0,-3.736,-3.6312,-3.6312,-3.6028,-3.5504,-3.5504,-3.5863,-3.6477,-3.6372,-3.6671,-3.724,-3.712,-3.7075,-3.715,-3.7913,-3.8362,-3.8631,-3.9215,-3.9388,-3.9388,0.0,0.0,0.0,0.0,0.0,0.0,0.0,-3.4577,-3.4876,-3.4563,-3.3888,-3.3469,-3.3499,-3.2901,-3.2363,-3.2049,-3.1705,-3.1511,-3.1511,-3.1511,-3.1824,-3.2559,-3.2922,-3.3556,-3.4576,-3.4203,-3.3979,-3.3964,0.0,-3.1663,-3.127,-3.0005,0.0,0.0,0.0,-2.76,0.0,0.0,0.0,-2.76,-2.76,-2.8214,-2.9074,-2.8613,-2.952,-3.086,-2.9598,-3.0173,-3.1438,-3.1029,-3.1161,-3.157,-3.1869,-3.1501,-3.1058,-3.1781,-3.2056,-3.2044,-3.1476,-3.1923,-3.2321,-3.1378,-3.1169,-3.1169,-3.1169,-3.1513,-3.1997,-3.2464,-3.331,-3.4312,-3.5311,-3.5504,0.0,0.0,0.0,0.0,0.0,0.0,0.0,0.0,0.0,0.0,0.0,0.0,0.0,0.0,0.0,-3.5769,-3.5075,0.0,-3.5938,0.0,0.0,0.0,-3.7883,0.0,-3.7419,-3.6492,-3.6806,-3.6447,-3.5534,-3.6193,-3.6492,-3.6507,-3.6821,-3.7135,-3.7404,-3.7404,-3.7599,-3.7943,-3.8257,-3.8601,-3.896,-3.929,-3.9388,-3.9388,0.0,-3.3062,0.0,0.0,-3.326,-3.3873,-3.4429,-3.5055,-3.531,-3.4788,-3.3544,-3.2916,-3.344,-3.2781,-3.2273,-3.2273,-3.194,-3.1739,-3.1739,-3.1739,-3.1979,-3.2559,-3.2586,-3.3093,-3.4161,-3.3598,-3.3479,0.0,0.0,0.0,-3.0948,-2.9775,0.0,0.0,0.0,0.0,0.0,0.0,-2.76,-2.76,-2.76,-2.8319,-2.9331,-2.8775,-2.9692,-3.1113,-2.9771,-3.0103,-3.1161,-3.0524,-3.0925,-3.1735,-3.1869,-3.1797,-3.1634,-3.1634,-3.1822,-3.173,-3.0671,-3.0748,-3.097,-3.0037,-2.9792,-2.9792,-2.9792,-3.0381,-3.097,-3.118,-3.2522,-3.3993,-3.4986,-3.518,0.0,0.0,0.0,0.0,0.0,0.0,0.0,0.0,0.0,0.0,-3.6569,0.0,0.0,0.0,0.0,-3.6102,-3.5537,-3.5504,-3.5804,0.0,0.0,-3.6791,-3.7404,0.0,-3.7105,-3.6492,-3.7105,-3.6821,-3.5744,-3.6881,-3.7225,-3.6911,-3.727,-3.7479,-3.7629,-3.7778,-3.8138,-3.8601,-3.8601,-3.8945,-3.9388,-3.9388,-3.9388,-3.9388,0.0,0.0,0.0,0.0,0.0,-3.4444,-3.4503,-3.5055,-3.5489,-3.5415,-3.4233,-3.3425,-3.3484,-3.2348,-3.1585,-3.1585,-3.215,-3.2492,-3.2492,-3.2492,-3.2547,-3.2586,-3.2586,-3.2668,-3.2788,-3.2673,-3.2336,0.0,0.0,-3.0172,0.0,-2.8904,0.0,0.0,0.0,0.0,0.0,-2.76,-2.76,-2.76,-2.76,-2.8049,-2.8757,-2.9274,-2.9943,-3.0559,-3.0277,-3.0269,-3.0389,-3.0329,-3.1232,-3.2497,-3.3125,-3.2737,-3.2078,-3.211,-3.1905,-3.133,-2.9899,-3.0332,-3.097,-3.0037,-2.9792,-2.9792,-2.9792,-2.9869,-3.0177,-3.1007,-3.2033,-3.3031,-3.3959,-3.4129,-3.4428,0.0,0.0,0.0,0.0,0.0,0.0,0.0,0.0,0.0,0.0,-3.6006,0.0,0.0,-3.5619,-3.5554,-3.5504,-3.5504,-3.5804,-3.6462,-3.6492,-3.6791,-3.7404,-3.7404,-3.7105,-3.6492,-3.7105,-3.7045,-3.6417,-3.7105,-3.7704,-3.8182,-3.7644,-3.7749,-3.8347,-3.8975,-3.9275,-3.9334,-3.9334,-3.9328,-3.9388,-3.9388,-3.9388,-3.9388,0.0,0.0,0.0,0.0,0.0,0.0,0.0,-3.4981,-3.4891,-3.4891,-3.4068,-3.335,-3.2946,-3.2049,-3.1697,-3.212,-3.1982,-3.2266,-3.314,-3.2367,-3.211,-3.2571,-3.2176,-3.2148,-3.2586,-3.2576,-3.2209,0.0,0.0,0.0,0.0,0.0,0.0,0.0,0.0,-2.76,-2.76,-2.76,-2.76,-2.76,-2.76,-2.8004,-2.8614,-2.8765,-2.9509,-3.0342,-2.9142,-2.9721,-3.0866,-2.9858,-3.0145,-3.1123,-3.2464,-3.2106,-3.1298,-3.1947,-3.1463,-3.065,-3.0032,-3.0123,-3.0279,-2.9895,-2.9792,-2.9792,-2.9792,-2.9792,-2.9895,-3.0279,-3.1119,-3.2069,-3.2996,-3.3636,-3.4129,-3.4543,0.0,0.0,0.0,0.0,0.0,0.0,0.0,0.0,0.0,0.0,0.0,0.0,0.0,-3.5504,-3.5504,-3.5504,-3.5624,-3.5893,0.0,-3.6611,-3.6851,-3.7225,-3.7105,-3.6492,-3.7509,-3.7464,-3.6537,-3.7958,-3.8766,-3.8975,-3.8287,-3.8377,-3.9035,-3.9305,-3.9388,-3.9388,-3.9388,-3.9388,-3.9388,-3.9388,-3.9388,-3.9388,-3.4863,0.0,-3.4578,0.0,-3.4771,-3.4876,-3.516,-3.4786,-3.4369,-3.3948,-3.3499,-3.3036,-3.2557,-3.1899,-3.1796,-3.2547,-3.2053,-3.2252,-3.3498,-3.2596,-3.219,-3.2556,-3.2081,0.0,-3.2272,-3.2272,-3.1824,-3.0923,-3.05,0.0,0.0,0.0,0.0,0.0,-2.76,-2.76,-2.76,-2.76,-2.76,-2.76,-2.76,-2.7884,-2.833,-2.8609,-2.9335,-3.0076,-2.89,-2.9473,-3.0584,-2.9411,-2.9125,-2.9665,-3.1743,-3.1639,-3.0883,-3.1433,-3.0891,-3.0047,-2.9878,-2.9807,-2.9792,-2.9792,-2.9792,-2.9792,-2.9792,-2.9792,-2.9792,-2.9792,-3.0317,-3.1082,-3.2033,-3.2749,-3.3345,-3.391,0.0,0.0,0.0,-3.5504,0.0,0.0,-3.5504,-3.5504,-3.5504,-3.5504,0.0,0.0,0.0,0.0,-3.5504,-3.5504,0.0,0.0,0.0,0.0,-3.6492,-3.6926,-3.6911,-3.6492,-3.7584,-3.7629,-3.6821,-3.8601,-3.9388,-3.9358,-3.8901,-3.8975,-3.9388,-3.9388,-3.9388,-3.9388,-3.9388,-3.9388,-3.9388,-3.9388,-3.9388,-3.9388,-3.5355,-3.4936,-3.4728,-3.537,-3.5489,-3.5265,-3.4623,-3.4518,-3.4008,-3.2706,-3.2527,-3.2497,-3.2512,-3.1899,-3.1796,-3.2547,-3.2514,-3.278,-3.3468,-3.3475,-3.3191,0.0,0.0,-3.2244,-3.1524,-3.1496,-3.0896,-2.9633,0.0,0.0,-2.7625,0.0,-2.76,-2.76,-2.76,-2.76,-2.76,-2.76,-2.76,-2.76,-2.76,-2.76,-2.7764,-2.9071,-2.9579,-2.9677,-3.0104,-2.9721,-2.9034,-2.9002,-2.859,-2.8602,-3.1264,-3.1681,-3.1085,-3.058,-3.0132,-2.9654,-2.9076,-2.9352,-2.9792,-2.9792,-2.9792,-2.9792,-2.9792,-2.9792,-2.9792,-2.9792,-2.9792,-3.0101,-3.1044,-3.1217,-3.1852,-3.3705,0.0,0.0,0.0,0.0,0.0,-3.5504,-3.5504,-3.5504,-3.5504,-3.5504,0.0,0.0,0.0,0.0,0.0,0.0,0.0,-3.5504,-3.6148,0.0,-3.6492,-3.6492,-3.6492,-3.6492,-3.712,-3.7404,-3.7434,-3.8811,-3.9388,-3.9388,-3.9373,-3.9373,-3.9388,-3.9388,-3.9388,-3.9388,-3.9388,-3.9388,-3.9388,-3.9388,-3.9388,-3.9388,-3.5459,-3.5325,-3.525,-3.5474,-3.5504,-3.5429,-3.5205,-3.4397,-3.3664,-3.3245,-3.2378,-3.1809,-3.1809,-3.163,-3.1964,0.0,-3.2797,-3.2975,0.0,-3.3746,-3.3191,-3.2524,-3.2562,-3.2244,-3.1511,-3.1511,-3.0896,-2.9606,0.0,0.0,0.0,-2.8079,-2.8263,-2.8263,-2.8263,-2.8263,-2.8263,-2.8263,-2.8034,-2.7645,-2.8109,-2.8019,-2.775,-2.9097,-2.9606,-2.9662,-3.0119,-3.0464,-3.0672,-3.0544,-3.0187,-3.0027,-3.1349,-3.1066,-3.0278,-3.0351,-3.0107,-2.9754,-2.9566,-2.9654,-2.9792,-2.9792,-2.9792,-2.9792,-2.9792,-2.9792,-2.9792,-2.9792,-2.9792,-2.9895,-3.0177,-3.0758,-3.1609,-3.2855,-3.3602,0.0,-3.5359,0.0,-3.4461,-3.4461,-3.4461,-3.4461,-3.4461,-3.51,0.0,0.0,0.0,0.0,0.0,0.0,0.0,0.0,-3.6791,0.0,-3.712,-3.712,-3.712,-3.712,-3.7764,-3.8317,-3.8796,-3.923,-3.9388,-3.9388,-3.9388,-3.9388,-3.9388,-3.9388,-3.9388,-3.9388,-3.9388,-3.9388,-3.9388,-3.9388,-3.9388,-3.9388,-3.5504,-3.5504,-3.5429,-3.516,-3.5115,-3.504,-3.4786,-3.4038,-3.341,-3.3155,-3.2392,-3.178,-3.1525,-3.1511,0.0,-3.3495,-3.2933,-3.3072,-3.4423,-3.4102,-3.3451,-3.2533,-3.2809,-3.2516,-3.1524,-3.1511,0.0,-2.9606,-2.9097,-2.8558,-2.7989,-2.8397,-2.8607,-2.8607,-2.8607,-2.8607,-2.8577,-2.8323,-2.8113,-2.8004,-2.8169,-2.7974,-2.775,-2.9097,-2.9606,-2.9662,-3.0119,-3.0614,-3.1028,-3.0805,-3.0484,-3.022,-3.0669,-3.0583,-3.0317,-3.0195,-2.9986,-2.9792,-2.9792,-2.9792,-2.9792,-2.9792,-2.9792,-2.9792,-2.9792,-2.9792,-2.9792,-2.9792,-2.9792,-2.9792,-2.9792,-3.0279,-3.0983,-3.1924,-3.2558,-3.3276,-3.4259,0.0,-3.3449,0.0,0.0,0.0,0.0,-3.4576,-3.51,0.0,0.0,0.0,0.0,0.0,-3.6492,-3.6492,-3.733,-3.7778,-3.7778,-3.7539,-3.7539,-3.7778,-3.8197,-3.8751,-3.9388,-3.9388,-3.9388,-3.9388,-3.9388,-3.9388,-3.9388,-3.9388,-3.9388,-3.9388,-3.9388,-3.9388,-3.9388,-3.9388,-3.9388,-3.9388,-3.5504,-3.5504,-3.5295,-3.4698,-3.4578,-3.4369,-3.3724,-3.3559,-3.3275,-3.2662,-3.2497,-3.2213,-3.1657,-3.1582,-3.2145,-3.3556,0.0,0.0,-3.4423,-3.4539,-3.3972,-3.2558,-3.3205,-3.2944,-3.1524,-3.1511,-3.0883,-2.9666,-2.8378,-2.8064,-2.8667,-2.8712,-2.8727,-2.8727,-2.8682,-2.8667,-2.8622,-2.7959,-2.8034,-2.8547,-2.7929,-2.766,-2.7809,-2.9112,-2.9606,-2.9662,-3.0192,-3.0389,-3.0355,-3.0207,-2.9874,-2.9552,-2.9701,-3.036,-3.0889,-2.9999,-2.9793,-2.9895,-2.983,-2.9792,-2.9792,-2.9792,-2.9792,-2.9792,-2.9792,-2.9792,-2.9792,-2.9792,-2.9792,-2.9792,-2.9792,-2.9792,-3.0101,-3.1044,-3.1217,-3.1523,-3.2409,-3.2508,-3.2473,0.0,0.0,0.0,-3.3705,-3.391,-3.4394,0.0,0.0,0.0,0.0,0.0,-3.6492,-3.6492,-3.7734,-3.8392,-3.8392,-3.7838,-3.7853,-3.8467,-3.8467,-3.8796,-3.9388,-3.9388,-3.9388,-3.9388,-3.9388,-3.9388,-3.9388,-3.9388,-3.9388,-3.9388,-3.9388,-3.9388,-3.9388,-3.9388,-3.9388,-3.9388,0.0,0.0,-3.5444,-3.5295,-3.5265,-3.5205,-3.5055,-3.4158,-3.344,-3.3275,-3.2363,-3.1891,-3.2287,-3.2327,-3.2879,-3.4235,-3.3742,-3.3665,-3.4457,-3.503,-3.4482,-3.259,-3.3205,-3.2944,-3.1524,-3.1511,-3.1092,-3.0283,-2.9517,-2.9217,-2.9355,-2.9834,-3.0058,-3.0028,-2.9564,-2.934,-2.9337,-2.8637,-2.8442,-2.8592,-2.8427,-2.8353,-2.8442,-2.9292,-2.9606,-2.9744,-3.0817,-3.1219,-3.1294,-3.1735,-3.1368,-3.0876,-3.19,-3.1151,-2.9738,-2.9251,-2.9959,-3.0733,-2.9998,-2.9792,-2.9792,-2.9792,-2.9792,-2.9792,-2.9792,-2.9792,-2.9792,-2.9792,-2.9792,-2.9792,-2.9792,-2.9792,-3.0101,-3.1044,-3.1217,-3.1376,-3.1902,-3.1748,-3.1376,0.0,-3.1282,-3.1609,-3.1852,-3.3171,-3.4095,0.0,0.0,-3.5504,-3.5504,-3.6133,-3.6492,-3.6492,-3.7734,-3.8392,-3.8392,-3.8751,-3.902,-3.917,-3.917,-3.926,-3.9388,-3.9388,-3.9388,-3.9388,-3.9388,-3.9388,-3.9388,-3.9388,-3.9388,-3.9388,-3.9388,-3.9388,-3.9388,-3.9388,-3.9388,-3.9388,-3.5504,-3.5504,-3.54,-3.51,-3.504,-3.504,-3.504,-3.4412,-3.3844,-3.3529,-3.2871,-3.2475,-3.2582,-3.2586,-3.3145,-3.4479,-3.426,-3.4331,-3.4964,-3.538,-3.4815,-3.3079,-3.339,-3.2944,-3.1524,-3.1511,-3.1167,-3.0507,-2.9579,-2.943,-3.0013,-3.0342,-3.0507,-3.0492,-3.0163,-2.9998,-2.9968,-2.9325,-2.9056,-2.9056,-2.9056,-2.8861,-2.8697,-2.9639,-2.9998,-3.0133,-3.1137,-3.1511,-3.16,-3.2258,-3.1895,-3.1283,-3.2306,-3.1923,-3.0883,-2.9822,-2.9801,-3.0109,-2.9858,-2.9792,-2.9792,-2.9792,-2.9792,-2.9792,-2.9792,-2.9792,-2.9792,-2.9792,-2.9792,-2.9792,-2.9792,-2.9792,-2.9972,-3.0482,-3.0558,-3.0629,-3.0844,-3.0712,-3.0441,-3.0157,-3.0377,-3.0733,-3.118,-3.25,-3.3518,-3.3993,-3.4953,0.0,-3.5504,-3.5848,-3.6178,-3.6477,-3.7734,-3.8392,-3.8392,-3.9065,-3.926,-3.896,-3.9275,-3.9388,-3.9388,-3.9388,-3.9388,-3.9388,-3.9388,-3.9388,-3.9388,-3.9388,-3.9388,-3.9388,-3.9388,-3.9388,-3.9388,-3.9388,-3.9388,-3.9388,-3.5504,-3.5504,-3.5325,-3.4741,-3.4668,-3.4668,-3.4668,-3.4578,-3.4279,-3.3589,-3.3486,-3.3317,-3.2808,-3.2841,-3.3465,-3.4813,-3.4925,-3.5171,-3.5746,-3.5667,-3.5055,-3.3819,-3.3672,-3.2944,-3.1524,-3.1511,-3.1212,-3.0657,-2.9579,-2.9594,-3.0657,-3.0657,-3.0657,-3.0657,-3.0552,-3.0507,-3.0462,-2.9849,-2.9666,-2.9741,-2.9651,-2.931,-2.8996,-3.0088,-3.0507,-3.0597,-3.1256,-3.1511,-3.1585,-3.2153,-3.1809,-3.1269,-3.1936,-3.245,-3.2497,-3.0885,-2.99,-2.9401,-2.9705,-2.9792,-2.9792,-2.9792,-2.9792,-2.9792,-2.9792,-2.9792,-2.9792,-2.9792,-2.9792,-2.9792,-2.9792,-2.9792,-2.9792,-2.9792,-2.9792,-2.9767,-2.9679,0.0,-2.9767,-2.9666,-2.9741,-3.0177,-3.1106,-3.2069,-3.2953,-3.3833,-3.4898,-3.5484,-3.5395,-3.5541,-3.5908,-3.6477,-3.7629,-3.8347,-3.8542,-3.9125,-3.9125,-3.8556,-3.914,-3.9388,-3.9388,-3.9388,-3.9388,-3.9388,-3.9388,-3.9388,-3.9388,-3.9388,-3.9388,-3.9388,-3.9388,-3.9388,-3.9388,-3.9388,-3.9388,-3.9388,-3.5504,-3.5504,-3.5474,-3.537,-3.534,-3.534,-3.534,-3.4846,-3.4279,-3.3589,-3.3512,-3.3491,-3.3445,-3.3962,-3.488,-3.6333,-3.6453,-3.6494,-3.6603,-3.5994,-3.5288,-3.4567,-3.3928,-3.2944,-3.1524,-3.1511,-3.1451,-3.1346,-3.1152,-3.1152,-3.1346,-3.1346,-3.1346,-3.1316,-3.0761,-3.0507,-3.0462,-2.9849,-2.9879,-3.0313,-2.9816,-2.9834,-3.0238,-3.0432,-3.0507,-3.0597,-3.1256,-3.1511,-3.1525,-3.163,-3.1558,-3.1545,-3.2228,-3.1995,-3.1475,-3.1392,-3.1348,-3.111,-3.0101,-2.9792,-2.9792,-2.9792,-2.9792,-2.9792,-2.9792,-2.9792,-2.9792,-2.9792,-2.9792,-2.9792,-2.9792,-2.9792,-2.9792,-2.9792,-2.9792,-2.9616,-2.9126,0.0,-2.9616,-2.9076,-2.9503,-3.0177,-3.1106,-3.2069,-3.285,-3.3434,-3.4748,-3.5352,-3.5021,-3.5862,-3.6372,-3.6492,-3.718,-3.8108,-3.9245,-3.9364,-3.9364,-3.926,-3.9328,-3.9388,-3.9388,-3.9388,-3.9388,-3.9388,-3.9388,-3.9388,-3.9388,-3.9388,-3.9388,-3.9388,-3.9388,-3.9388,-3.9388,-3.9388,-3.9388,-3.9388,-3.5504,-3.5504,-3.5504,-3.5504,-3.5504,-3.5636,-3.6023,-3.5843,-3.5385,-3.4714,-3.5023,-3.4987,-3.4217,-3.4756,-3.5642,-3.6715,-3.6795,-3.7151,-3.7946,-3.7263,-3.6348,-3.5303,-3.4568,-3.3363,-3.1539,-3.1137,-3.1137,-3.1511,-3.1137,-3.1137,-3.1511,-3.1511,-3.1511,-3.1496,-3.1182,-3.1032,-3.1017,-3.0746,-3.0582,-3.0507,-3.0597,-3.0582,-3.0552,-3.0883,-3.1032,-3.1077,-3.1391,-3.1511,-3.1511,-3.1511,-3.1511,-3.1555,-3.1854,-3.2168,-3.2301,-3.1563,-3.1019,-3.0692,-3.0593,-3.0177,-2.9792,-2.9792,-2.9792,-2.9792,-2.9792,-2.9792,-2.9792,-2.9792,-2.9792,-2.9792,-2.9792,-2.9792,-2.9892,-3.0181,-2.9993,-2.9804,-2.979,-2.9817,-2.9691,-2.9428,-3.0394,-3.1239,-3.1706,-3.3358,-3.4533,-3.478,-3.5571,-3.6097,-3.6246,-3.6406,-3.6791,-3.7494,-3.7778,-3.8586,-3.9933,-3.9948,-4.0127,-4.0472,-4.0113,-3.9948,-3.9933,-3.9574,-3.9388,-3.9388,-3.9388,-3.9388,-3.9388,-3.9388,-3.9388,-3.9388,-3.9388,-3.9388,-3.9388,-3.9388,-3.9388,-3.9388,-3.5504,-3.5504,-3.5504,-3.5504,-3.5504,-3.5765,-3.6492,-3.6615,-3.6428,-3.5937,-3.6549,-3.6529,-3.5245,-3.5628,-3.6326,-3.7222,-3.7168,-3.7669,-3.9165,-3.8565,-3.7506,-3.6009,-3.4836,-3.3373,-3.1539,-3.0987,-3.0972,-3.1511,-3.0972,-3.0987,-3.1511,-3.1511,-3.1511,-3.1511,-3.1511,-3.1511,-3.1511,-3.1511,-3.1197,-3.0791,-3.1286,-3.1182,-3.0806,-3.1301,-3.1511,-3.1511,-3.1511,-3.1511,-3.1511,-3.1511,-3.1511,-3.1525,-3.169,-3.2452,-3.3032,-3.1898,-3.1054,-3.0608,-3.1328,-3.0833,-3.0139,-3.0139,-2.9972,-2.9792,-2.9792,-2.9892,-2.998,-2.998,-3.008,-3.0168,-3.0168,-3.0068,-3.0118,-3.0545,0.0,-2.9942,-3.0369,-3.0055,-2.9958,-3.033,-3.1459,-3.2421,-3.3033,-3.4854,-3.5971,-3.5985,-3.6414,-3.6794,-3.705,-3.6988,-3.7524,-3.8811,-3.8856,-3.9349,-4.0382,-4.0546,-4.0876,-4.1407,-4.0711,-4.0397,-4.0382,-3.9723,-3.9388,-3.9388,-3.9388,-3.9388,-3.9388,-3.9388,-3.9388,-3.9388,-3.9388,-3.9388,-3.9388,-3.9388,-3.9388,-3.9388,-3.5504,-3.5504,-3.5504,-3.5504,-3.5504,-3.5765,-3.6492,-3.6615,-3.6624,-3.6701,-3.7286,-3.7436,-3.6708,-3.6683,-3.7307,-3.87,-3.821,-3.8447,-3.9926,-3.9326,-3.8262,-3.6786,-3.4181,-3.2345,-3.1511,-3.1451,-3.1451,-3.1511,-3.1451,-3.1451,-3.1511,-3.1511,-3.1511,-3.1511,-3.1511,-3.1511,-3.1511,-3.1511,-3.1466,-3.1436,-3.1481,-3.1466,-3.1436,-3.1481,-3.1511,-3.1511,-3.1511,-3.1511,-3.1511,-3.1511,-3.1511,-3.1615,-3.2213,-3.2482,-3.2615,-3.2901,-3.2686,-3.2429,-3.25,-3.1815,-3.1106,-3.1106,-3.0457,-2.9792,-2.9792,-3.0181,-3.0557,-3.0557,-3.0934,-3.1273,-3.1273,-3.0884,-3.057,-3.0608,0.0,0.0,-2.9842,-2.9817,-3.0342,-3.1857,-3.214,-3.3135,-3.5482,-3.587,-3.5985,-3.5906,-3.6777,-3.6966,-3.6064,-3.7423,-3.8856,-4.0217,-4.0247,-4.0307,-4.0397,-4.101,-4.1324,-4.1407,-4.0711,-4.0397,-4.0382,-3.9723,-3.9388,-3.9388,-3.9388,-3.9388,-3.9388,-3.9388,-3.9388,-3.9388,-3.9388,-3.9388,-3.9388,-3.9388,-3.9388,-3.9388,-3.5504,-3.5504,-3.5636,-3.6117,-3.5814,-3.607,-3.7774,-3.7629,-3.752,-3.804,-3.8768,-3.8779,-3.756,-3.7869,-3.8379,-3.8937,-3.8734,-3.9005,-4.0028,-3.9419,-3.8329,-3.6868,-3.4516,-3.311,-3.287,-3.1979,-3.1511,-3.1511,-3.1511,-3.1511,-3.1511,-3.1511,-3.1511,-3.1511,-3.1511,-3.1511,-3.1511,-3.1511,-3.1511,-3.154,-3.1944,-3.2108,-3.2153,-3.2572,-3.2467,-3.2108,-3.2108,-3.1854,-3.1511,-3.1511,-3.1511,-3.1615,-3.2273,-3.2796,-3.3319,-3.428,-3.4189,-3.3885,-3.4307,-3.2834,-3.1217,-3.1217,-3.0482,-3.0061,-3.1061,-3.1448,-3.1901,-3.2873,-3.3229,-3.3376,-3.3376,-3.2685,-3.2097,-3.2097,0.0,-3.0419,-3.0746,-3.1099,-3.1641,-3.2591,-3.4166,-3.5549,-3.654,-3.7528,-3.8117,-3.806,-3.8031,-3.8022,-3.8066,-3.8671,-3.9454,-4.0367,-4.0397,-4.0591,-4.101,-4.0846,-4.098,-4.1407,-4.0711,-4.0397,-4.0382,-3.9723,-3.9388,-3.9388,-3.9388,-3.9388,-3.9388,-3.9388,-3.9388,-3.9388,-3.9388,-3.9388,-3.9388,-3.9388,-3.9388,-3.9388,-3.5504,-3.5504,-3.5668,-3.6165,-3.6023,-3.6477,-3.8274,-3.833,-3.8332,-3.8868,-3.9605,-3.9615,-3.8334,-3.8681,-3.9089,-3.9326,-3.9123,-3.9292,-4.0045,-3.9419,-3.8329,-3.6868,-3.4959,-3.3868,-3.3702,-3.2256,-3.1511,-3.1511,-3.1511,-3.1511,-3.1511,-3.1511,-3.1511,-3.1511,-3.172,-3.1809,-3.1824,-3.2034,-3.2123,-3.2153,-3.2647,-3.2826,-3.2871,-3.332,-3.3215,-3.2826,-3.2826,-3.2527,-3.2123,-3.2123,-3.2123,-3.2243,-3.2916,-3.3589,-3.4262,-3.4981,-3.4996,-3.4906,-3.5385,-3.3837,-3.1997,-3.1706,-3.1039,-3.0791,-3.196,-3.247,-3.3098,-3.4537,-3.4986,-3.5111,-3.5111,-3.4089,-3.3238,-3.3238,-3.1755,-3.0796,-3.1323,-3.1876,-3.2585,-3.3615,-3.5662,-3.72,-3.7711,-3.8765,-3.9334,-3.911,-3.8856,-3.8916,-3.9394,-3.9388,-3.9723,-4.0382,-4.0202,-4.0412,-4.107,-4.0831,-4.0935,-4.1407,-4.0711,-4.0397,-4.0382,-3.9723,-3.9388,-3.9388,-3.9388,-3.9388,-3.9388,-3.9388,-3.9388,-3.9388,-3.9388,-3.9388,-3.9388,-3.9388,-3.9388,-3.9388,-3.5504,-3.5504,-3.5504,-3.5504,-3.6117,-3.6889,-3.769,-3.8414,-3.8917,-3.9015,-3.9656,-3.9825,-3.9089,-3.9005,-3.9292,-4.0045,-3.9411,-3.9309,-4.0045,-3.9394,-3.8346,-3.6885,-3.5445,-3.4387,-3.3718,-3.2272,-3.1511,-3.1511,-3.1511,-3.1511,-3.1511,-3.1511,-3.1511,-3.1525,-3.2183,-3.2512,-3.2557,-3.3215,-3.3499,-3.3484,-3.3499,-3.3499,-3.3499,-3.3499,-3.3499,-3.3499,-3.3499,-3.3499,-3.3499,-3.3499,-3.3499,-3.3604,-3.4294,-3.4951,-3.537,-3.4713,-3.4966,-3.5504,-3.5504,-3.4758,-3.3774,-3.2855,-3.2297,-3.2051,-3.2205,-3.3066,-3.41,-3.5187,-3.5836,-3.6223,-3.6223,-3.4887,-3.3833,-3.3833,-3.2039,-3.0809,-3.1364,-3.1876,-3.3013,-3.5165,-3.6358,-3.766,-3.9241,-3.9388,-3.9125,-3.8452,-3.9035,-3.9388,-3.9388,-3.9388,-3.9723,-4.0382,-3.9768,-3.9738,-4.0397,-4.1055,-4.1369,-4.1392,-4.0711,-4.0382,-4.0367,-3.9709,-3.9388,-3.9388,-3.9388,-3.9388,-3.9388,-3.9388,-3.9388,-3.9388,-3.9388,-3.9388,-3.9388,-3.9388,-3.9388,-3.9388,-3.5504,-3.5504,-3.5668,-3.6165,-3.6038,-3.6446,-3.8302,-3.8302,-3.8515,-3.964,-3.996,-4.0028,-3.9808,-3.9267,-3.9256,-4.0028,-3.9384,-3.9256,-4.0054,-3.9384,-3.8725,-3.8292,-3.6422,-3.5106,-3.4408,-3.294,-3.1974,-3.1511,-3.1511,-3.1511,-3.1511,-3.1511,-3.1511,-3.1525,-3.2183,-3.2228,-3.1869,-3.3021,-3.323,-3.2886,-3.3814,-3.4219,-3.4233,-3.4711,-3.4607,-3.4219,-3.4219,-3.3888,-3.3499,-3.3499,-3.3499,-3.3604,-3.4294,-3.4951,-3.5459,-3.525,-3.534,-3.5504,-3.5504,-3.5279,-3.4942,-3.4401,-3.3692,-3.3541,-3.5171,-3.546,-3.5739,-3.723,-3.7258,-3.7032,-3.7032,-3.6442,-3.577,-3.5423,-3.3929,-3.3172,-3.4083,-3.4351,-3.5107,-3.6859,-3.8017,-3.8882,-3.9358,-3.9388,-3.9298,-3.9125,-3.9305,-3.9388,-3.9388,-3.9388,-3.9933,-4.1055,-4.0008,-3.9963,-4.107,-4.0367,-4.0008,-4.0008,-3.9798,-3.9709,-3.9709,-3.9514,-3.9388,-3.9388,-3.9388,-3.9388,-3.9388,-3.9388,-3.9388,-3.9388,-3.9388,-3.9388,-3.9388,-3.9388,-3.9388,-3.9388,-3.5504,-3.5504,-3.5718,-3.6477,-3.6228,-3.6523,-3.8218,-3.8092,-3.8137,-3.9054,-3.9426,-3.9519,-3.9209,-3.9296,-3.9437,-3.961,-3.9463,-3.9584,-4.007,-3.9342,-3.8772,-3.8469,-3.6917,-3.5637,-3.4705,-3.3243,-3.2288,-3.1899,-3.1899,-3.2019,-3.2273,-3.2273,-3.2138,-3.1929,-3.2886,-3.2916,-3.2392,-3.3724,-3.4068,-3.3769,-3.4562,-3.4891,-3.4936,-3.5355,-3.525,-3.4891,-3.4891,-3.4637,-3.4292,-3.4292,-3.4292,-3.4352,-3.4756,-3.5175,-3.5504,-3.5504,-3.5504,-3.5504,-3.5504,-3.5504,-3.5508,-3.5565,-3.4837,-3.4489,-3.5885,-3.6101,-3.6365,-3.7724,-3.7883,-3.7808,-3.7808,-3.7455,-3.7109,-3.6771,-3.5436,-3.4748,-3.562,-3.5878,-3.6472,-3.7643,-3.8745,-3.9388,-3.9388,-3.9388,-3.9388,-3.9388,-3.9388,-3.9529,-3.9798,-3.9813,-4.0292,-4.1392,-4.0606,-4.0576,-4.1407,-4.0337,-3.9679,-3.9388,-3.9694,-3.9679,-3.9388,-3.9388,-3.9388,-3.9388,-3.9388,-3.9388,-3.9388,-3.9388,-3.9388,-3.9388,-3.9388,-3.9388,-3.9388,-3.9388,-3.9388,-3.9388,-3.5504,-3.5554,-3.5782,-3.6384,-3.6554,-3.6843,-3.7573,-3.769,-3.7725,-3.7795,-3.8362,-3.858,-3.7965,-3.908,-3.9636,-3.9059,-3.9662,-4.007,-3.9995,-3.9236,-3.8497,-3.7835,-3.698,-3.5966,-3.4814,-3.3379,-3.2662,-3.2602,-3.2602,-3.2901,-3.3499,-3.3499,-3.317,-3.2662,-3.3918,-3.4144,-3.3589,-3.4936,-3.5474,-3.5415,-3.5489,-3.5504,-3.5504,-3.5504,-3.5504,-3.5504,-3.5504,-3.5504,-3.5504,-3.5504,-3.5504,-3.5504,-3.5504,-3.5504,-3.5504,-3.5504,-3.5504,-3.5504,-3.5504,-3.5504,-3.5654,-3.6252,-3.5668,-3.4984,-3.5175,-3.5588,-3.6206,-3.7143,-3.7808,-3.8227,-3.8227,-3.7996,-3.7855,-3.7855,-3.6603,-3.5798,-3.6403,-3.6807,-3.7306,-3.7884,-3.8819,-3.9388,-3.9388,-3.9388,-3.9403,-3.9463,-3.9514,-3.9798,-4.0442,-4.0487,-4.0786,-4.1482,-4.1414,-4.1452,-4.1512,-4.0816,-4.0157,-3.9514,-4.0053,-3.9993,-3.9388,-3.9388,-3.9388,-3.9388,-3.9388,-3.9388,-3.9388,-3.9388,-3.9388,-3.9388,-3.9388,-3.9388,-3.9388,-3.9388,-3.9388,-3.9388,-3.5504,-3.5975,-3.6228,-3.5814,-3.6228,-3.6661,-3.6813,-3.6843,-3.7097,-3.7712,-3.7939,-3.8197,-3.8613,-3.8443,-3.8707,-3.9756,-3.9995,-3.9833,-3.9193,-3.8458,-3.7978,-3.7822,-3.6477,-3.5626,-3.5406,-3.4516,-3.3799,-3.3275,-3.3275,-3.3365,-3.3499,-3.3499,-3.3425,-3.332,-3.4159,-3.4144,-3.3589,-3.4936,-3.519,-3.4741,-3.5295,-3.5504,-3.5504,-3.5504,-3.5504,-3.5504,-3.5504,-3.5504,-3.5504,-3.5504,-3.5504,-3.5504,-3.5504,-3.5504,-3.5504,-3.5504,-3.5504,-3.5504,-3.5504,-3.5504,-3.5534,-3.5684,-3.5535,-3.5655,-3.6635,-3.6605,-3.6435,-3.6653,-3.6806,-3.6896,-3.6896,-3.765,-3.8267,-3.8267,-3.7694,-3.7595,-3.8554,-3.8065,-3.7999,-3.8929,-3.9265,-3.9388,-3.9388,-3.9388,-3.9634,-4.0142,-4.0187,-4.0472,-4.113,-4.1175,-4.1512,-4.2171,-4.1692,-4.1662,-4.2186,-4.1527,-4.0846,-4.0187,-3.9813,-3.9559,-3.9388,-3.9388,-3.9388,-3.9388,-3.9388,-3.9388,-3.9388,-3.9388,-3.9388,-3.9388,-3.9388,-3.9388,-3.9388,-3.9388,-3.9388,-3.9388,-3.6023,-3.6631,-3.7144,-3.713,-3.716,-3.7174,-3.7174,-3.6843,-3.6873,-3.769,-3.7793,-3.8092,-3.8827,-3.8897,-3.9226,-4.002,-4.0096,-3.9927,-3.9489,-3.8761,-3.833,-3.833,-3.7235,-3.6414,-3.6088,-3.5707,-3.4985,-3.3994,-3.3994,-3.4128,-3.4457,-3.4457,-3.4277,-3.3993,-3.4666,-3.4592,-3.4023,-3.507,-3.5295,-3.4996,-3.5355,-3.5504,-3.5504,-3.5504,-3.5504,-3.5504,-3.5504,-3.5504,-3.5504,-3.5504,-3.5504,-3.5504,-3.5504,-3.5504,-3.5504,-3.5504,-3.5504,-3.5504,-3.5504,-3.5504,-3.5504,-3.5504,-3.5504,-3.5684,-3.6342,-3.6252,-3.6103,-3.6417,-3.6716,-3.703,-3.7345,-3.8212,-3.8886,-3.8886,-3.8707,-3.8745,-3.9301,-3.8907,-3.8782,-3.9337,-3.9388,-3.9544,-3.9858,-3.9888,-4.0157,-4.0816,-4.0876,-4.116,-4.1856,-4.1886,-4.2186,-4.2806,-4.2491,-4.2327,-4.2396,-4.2051,-4.1392,-4.0397,-4.0053,-3.9723,-3.9388,-3.9388,-3.9388,-3.9388,-3.9388,-3.9388,-3.9388,-3.9388,-3.9388,-3.9388,-3.9388,-3.9388,-3.9388,-3.9388,-3.9388,-3.9388,-3.6828,-3.744,-3.8133,-3.8635,-3.8302,-3.7892,-3.7632,-3.7024,-3.6843,-3.7515,-3.7602,-3.7933,-3.8799,-3.961,-4.0096,-4.0096,-4.0096,-4.0045,-3.9901,-3.9262,-3.8908,-3.8908,-3.8189,-3.7544,-3.7008,-3.6722,-3.5968,-3.4683,-3.4683,-3.4951,-3.5504,-3.5504,-3.519,-3.4713,-3.525,-3.519,-3.4728,-3.5265,-3.5504,-3.5504,-3.5651,-3.5619,-3.5504,-3.5636,-3.5619,-3.5504,-3.5504,-3.5504,-3.5504,-3.5504,-3.5504,-3.5504,-3.5504,-3.5504,-3.5504,-3.5504,-3.5504,-3.5504,-3.5504,-3.5504,-3.5534,-3.5639,-3.5669,-3.5699,-3.5804,-3.5744,-3.5833,-3.6372,-3.706,-3.7749,-3.8287,-3.896,-3.9388,-3.9388,-3.9388,-3.9454,-3.9574,-3.9448,-3.9454,-3.9574,-3.9553,-3.9798,-4.0352,-4.0502,-4.0846,-4.1542,-4.1587,-4.1871,-4.253,-4.256,-4.2776,-4.3275,-4.329,-4.3075,-4.2575,-4.2455,-4.1856,-4.0726,-4.0502,-4.0053,-3.9388,-3.9388,-3.9388,-3.9388,-3.9388,-3.9388,-3.9388,-3.9388,-3.9388,-3.9388,-3.9388,-3.9388,-3.9388,-3.9388,-3.9388,-3.9388,-3.7632,-3.8246,-3.858,-3.8035,-3.8386,-3.8314,-3.6964,-3.6676,-3.6646,-3.6752,-3.6752,-3.7306,-3.8728,-3.961,-4.0096,-4.0096,-4.0096,-3.9808,-3.9113,-3.8962,-3.8908,-3.8908,-3.8189,-3.8064,-3.8591,-3.7261,-3.6198,-3.537,-3.537,-3.5415,-3.5504,-3.5504,-3.5459,-3.537,-3.5459,-3.5444,-3.537,-3.5474,-3.5504,-3.5554,-3.6196,-3.6054,-3.5554,-3.6196,-3.6054,-3.5504,-3.5504,-3.5504,-3.5504,-3.5504,-3.5504,-3.5504,-3.5504,-3.5504,-3.5504,-3.5504,-3.5504,-3.5504,-3.5504,-3.5504,-3.5639,-3.6207,-3.6357,-3.6492,-3.703,-3.6731,-3.6372,-3.6477,-3.7434,-3.8287,-3.8377,-3.896,-3.9388,-3.9388,-3.9388,-3.9619,-4.0187,-3.9783,-3.9634,-4.0202,-4.0262,-4.0307,-4.0382,-4.0905,-4.1557,-4.2216,-4.2261,-4.2506,-4.3125,-4.317,-4.32,-4.329,-4.329,-4.3245,-4.317,-4.2641,-4.2306,-4.2126,-4.0935,-4.0053,-3.9388,-3.9388,-3.9388,-3.9388,-3.9388,-3.9388,-3.9388,-3.9388,-3.9388,-3.9388,-3.9388,-3.9388,-3.9388,-3.9388,-3.9388,-3.9388,-3.8414,-3.9032,-3.9463,-3.9129,-3.9358,-3.9193,-3.8044,-3.7557,-3.7279,-3.7279,-3.7279,-3.7703,-3.8772,-3.961,-4.0096,-4.0096,-4.0096,-3.9952,-3.9584,-3.9584,-3.9584,-3.9584,-3.9252,-3.9022,-3.8908,-3.8213,-3.7512,-3.6768,-3.591,-3.5504,-3.5504,-3.5504,-3.5504,-3.5537,-3.5911,-3.6102,-3.6134,-3.66,-3.6768,-3.6799,-3.713,-3.6814,-3.6134,-3.6477,-3.6134,-3.5504,-3.5504,-3.5504,-3.5504,-3.5504,-3.5504,-3.5504,-3.5504,-3.5504,-3.5579,-3.5953,-3.5789,-3.5594,-3.5953,-3.5789,-3.5669,-3.6327,-3.6492,-3.6656,-3.727,-3.7479,-3.7554,-3.7554,-3.8003,-3.8497,-3.8901,-3.9215,-3.9388,-3.9388,-3.9388,-3.9514,-3.9813,-3.9604,-3.9493,-3.9813,-4.0172,-4.0546,-4.0905,-4.1587,-4.2231,-4.2865,-4.2895,-4.303,-4.329,-4.329,-4.329,-4.329,-4.329,-4.3125,-4.2791,-4.2545,-4.2036,-4.1265,-4.0681,-4.0247,-3.9963,-3.9553,-3.9388,-3.9403,-3.9813,-3.9963,-3.9963,-3.9963,-3.9963,-3.9933,-3.9574,-3.9388,-3.9388,-3.9388,-3.9388,-3.9388]},{"header":{"parameterUnit":"m.s-1","parameterCategory":1,"la1":30.6,"la2":28.766,"lo1":-90.7593,"lo2":-88.6598,"dy":0.0162,"dx":0.0183,"nx":116,"ny":114,"refTime":"2024-04-16T06:00:00:Z","depth":0,"parameterNumber":3,"parameterNumberName":"V-component_of_WINDS"},"data":[0.0,0.0,0.0,0.0,0.0,0.0,0.0,0.0,0.0,0.0,0.0,0.0,0.0,0.0,0.0,0.0,0.0,0.0,0.0,0.0,0.0,0.0,0.0,0.0,0.0,0.0,0.0,0.0,0.0,0.0,0.0,0.0,0.0,0.0,0.0,0.0,0.0,0.0,0.0,0.0,0.0,0.0,0.0,0.0,0.0,0.0,0.0,0.0,0.0,0.0,0.0,0.0,0.0,0.0,0.0,0.0,0.0,0.0,0.0,0.0,0.0,0.0,0.0,0.0,0.0,0.0,0.0,0.0,0.0,0.0,0.0,0.0,0.0,0.0,0.0,0.0,0.0,0.0,0.0,0.0,0.0,0.0,0.0,0.0,0.0,0.0,0.0,0.0,0.0,0.0,0.0,0.0,0.0,0.0,0.0,0.0,0.0,0.0,0.0,0.0,0.0,0.0,0.0,0.0,0.0,0.0,0.0,0.0,0.0,0.0,0.0,0.0,0.0,0.0,0.0,0.0,0.0,0.0,0.0,0.0,0.0,0.0,0.0,0.0,0.0,0.0,0.0,0.0,0.0,0.0,0.0,0.0,0.0,0.0,0.0,0.0,0.0,0.0,0.0,0.0,0.0,0.0,0.0,0.0,0.0,0.0,0.0,0.0,0.0,0.0,0.0,0.0,0.0,0.0,0.0,0.0,0.0,0.0,0.0,0.0,0.0,0.0,0.0,0.0,0.0,0.0,0.0,0.0,0.0,0.0,0.0,0.0,0.0,0.0,0.0,0.0,0.0,0.0,0.0,0.0,0.0,0.0,0.0,0.0,0.0,0.0,0.0,0.0,0.0,0.0,0.0,0.0,0.0,0.0,0.0,0.0,0.0,0.0,0.0,0.0,0.0,0.0,0.0,0.0,0.0,0.0,0.0,0.0,0.0,0.0,0.0,0.0,0.0,0.0,0.0,0.0,0.0,0.0,0.0,0.0,0.0,0.0,0.0,0.0,0.0,0.0,0.0,0.0,0.0,0.0,0.0,0.0,0.0,0.0,0.0,0.0,0.0,0.0,0.0,0.0,0.0,0.0,0.0,0.0,0.0,0.0,0.0,0.0,0.0,0.0,0.0,0.0,0.0,0.0,0.0,0.0,0.0,0.0,0.0,0.0,0.0,0.0,0.0,0.0,0.0,0.0,0.0,0.0,0.0,0.0,0.0,0.0,0.0,0.0,0.0,0.0,0.0,0.0,0.0,0.0,0.0,0.0,0.0,0.0,0.0,0.0,0.0,0.0,0.0,0.0,0.0,0.0,0.0,0.0,0.0,0.0,0.0,0.0,0.0,0.0,0.0,0.0,0.0,0.0,0.0,0.0,0.0,0.0,0.0,0.0,0.0,0.0,0.0,0.0,0.0,0.0,0.0,0.0,0.0,0.0,0.0,0.0,0.0,0.0,0.0,0.0,0.0,0.0,0.0,0.0,0.0,0.0,0.0,0.0,0.0,0.0,0.0,0.0,0.0,0.0,0.0,0.0,0.0,0.0,0.0,0.0,0.0,0.0,0.0,0.0,0.0,0.0,0.0,0.0,0.0,0.0,0.0,0.0,0.0,0.0,0.0,0.0,0.0,0.0,0.0,0.0,0.0,0.0,0.0,0.0,0.0,0.0,0.0,0.0,0.0,0.0,0.0,0.0,0.0,0.0,0.0,0.0,0.0,0.0,0.0,0.0,0.0,0.0,0.0,0.0,0.0,0.0,0.0,0.0,0.0,0.0,0.0,0.0,0.0,0.0,0.0,0.0,0.0,0.0,0.0,0.0,0.0,0.0,0.0,0.0,0.0,0.0,0.0,0.0,0.0,0.0,0.0,0.0,0.0,0.0,0.0,0.0,0.0,0.0,0.0,0.0,0.0,0.0,0.0,0.0,0.0,0.0,0.0,0.0,0.0,0.0,0.0,0.0,0.0,0.0,0.0,0.0,0.0,0.0,0.0,0.0,0.0,0.0,0.0,0.0,0.0,0.0,0.0,0.0,0.0,0.0,0.0,0.0,0.0,0.0,0.0,0.0,0.0,0.0,0.0,0.0,0.0,0.0,0.0,0.0,0.0,0.0,0.0,0.0,0.0,0.0,0.0,0.0,0.0,0.0,0.0,0.0,0.0,0.0,0.0,0.0,0.0,0.0,0.0,0.0,0.0,0.0,0.0,0.0,0.0,0.0,0.0,0.0,0.0,0.0,0.0,0.0,0.0,0.0,0.0,0.0,0.0,0.0,0.0,0.0,0.0,0.0,0.0,0.0,0.0,0.0,0.0,0.0,0.0,0.0,0.0,0.0,0.0,0.0,0.0,0.0,0.0,0.0,0.0,0.0,0.0,0.0,0.0,0.0,0.0,0.0,0.0,0.0,0.0,0.0,0.0,0.0,0.0,0.0,0.0,0.0,0.0,0.0,0.0,0.0,0.0,0.0,0.0,0.0,0.0,0.0,0.0,0.0,0.0,0.0,0.0,0.0,0.0,0.0,0.0,0.0,0.0,0.0,0.0,0.0,0.0,0.0,0.0,0.0,0.0,0.0,0.0,0.0,0.0,0.0,0.0,0.0,0.0,0.0,0.0,0.0,0.0,0.0,0.0,0.0,0.0,0.0,0.0,0.0,0.0,0.0,0.0,0.0,0.0,0.0,0.0,0.0,0.0,0.0,0.0,0.0,0.0,0.0,0.0,0.0,0.0,0.0,0.0,0.0,0.0,0.0,0.0,0.0,0.0,0.0,0.0,0.0,0.0,0.0,0.0,0.0,0.0,0.0,0.0,0.0,0.0,0.0,0.0,0.0,0.0,0.0,0.0,0.0,0.0,0.0,0.0,0.0,0.0,0.0,0.0,0.0,0.0,0.0,0.0,0.0,0.0,0.0,0.0,0.0,0.0,0.0,0.0,0.0,0.0,0.0,0.0,0.0,0.0,0.0,0.0,0.0,0.0,0.0,0.0,0.0,0.0,0.0,0.0,0.0,0.0,0.0,0.0,0.0,0.0,0.0,0.0,0.0,0.0,0.0,0.0,0.0,0.0,0.0,0.0,0.0,0.0,0.0,0.0,0.0,0.0,0.0,0.0,0.0,0.0,0.0,0.0,0.0,0.0,0.0,0.0,0.0,0.0,0.0,0.0,0.0,0.0,0.0,0.0,0.0,0.0,0.0,0.0,0.0,0.0,0.0,0.0,0.0,0.0,0.0,0.0,0.0,0.0,0.0,0.0,0.0,0.0,0.0,0.0,0.0,0.0,0.0,0.0,0.0,0.0,0.0,0.0,0.0,0.0,0.0,0.0,0.0,0.0,0.0,0.0,0.0,0.0,0.0,0.0,0.0,0.0,0.0,0.0,0.0,0.0,0.0,0.0,0.0,0.0,0.0,0.0,0.0,0.0,0.0,0.0,0.0,0.0,0.0,0.0,0.0,0.0,0.0,0.0,0.0,0.0,0.0,0.0,0.0,0.0,0.0,0.0,0.0,0.0,0.0,0.0,0.0,0.0,0.0,0.0,0.0,0.0,0.0,0.0,0.0,0.0,0.0,0.0,0.0,0.0,0.0,0.0,0.0,0.0,0.0,0.0,0.0,0.0,0.0,0.0,0.0,0.0,0.0,0.0,0.0,0.0,0.0,0.0,0.0,0.0,0.0,0.0,0.0,0.0,0.0,0.0,0.0,0.0,0.0,0.0,0.0,0.0,0.0,0.0,0.0,0.0,0.0,0.0,0.0,0.0,0.0,0.0,0.0,0.0,0.0,0.0,0.0,0.0,0.0,0.0,0.0,0.0,0.0,0.0,0.0,0.0,0.0,0.0,0.0,0.0,0.0,0.0,0.0,0.0,0.0,0.0,0.0,0.0,0.0,0.0,0.0,0.0,0.0,0.0,0.0,0.0,0.0,0.0,0.0,0.0,0.0,0.0,0.0,0.0,0.0,0.0,0.0,0.0,0.0,0.0,0.0,0.0,0.0,0.0,0.0,0.0,0.0,0.0,0.0,0.0,0.0,0.0,0.0,0.0,0.0,0.0,0.0,0.0,0.0,0.0,0.0,0.0,0.0,0.0,0.0,0.0,0.0,0.0,0.0,0.0,0.0,0.0,0.0,0.0,0.0,0.0,0.0,0.0,0.0,0.0,0.0,0.0,0.0,0.0,0.0,0.0,0.0,0.0,0.0,0.0,0.0,0.0,0.0,0.0,0.0,0.0,0.0,0.0,0.0,0.0,0.0,0.0,0.0,0.0,0.0,0.0,0.0,0.0,0.0,0.0,0.0,0.0,0.0,0.0,0.0,0.0,0.0,0.0,0.0,0.0,0.0,0.0,0.0,0.0,0.0,0.0,0.0,0.0,0.0,0.0,0.0,0.0,0.0,0.0,0.0,0.0,0.0,0.0,0.0,0.0,0.0,0.0,0.0,0.0,0.0,0.0,0.0,0.0,0.0,0.0,0.0,0.0,0.0,0.0,0.0,0.0,0.0,0.0,0.0,0.0,0.0,0.0,0.0,0.0,0.0,0.0,0.0,0.0,0.0,0.0,0.0,0.0,0.0,0.0,0.0,0.0,0.0,0.0,0.0,0.0,0.0,0.0,0.0,0.0,0.0,0.0,0.0,0.0,0.0,0.0,0.0,0.0,0.0,0.0,0.0,0.0,0.0,0.0,0.0,0.0,0.0,0.0,0.0,0.0,0.0,0.0,0.0,0.0,0.0,0.0,0.0,0.0,0.0,0.0,0.0,0.0,0.0,0.0,0.0,0.0,0.0,0.0,0.0,0.0,0.0,0.0,0.0,0.0,0.0,0.0,0.0,0.0,0.0,0.0,0.0,0.0,0.0,0.0,0.0,0.0,0.0,0.0,0.0,0.0,0.0,0.0,0.0,0.0,0.0,0.0,0.0,0.0,0.0,0.0,0.0,0.0,0.0,0.0,0.0,0.0,0.0,0.0,0.0,0.0,0.0,0.0,0.0,0.0,0.0,0.0,0.0,0.0,0.0,0.0,0.0,0.0,0.0,0.0,0.0,0.0,0.0,0.0,0.0,0.0,0.0,0.0,0.0,0.0,0.0,0.0,0.0,0.0,0.0,0.0,0.0,0.0,0.0,0.0,0.0,0.0,0.0,0.0,0.0,0.0,0.0,0.0,0.0,0.0,0.0,0.0,0.0,0.0,0.0,0.0,0.0,0.0,0.0,0.0,0.0,0.0,0.0,0.0,0.0,0.0,0.0,0.0,0.0,0.0,0.0,0.0,0.0,0.0,0.0,0.0,0.0,0.0,0.0,0.0,0.0,0.0,0.0,0.0,0.0,0.0,0.0,0.0,0.0,0.0,0.0,0.0,0.0,0.0,0.0,0.0,0.0,0.0,0.0,0.0,0.0,0.0,0.0,0.0,0.0,0.0,0.0,0.0,0.0,0.0,0.0,0.0,0.0,0.0,0.0,0.0,0.0,0.0,0.0,0.0,0.0,0.0,0.0,0.0,0.0,0.0,0.0,0.0,0.0,0.0,0.0,0.0,0.0,0.0,0.0,0.0,0.0,0.0,0.0,0.0,0.0,0.0,0.0,0.0,0.0,0.0,0.0,0.0,0.0,0.0,0.0,0.0,0.0,0.0,0.0,0.0,0.0,0.0,0.0,0.0,0.0,0.0,0.0,0.0,0.0,0.0,0.0,0.0,0.0,0.0,0.0,0.0,0.0,0.0,0.0,0.0,0.0,0.0,0.0,0.0,0.0,0.0,0.0,0.0,0.0,0.0,0.0,0.0,0.0,0.0,0.0,0.0,0.0,0.0,0.0,0.0,0.0,0.0,0.0,0.0,0.0,0.0,0.0,0.0,0.0,0.0,0.0,0.0,0.0,0.0,0.0,0.0,0.0,0.0,0.0,0.0,0.0,0.0,0.0,0.0,0.0,0.0,0.0,0.0,0.0,0.0,0.0,0.0,0.0,0.0,0.0,0.0,0.0,0.0,0.0,0.0,0.0,0.0,0.0,0.0,0.0,0.0,0.0,0.0,0.0,0.0,0.0,0.0,0.0,0.0,0.0,0.0,0.0,0.0,0.0,0.0,0.0,0.0,0.0,0.0,0.0,0.0,0.0,0.0,0.0,0.0,0.0,0.0,0.0,1.4518,0.0,0.0,0.0,0.0,0.0,0.0,0.0,0.0,0.0,0.0,0.0,0.0,0.0,0.0,0.0,0.0,0.0,0.0,0.0,0.0,0.0,0.0,0.0,0.0,0.6973,0.7215,0.7706,0.7744,0.7744,0.7744,0.0,0.0,0.0,0.0,0.0,1.0783,1.2241,1.32,1.3709,1.4717,1.5409,1.5777,1.4626,1.3586,1.2713,0.0,0.0,0.0,0.0,0.0,0.0,0.0,0.0,0.0,0.0,0.0,0.0,0.0,0.0,0.0,0.0,0.0,0.0,0.0,0.0,0.0,0.0,0.0,0.0,0.0,0.0,0.0,0.0,0.0,0.0,0.0,0.0,0.0,0.0,0.0,0.0,0.0,0.0,0.0,0.0,0.0,0.0,0.0,0.0,0.0,0.0,0.0,0.0,0.0,0.0,0.0,0.0,0.0,0.0,0.0,0.0,0.0,0.0,0.0,0.0,0.0,0.0,0.0,0.0,0.0,0.0,0.0,0.0,0.0,0.0,0.0,1.6348,0.0,0.0,0.0,0.0,0.0,0.0,0.0,0.0,0.0,0.0,0.0,0.0,0.0,0.0,0.0,0.0,0.0,0.0,0.0,0.0,0.0,0.6995,0.7655,0.7928,0.8389,0.9221,0.9296,0.9296,0.9296,0.9296,0.0,0.0,0.0,1.0969,1.1304,1.2894,1.3882,1.4207,1.5683,1.653,1.6853,1.6922,1.6656,1.6047,1.4866,0.0,0.0,0.0,0.0,0.0,0.0,0.0,0.0,0.0,0.0,0.0,0.0,0.0,0.0,0.0,0.0,0.0,0.0,0.0,0.0,0.0,0.0,0.0,0.0,0.0,0.0,0.0,0.0,0.0,0.0,0.0,0.0,0.0,0.0,0.0,0.0,0.0,0.0,0.0,0.0,0.0,0.0,0.0,0.0,0.0,0.0,0.0,0.0,0.0,0.0,0.0,0.0,0.0,0.0,0.0,0.0,0.0,0.0,0.0,0.0,0.0,0.0,0.0,2.0639,2.0989,2.1526,2.1457,2.1796,2.2336,2.09,1.9977,1.9326,1.7147,0.0,0.0,0.0,0.0,0.0,0.0,0.0,0.0,0.0,0.0,0.0,0.0,0.0,0.0,0.0,0.0,0.0,0.0,0.0,0.8502,0.8619,0.8894,0.9145,0.9296,0.9296,0.9296,0.9296,0.9296,0.9707,1.0565,1.0746,1.1601,1.3259,1.3564,1.4522,1.621,1.8419,1.9749,2.0165,2.0508,2.0639,2.0437,1.7178,1.4946,1.3542,0.0,0.0,0.0,0.0,0.0,0.0,0.0,0.0,0.0,0.0,0.0,0.0,0.0,0.0,0.0,0.0,0.0,0.0,0.0,0.0,0.0,0.0,0.0,0.0,0.0,0.0,0.0,0.0,0.0,0.0,0.0,0.0,0.0,0.0,0.0,0.0,0.0,0.0,0.0,0.0,0.0,1.4684,1.3695,0.0,0.0,0.0,0.0,0.0,0.0,0.0,0.0,0.0,0.0,0.0,0.0,0.0,1.9825,2.0381,2.0735,2.155,2.279,2.2847,2.3459,2.4526,2.4105,2.3996,2.4031,2.346,0.0,2.0882,1.9109,0.0,0.0,0.0,0.0,0.0,0.0,0.0,0.0,0.0,0.0,0.0,0.0,0.0,0.0,0.0,0.0,0.0,0.0,0.0,0.0,0.0,1.0784,1.1384,1.2524,1.2249,1.1952,1.1792,1.1458,1.1369,1.1626,1.2161,1.2821,1.3673,1.4932,1.6652,1.8849,2.0468,2.1578,2.2086,2.2248,2.2537,2.2743,2.1135,1.9076,1.6652,1.5654,0.0,0.0,0.0,0.0,0.0,0.0,0.0,0.0,0.0,0.0,0.0,0.0,0.0,0.0,0.0,0.0,0.0,0.0,0.0,0.0,0.0,0.0,0.0,0.0,0.0,0.0,0.0,0.0,0.0,0.0,0.0,0.0,0.0,0.0,0.0,0.0,0.0,0.0,0.0,1.5164,1.5431,1.4816,1.5532,1.5566,0.0,0.0,0.0,0.0,0.0,0.0,0.0,0.0,0.0,1.9119,2.0515,2.1669,2.2518,2.2474,2.3205,2.459,2.4648,2.4948,2.5449,2.5498,2.5391,2.5089,2.4697,2.4108,2.3287,2.1114,2.0329,2.0423,0.0,0.0,0.0,0.0,1.9212,1.9187,0.0,0.0,0.0,0.0,0.0,0.0,0.0,0.0,0.0,0.0,0.0,0.0,1.2282,1.2854,1.3777,1.5383,1.4949,1.4386,1.3924,1.3362,1.2794,1.2311,1.32,1.3911,1.4391,1.684,1.9002,2.0813,2.2093,2.3052,2.3652,2.3732,2.4066,2.4586,2.434,2.2459,1.9415,1.8223,1.6525,1.466,0.0,0.0,0.0,0.0,0.0,0.0,0.0,0.0,0.0,0.0,0.0,0.0,0.0,0.0,0.0,0.0,0.0,0.0,0.0,0.0,0.0,0.0,0.0,0.0,0.0,0.0,0.0,0.0,0.0,0.0,0.0,0.0,0.0,0.0,0.0,0.0,0.0,1.5431,1.5832,1.5545,1.6092,1.6353,0.0,0.0,0.0,0.0,0.0,0.0,1.7286,1.9015,2.0124,2.0406,2.2223,2.3698,2.4659,2.4523,2.4987,2.6015,2.6172,2.6172,2.6025,2.6396,2.6318,2.5879,2.543,2.5223,2.4914,2.268,2.182,2.184,2.0703,2.0318,2.0395,2.03,2.0257,2.0293,0.0,0.0,0.0,0.0,0.0,0.0,0.0,0.0,0.0,0.0,0.0,1.2993,1.3712,1.49,1.5799,1.6288,1.5955,1.5323,1.4433,1.3932,1.3258,1.2342,1.32,1.4482,1.6234,1.9492,2.1218,2.1351,2.3254,2.4514,2.5098,2.5469,2.5944,2.6443,2.5543,2.3566,2.0877,2.0547,1.8916,1.6586,1.6943,0.0,0.0,0.0,0.0,0.0,0.0,0.0,0.0,0.0,0.0,0.0,0.0,0.0,0.0,0.0,0.0,0.0,0.0,0.0,0.0,0.0,0.0,0.0,0.0,0.0,0.0,0.0,0.0,0.0,0.0,0.0,0.0,0.0,0.0,0.0,0.0,0.0,0.0,1.5798,1.6573,0.0,0.0,0.0,0.0,1.7159,1.7414,1.7528,1.7562,2.0156,2.1791,2.2171,2.4785,2.6392,2.6841,2.7282,2.7282,2.6953,2.7373,2.7353,2.6953,2.6973,2.6758,2.6328,2.5889,2.5459,2.4971,2.3582,2.329,2.3582,2.2688,2.2568,2.2867,2.2471,2.2368,2.2428,0.0,0.0,0.0,0.0,0.0,0.5591,0.6137,0.7385,0.8781,1.0254,1.2032,1.3894,1.5796,1.6434,1.7106,1.8175,1.7483,1.6781,1.6246,1.5402,1.4715,1.4171,1.5084,1.6686,1.9062,2.1169,2.2687,2.3611,2.536,2.6519,2.7063,2.757,2.8113,2.8656,2.8309,2.7057,2.5083,2.3684,2.1732,1.9529,1.8965,1.7154,0.0,0.0,0.0,0.0,0.0,0.0,0.0,0.0,0.0,0.0,0.0,0.0,0.0,0.0,0.0,0.0,0.0,0.0,0.0,0.0,0.0,0.0,0.0,0.0,0.0,0.0,0.0,0.0,0.0,0.0,0.0,0.0,0.0,0.0,0.0,0.0,0.0,1.8475,1.9966,0.0,2.0834,2.0046,2.012,2.1337,2.0308,2.0227,2.162,2.3302,2.4351,2.4755,2.6625,2.7685,2.7832,2.7725,2.764,2.7432,2.764,2.7432,2.7021,2.7305,2.7051,2.6387,2.6221,2.5908,2.542,2.4385,2.3896,2.373,2.3144,2.2964,2.3081,2.2925,2.2877,2.2934,0.0,0.0,0.0,0.0,0.0,0.5591,0.617,0.7158,0.8479,1.0294,1.2212,1.4253,1.6533,1.7561,1.8615,1.9819,1.8762,1.7842,1.7469,1.636,1.547,1.499,1.6587,1.8575,2.0974,2.2599,2.4046,2.5372,2.6653,2.7657,2.8398,2.8712,2.9239,2.9792,2.9792,2.9206,2.8208,2.6847,2.4772,2.2242,2.1443,2.0011,1.8247,0.0,0.0,0.0,0.0,0.0,0.0,0.0,0.0,0.0,0.0,0.0,0.0,0.0,0.0,0.0,0.0,0.0,0.0,0.0,0.0,0.0,0.0,0.0,0.0,0.0,0.0,0.0,0.0,0.0,0.0,0.0,0.0,0.0,0.0,0.0,2.0008,2.079,2.238,2.3439,2.3474,2.2711,2.245,2.3181,2.2593,2.2568,2.3488,2.5067,2.6082,2.6299,2.7577,2.8291,2.8291,2.8018,2.7803,2.7718,2.7865,2.7578,2.7031,2.7471,2.7197,2.6387,2.6387,2.6143,2.5615,2.4738,2.4248,2.3945,2.3325,2.3091,2.3091,2.3091,2.3091,2.3135,0.0,0.0,0.0,0.0,0.0,0.5362,0.5395,0.6112,0.7085,0.8288,1.1444,1.4178,1.5828,1.8285,2.0192,2.1052,1.9569,1.8418,1.7924,1.6682,1.5576,1.4712,1.7611,2.0094,2.1925,2.383,2.5372,2.6512,2.7065,2.7871,2.8888,2.8913,2.9252,2.9792,2.9792,2.9792,2.9792,2.9792,2.7791,2.4627,2.4465,2.3667,2.2476,0.0,0.0,0.0,0.0,0.0,0.0,0.0,0.0,0.0,0.0,0.0,0.0,0.0,0.0,0.0,0.0,0.0,0.0,0.0,0.0,0.0,0.0,0.0,0.0,0.0,0.0,0.0,0.0,0.0,0.0,0.0,0.0,0.0,1.8984,1.9838,2.1049,2.2582,2.3599,2.4127,2.401,2.4508,2.4179,2.2566,2.4142,2.4519,2.3018,2.5392,2.6779,2.6779,2.7729,2.8291,2.8291,2.8291,2.8086,2.7738,2.8096,2.7851,2.7051,2.7471,2.7197,2.6387,2.6387,2.6133,2.5596,2.4729,2.4414,2.4316,2.3422,2.3091,2.3091,2.3091,2.3091,2.3256,0.0,0.0,0.0,0.5395,0.4821,0.4619,0.5292,0.5769,0.6844,0.9125,1.134,1.3512,1.5634,1.7565,1.886,1.907,1.8785,1.8412,1.7998,1.7548,1.759,1.8247,1.9721,2.1315,2.3016,2.4181,2.5561,2.709,2.7607,2.8235,2.89,2.9365,2.9641,2.9792,2.9792,2.9792,2.9792,2.9792,2.9234,2.8215,2.6709,2.5223,2.3936,0.0,0.0,0.0,0.0,0.0,0.0,0.0,0.0,0.0,0.0,0.0,0.0,0.0,0.0,0.0,0.0,0.0,0.0,0.0,0.0,0.0,0.0,0.0,0.0,0.0,0.0,0.0,0.0,0.0,0.0,0.0,2.0118,2.0351,1.9568,2.2243,2.4248,2.4157,2.6729,2.8634,2.8908,2.7988,2.7696,2.8425,2.7593,2.737,2.8074,2.8229,2.8294,2.8294,2.829,2.8291,2.8291,2.8291,2.8232,2.8125,2.8232,2.8008,2.749,2.7669,2.7197,2.6387,2.6387,2.5957,2.5215,2.4648,2.4238,2.3906,2.3315,2.3091,2.3091,2.3091,2.3091,2.3256,0.0,0.0,0.0,0.5395,0.4619,0.4317,0.5259,0.5215,0.5881,0.8197,1.0096,1.2015,1.4078,1.5793,1.7147,1.8036,1.7772,1.7735,1.8173,1.8288,1.903,2.0556,2.1326,2.2428,2.3997,2.5029,2.6088,2.7281,2.8059,2.8574,2.89,2.9528,2.9792,2.9792,2.9792,2.9792,2.9792,2.9792,2.9792,2.969,2.8545,2.7534,2.6655,2.6204,2.573,2.5298,2.5255,2.4354,2.3067,2.2341,0.0,0.0,0.0,0.0,0.0,0.0,0.0,0.0,0.0,0.0,0.0,0.0,0.0,0.0,0.0,0.0,0.0,0.0,0.0,0.0,0.0,0.0,0.0,0.0,2.2696,2.3074,2.2618,2.4568,2.6009,2.5986,2.848,3.0381,3.084,3.002,2.9589,2.9835,2.9374,2.9224,2.9447,2.9476,2.9453,2.9453,2.8867,2.8555,2.8555,2.8379,2.8291,2.8291,2.8291,2.7978,2.7393,2.7393,2.6924,2.6103,2.5918,2.5595,2.5067,2.4404,2.4014,0.0,0.0,0.0,0.0,0.0,2.3091,2.3178,0.0,0.0,0.0,0.5259,0.4553,0.4317,0.5259,0.4586,0.4643,0.6453,0.8271,1.0005,1.1645,1.3342,1.5128,1.7076,1.6462,1.669,1.8442,1.8994,2.0074,2.1954,2.2595,2.3559,2.4863,2.5959,2.6801,2.7369,2.8348,2.8863,2.9001,2.9553,2.9792,2.9792,2.9792,2.9792,2.9792,2.9792,2.9792,2.9792,2.9792,2.9792,2.9679,2.8674,2.8051,2.7584,2.7054,2.6276,2.5329,2.4147,0.0,0.0,0.0,0.0,0.0,0.0,0.0,0.0,0.0,0.0,0.0,0.0,0.0,0.0,0.0,0.0,0.0,0.0,0.0,0.0,0.0,0.0,0.0,0.0,2.5568,2.6307,2.6733,2.6783,2.7012,2.7714,2.9297,3.0439,3.085,3.0889,3.0274,2.8792,3.0079,3.0274,2.8783,0.0,0.0,0.0,0.0,2.8916,2.8916,2.8506,2.8291,2.8291,2.8291,2.7871,2.709,2.7041,2.6572,2.5732,2.5283,2.5086,2.4979,2.4121,2.376,2.3682,2.3247,2.3091,2.3091,2.3091,2.3091,2.3091,0.0,0.0,0.0,0.4417,0.4115,0.4317,0.5259,0.4586,0.4643,0.6453,0.7548,0.8476,0.936,1.1089,1.2458,1.3094,1.4322,1.6155,1.8822,1.9715,2.0948,2.2774,2.3853,2.4733,2.5435,2.6147,2.6977,2.7946,2.816,2.8737,2.9628,2.9741,2.9792,2.9792,2.9792,2.9792,2.9792,2.9792,2.9792,2.9792,2.9792,2.9792,2.9767,2.9553,2.9125,2.8599,2.8487,2.797,2.7144,2.571,2.4712,2.3719,2.1386,1.9826,0.0,0.0,0.0,0.0,0.0,0.0,0.0,0.0,0.0,0.0,0.0,0.0,0.0,0.0,0.0,0.0,0.0,0.0,0.0,2.6343,2.7502,2.8112,2.767,2.8652,2.9098,2.8104,2.963,3.0791,3.0879,3.0889,3.0772,3.045,3.0704,3.0762,3.046,3.0267,3.0195,3.0195,2.9365,2.8916,2.8916,2.8506,2.8291,2.8291,0.0,0.0,2.7529,2.7178,2.6738,2.6221,2.542,2.4863,2.4502,2.3994,2.3584,2.3218,2.313,2.3091,2.3091,2.3091,2.3091,2.3091,0.0,0.0,0.0,0.4082,0.4015,0.4317,0.5259,0.4217,0.3844,0.517,0.5403,0.5908,0.715,0.8134,0.9437,1.1294,1.3978,1.6836,1.9775,2.0843,2.2392,2.4707,2.4813,2.519,2.6029,2.6043,2.645,2.731,2.7823,2.8264,2.8584,2.9409,2.9495,2.8976,2.9534,2.9792,2.9753,2.9197,2.8937,2.8897,2.8371,2.8131,2.8263,2.9378,2.9269,2.8482,2.8482,2.7921,2.7012,2.5637,2.5007,2.449,2.2626,2.1228,2.0036,0.0,0.0,0.0,0.0,0.0,0.0,0.0,0.0,0.0,0.0,0.0,0.0,0.0,0.0,2.29,2.4693,0.0,2.7051,2.8125,2.9004,2.9494,2.938,3.0065,2.9997,2.8373,2.977,3.0889,3.0889,3.0889,3.0889,3.0889,3.0889,3.0889,3.0889,3.0674,3.0439,3.0205,2.958,2.9141,2.8916,2.8506,2.8291,2.8291,2.8291,2.8066,2.7699,2.7217,2.6787,2.6328,2.5225,2.4619,2.4365,2.373,2.3286,2.3091,2.3091,2.3091,2.3091,2.3091,2.3091,2.3091,0.0,0.0,0.0,0.3782,0.4048,0.4519,0.5292,0.4015,0.3211,0.3915,0.3455,0.3683,0.5261,0.5461,0.6896,1.0376,1.3839,1.7087,2.0072,2.1403,2.3206,2.5637,2.5076,2.5091,2.5916,2.5599,2.5701,2.6221,2.7164,2.7446,2.7152,2.8545,2.8779,2.8136,2.8819,2.9287,2.9404,2.8267,2.7804,2.7723,2.6842,2.6524,2.6689,2.8227,2.8374,2.7804,2.7804,2.718,2.6214,2.5136,2.4766,2.4513,2.3497,2.2259,2.1158,2.0976,1.9955,0.0,0.0,0.0,0.0,0.0,0.0,0.0,0.0,0.0,2.1985,2.4028,2.4191,2.4663,2.7081,2.7489,2.7988,2.9453,3.0049,3.0459,3.084,3.0889,3.0392,2.9039,3.0089,3.0889,3.0889,3.0889,3.0889,3.0889,3.0889,3.0889,3.0889,3.0889,3.0674,3.0215,2.9785,2.9365,2.8926,2.8506,2.8291,2.8291,2.8291,2.8115,2.7826,2.7246,2.6836,2.6435,2.5029,2.4326,2.4066,2.3383,2.3091,2.3091,2.3091,2.3091,2.3091,2.3091,2.3091,2.3091,0.0,0.0,0.0,0.0,0.0,0.5292,0.5395,0.4519,0.3882,0.3982,0.3378,0.3236,0.4113,0.4317,0.5882,0.9589,1.2246,1.5047,1.8205,2.0248,2.1857,2.3068,2.3864,2.4142,2.3841,2.4513,2.496,2.516,2.565,2.6123,2.6599,2.6778,2.729,2.8044,2.725,2.7412,2.8215,2.7128,2.6678,2.6678,2.6554,2.6524,2.6419,2.5541,2.5812,2.6678,2.6678,2.6314,2.5757,2.5019,2.4556,2.4148,2.3355,2.2765,2.2149,2.1158,0.0,1.9561,1.7403,1.6973,1.7492,1.8878,2.0146,2.1239,0.0,0.0,2.45,2.6339,2.6643,2.7121,2.9042,2.9343,2.9473,3.0039,3.0518,3.083,3.0889,3.0889,3.083,3.0645,3.0772,3.0889,3.0889,3.0889,3.0889,3.0889,3.0889,3.0889,3.0889,3.0889,3.0674,3.0215,2.9785,2.9365,2.8926,2.8506,2.8291,2.8291,2.8291,2.8271,2.8193,2.7383,2.6992,2.6846,2.5146,2.3939,2.3227,2.314,2.3091,2.3091,2.3091,2.3091,2.3091,2.3091,2.3091,2.3091,0.0,0.0,0.0,0.0,0.0,0.5395,0.5395,0.4586,0.3813,0.3311,0.2504,0.2279,0.3155,0.4688,0.6676,0.9236,1.1223,1.373,1.7026,1.9073,2.0623,2.1724,2.2317,2.2381,2.1889,2.1784,2.2039,2.271,2.3625,2.423,2.4512,2.587,2.6378,2.6191,2.6378,2.676,2.7087,2.5964,2.5094,2.4427,2.3743,2.3041,2.2368,2.1813,2.1848,2.2331,2.3349,2.3318,0.0,2.2744,2.3088,2.3526,2.326,2.3203,2.3164,2.2694,2.1757,0.0,1.8811,1.8962,1.9791,0.0,2.1844,2.2924,2.3428,2.4227,2.5179,2.6436,2.7052,2.7875,2.937,2.9838,3.0078,0.0,3.0762,3.0889,3.0889,3.0889,3.0791,3.0518,3.0723,3.0889,3.0889,3.0889,3.0889,3.0889,3.0889,3.0889,3.0889,3.0635,3.0283,2.9844,2.9414,2.8984,2.8564,2.8379,2.8291,2.8291,2.8291,2.8291,2.8262,2.7402,2.6602,2.583,2.4844,2.4072,2.3496,2.3198,2.3091,2.3091,2.3091,2.3091,2.3091,2.3091,2.3091,2.3091,0.0,0.0,0.0,0.0,0.0,0.509,0.5359,0.4586,0.368,0.2811,0.1875,0.1645,0.2582,0.4869,0.6935,0.8393,0.9869,1.2059,1.518,1.7052,1.864,1.9986,2.0117,1.99,1.9514,1.8783,1.8726,1.9401,2.0811,2.1476,2.152,2.3606,2.4289,2.3829,2.4839,2.5243,2.5115,2.4354,2.3291,2.2052,2.1177,2.026,1.9434,1.9018,1.8713,1.8674,2.0283,2.0592,2.0274,2.0545,2.1414,2.2451,2.2588,2.2737,2.2909,2.331,2.2412,2.1141,2.0352,0.0,0.0,2.147,2.2225,2.2981,2.3383,2.4183,2.5217,2.6348,2.7454,2.8628,2.9928,3.0283,3.0498,3.084,3.0889,3.0889,3.0889,3.0781,3.0576,3.0234,3.0391,3.0576,3.0693,3.081,3.0889,3.0889,3.0889,3.0889,3.0889,3.0576,3.0137,2.9646,2.9258,2.8838,2.8301,2.8291,2.8291,2.8291,2.8174,2.8125,2.8096,2.7236,2.6191,2.5096,2.4736,2.4287,2.3769,2.3447,2.3198,2.3091,2.3091,2.3091,2.3091,2.3091,2.3091,2.3091,0.0,0.0,0.0,0.0,0.0,0.435,0.5259,0.4586,0.368,0.2811,0.1877,0.1642,0.2611,0.435,0.5785,0.6687,0.7877,0.966,1.2165,1.3775,1.5477,1.7333,1.6931,1.6563,1.6447,1.5958,1.5544,1.517,1.6829,1.765,1.7704,1.9074,2.0245,2.1246,2.1853,2.1989,2.1753,2.2007,2.1289,1.9975,1.9674,1.9534,1.9364,1.7833,1.7101,1.7033,1.8278,1.8847,1.9091,1.9222,1.9891,2.0752,2.1152,2.0806,2.0594,2.2115,2.196,2.1338,0.0,0.0,2.0005,2.0375,2.0457,2.0604,2.1007,2.275,2.4831,2.6608,2.8349,2.9947,3.1311,3.1154,3.0869,3.0889,3.0889,3.0889,3.0889,3.0508,3.0215,3.0195,2.9853,2.9766,0.0,3.0625,3.0889,3.0889,3.0889,3.0889,3.0889,3.0879,3.0469,2.9655,2.9616,2.915,2.8301,2.8291,2.8291,2.8291,2.7881,2.7738,2.7708,2.6797,2.5918,2.5116,2.5106,2.457,2.3789,2.3779,2.3525,2.3091,2.3091,2.3091,2.3091,2.3091,2.3091,2.3091,0.0,0.0,0.0,0.0,0.0,0.0,0.5259,0.5126,0.4384,0.2911,0.2517,0.0,0.0,0.0,0.0,0.0,0.7058,0.8126,1.0009,1.1395,1.2312,1.2696,1.361,1.3778,1.3011,1.308,1.3098,1.2925,1.4348,1.5046,1.5094,1.6339,1.7656,1.9047,1.9262,1.9903,2.0813,2.064,1.9854,1.8681,1.8187,1.7598,1.6965,1.6084,1.5697,1.5574,0.0,1.5815,1.6739,1.7908,1.892,1.9841,2.0884,2.1269,2.1341,2.1314,2.1907,2.2276,0.0,0.0,2.1715,2.1246,2.1276,2.1503,2.1906,2.2831,2.4015,2.5601,2.6407,2.7267,2.8741,2.9085,2.9258,2.9531,3.0059,3.0537,3.085,3.0752,3.0439,2.9853,2.9902,0.0,0.0,0.0,0.0,3.0869,3.0889,3.0889,3.0889,3.0596,3.0293,3.0,2.9434,2.8994,2.8711,2.8428,2.8291,2.8291,2.7861,2.7562,2.7217,2.665,2.6064,2.5498,2.5195,2.4736,2.418,2.3906,2.3535,2.3091,2.3091,2.3091,2.3091,2.3091,2.3091,2.3091,0.0,0.0,0.0,0.0,0.0,0.0,0.0,0.0,0.0,0.0,0.0,0.0,0.0,0.0,0.0,0.0,0.0,0.684,0.83,0.9186,0.9841,1.0213,1.0916,1.1053,1.0545,1.0306,1.024,1.0269,1.1622,1.2299,1.2384,1.3678,1.4851,1.587,1.643,1.7291,1.8264,1.8527,1.7841,1.6583,1.6447,1.569,1.465,1.4657,1.4583,0.0,1.3728,1.3917,1.4803,1.6556,1.7879,1.8964,2.0303,2.1279,2.1745,2.1004,2.1752,2.2518,0.0,2.1098,2.1543,2.0672,2.0567,2.0735,2.1002,2.1791,2.2699,2.3535,2.464,2.568,2.6579,2.7323,2.793,2.8193,2.8701,2.9326,3.0078,2.9932,2.9756,2.9795,2.9766,2.9648,0.0,0.0,0.0,3.0605,3.0801,3.0889,3.0889,3.0605,3.0371,3.0205,2.9512,2.9082,2.8916,2.8506,2.8144,2.7832,2.7559,2.7129,2.6543,2.6113,2.5762,2.5478,2.5029,2.459,2.417,2.3906,2.3535,2.3091,2.3091,2.3091,2.3091,2.3091,2.3091,2.3091,0.0,0.0,0.0,0.0,0.0,0.0,0.0,0.0,0.0,0.0,0.0,0.0,0.0,0.0,0.0,0.0,0.0,0.0,0.6937,0.7259,0.8121,0.9647,0.8814,0.853,0.8987,0.7753,0.7224,0.7415,0.8748,0.952,0.9706,1.1042,1.1726,1.1886,1.3453,1.4209,1.428,1.5599,1.5283,1.3926,1.4572,1.4007,1.2796,1.373,1.3908,1.3606,1.3327,1.322,1.3488,1.5253,1.6824,1.8284,1.961,2.0889,2.1826,2.1259,2.1681,2.2231,2.1687,2.0836,1.9835,1.8761,1.8524,1.8537,1.8537,1.9807,2.094,2.0721,2.3071,2.5092,0.0,0.0,2.6963,2.7012,2.709,2.7588,2.8848,2.834,2.8418,0.0,0.0,0.0,0.0,0.0,0.0,3.0166,0.0,3.0869,3.0889,3.0889,3.0693,3.0244,2.9805,2.9375,2.8955,2.8516,2.7871,2.7051,2.7021,2.6512,2.5674,2.5273,2.5106,2.5057,2.459,2.418,2.3789,2.3789,2.3535,2.3091,2.3091,2.3091,2.3091,2.3091,2.3135,2.3178,0.0,0.0,0.0,0.0,0.0,0.0,0.0,0.0,0.0,0.0,0.0,0.0,0.0,0.0,0.0,0.0,0.0,0.0,0.5962,0.6142,0.6537,0.7181,0.716,0.7244,0.7447,0.7375,0.7333,0.7415,0.7841,0.8124,0.8168,0.854,0.9326,1.0498,1.0924,1.1758,1.2883,1.2975,1.3158,1.3362,1.3073,1.3404,1.4004,1.3796,1.3939,1.4159,1.3474,1.3313,1.3796,0.0,0.0,0.0,0.0,2.1826,2.2516,2.3291,2.3903,2.4,2.2384,2.2164,2.1799,1.9388,1.8978,1.9145,1.9145,1.9303,1.9703,2.051,2.1382,2.2255,0.0,0.0,0.0,2.6914,2.8086,0.0,3.0244,3.0205,0.0,3.0185,0.0,2.9834,2.9736,2.9912,0.0,0.0,3.0303,3.0527,3.0869,3.0889,3.084,3.0723,2.9971,2.9512,2.9404,2.8662,2.8027,2.75,2.7168,2.6512,2.5674,2.5273,2.4893,2.458,2.4463,2.418,2.3789,2.3789,2.3535,2.3091,2.3091,2.3091,2.3091,2.3091,2.3637,2.4253,0.0,0.0,0.0,0.0,0.0,0.0,0.0,0.0,0.0,0.0,0.0,0.0,0.0,0.0,0.0,0.0,0.0,0.0,0.0,0.5755,0.5908,0.6149,0.6318,0.6478,0.663,0.6861,0.702,0.702,0.7197,0.7305,0.7305,0.737,0.7848,0.8748,0.871,0.9545,1.0927,1.076,1.1119,0.0,0.0,1.2547,1.3102,1.3462,1.3806,1.4026,1.3533,1.4216,0.0,0.0,0.0,2.1631,2.2256,2.2861,2.3564,2.4631,0.0,2.4627,2.3007,2.2612,2.2109,1.9704,1.9339,1.9459,1.9072,1.9289,1.943,1.9202,2.0362,0.0,0.0,0.0,0.0,0.0,0.0,0.0,2.957,2.9756,2.9941,0.0,3.0322,0.0,3.0156,3.0176,3.0283,0.0,3.0508,3.0615,3.0879,3.0889,3.0801,3.0596,2.9922,2.945,2.9014,2.8525,2.7988,2.7373,2.6943,2.6289,2.543,2.4795,2.4375,2.4131,0.0,2.3721,2.3506,2.3506,2.3359,2.3091,2.3091,2.3091,2.3091,2.3091,2.3507,2.3963,0.0,0.0,0.0,0.0,0.0,0.0,0.0,0.0,0.0,0.0,0.3842,0.4165,0.0,0.0,0.0,0.0,0.0,0.0,0.0,0.0,0.5871,0.5986,0.5993,0.6101,0.6296,0.6439,0.6511,0.6511,0.6759,0.6856,0.6859,0.698,0.7038,0.7038,0.7038,0.7687,0.8806,0.8935,0.9405,1.0216,1.1513,1.1808,1.1612,0.0,1.3626,1.366,1.366,0.0,0.0,0.0,2.0034,2.2285,2.3188,2.4033,2.4932,2.5771,2.5692,2.5083,2.3792,2.2949,2.1882,1.9945,1.9586,1.9526,1.8684,1.9351,1.9587,1.7757,0.0,2.1614,2.0277,2.2108,2.4033,2.4512,0.0,2.6592,2.8301,2.8545,2.9131,3.0703,3.0537,3.0449,3.085,3.0527,3.0459,3.0859,3.0889,3.0889,3.0889,3.0889,3.0654,3.0127,2.9707,2.9101,2.8301,2.8232,2.7803,2.7012,2.6592,2.5928,2.5086,2.4238,2.3838,2.3769,2.3286,2.3091,2.3091,2.3091,2.3091,2.3091,2.3091,2.3091,2.3091,2.3091,2.3222,2.3299,0.0,0.0,0.0,0.0,0.0,0.0,0.0,0.0,0.0,0.0,0.3754,0.3516,0.0,0.0,0.0,0.0,0.0,0.0,0.0,0.0,0.0,0.5986,0.5993,0.6101,0.6296,0.6439,0.6511,0.6511,0.6651,0.6742,0.6742,0.6766,0.6776,0.6776,0.6776,0.6902,0.7192,0.8014,0.8864,0.973,1.1084,1.2114,1.2929,1.3392,0.0,0.0,0.0,0.0,0.0,0.0,1.9938,2.3613,2.4509,2.5576,2.6728,2.7598,2.8033,2.7663,2.5267,2.4482,2.3676,2.0482,1.9586,1.9279,1.8637,1.8805,0.0,0.0,1.9896,2.1159,2.0633,2.2614,0.0,2.5333,0.0,0.0,0.0,0.0,3.0127,0.0,0.0,0.0,0.0,0.0,0.0,0.0,0.0,3.0889,3.0889,3.0889,3.0518,2.9707,2.9258,2.8799,2.8301,2.7949,2.7519,2.7012,2.6592,2.5928,2.5096,2.4541,2.4121,2.3769,2.3286,0.0,2.3091,2.3091,2.3091,2.3091,2.3091,2.3091,2.3091,2.3091,2.3714,2.4372,0.0,0.0,0.0,0.0,0.0,0.0,0.0,0.6207,0.5969,0.5123,0.3909,0.3572,0.4778,0.4327,0.4531,0.0,0.0,0.0,0.0,0.0,0.0,0.0,0.0,0.0,0.6409,0.6515,0.659,0.659,0.0,0.6776,0.6702,0.6702,0.6702,0.6698,0.6617,0.658,0.6658,0.7609,0.8633,0.9718,1.1067,1.2314,1.3427,0.0,0.0,0.0,0.0,0.0,0.0,0.0,1.917,2.2226,2.372,2.4991,2.6225,2.7616,2.8418,2.8277,2.5383,2.4837,2.4228,2.0719,1.9586,1.9189,1.8223,0.0,0.0,0.0,2.009,2.1615,2.0839,0.0,0.0,0.0,0.0,0.0,0.0,0.0,0.0,0.0,0.0,0.0,0.0,0.0,0.0,0.0,0.0,3.0889,3.0889,3.0459,3.001,2.9636,2.8935,2.8496,2.8291,2.7881,2.7441,2.7012,2.6357,2.5586,2.4717,2.4287,2.3857,2.3437,2.3188,2.3091,2.3091,2.3091,2.3091,2.3091,2.3091,2.3091,2.3091,2.3091,2.343,2.3844,0.0,0.0,0.0,0.0,0.0,0.0,0.6429,0.6426,0.6105,0.5259,0.4122,0.3704,0.4664,0.434,0.4549,0.0,0.0,0.0,0.0,0.0,0.0,0.0,0.0,0.0,0.0,0.0,0.0,0.6749,0.6837,0.0,0.0,0.0,0.0,0.0,0.6573,0.6542,0.6544,0.7477,0.8581,0.0,0.0,1.2522,0.0,0.0,0.0,0.0,0.0,0.0,0.0,0.0,1.7663,1.9524,2.151,2.3461,2.532,2.6874,2.815,2.8447,2.5791,2.5244,2.4667,2.1261,1.9866,1.8978,1.7842,1.8657,0.0,0.0,2.0368,2.2096,2.1235,0.0,0.0,0.0,0.0,0.0,0.0,0.0,0.0,0.0,0.0,0.0,0.0,0.0,0.0,0.0,0.0,3.0889,3.0889,3.0049,2.9626,2.9626,2.874,2.8291,2.8291,2.7783,2.7353,2.7002,2.6093,2.5323,2.4678,2.416,2.374,2.3354,2.3179,2.3091,2.3091,2.3091,2.3091,2.3091,2.3091,2.3091,2.3091,2.3091,2.3091,2.3091,0.0,0.0,0.0,0.0,0.0,0.0,0.6317,0.6495,0.6349,0.5498,0.4304,0.3614,0.3744,0.2645,0.2665,0.0,0.0,0.0,0.0,0.0,0.0,0.0,0.0,0.0,0.0,0.0,0.0,0.6866,0.6783,0.0,0.0,0.0,0.0,0.0,0.0,0.6603,0.6558,0.7691,0.0,0.0,0.0,0.0,0.0,0.0,0.0,0.0,0.0,0.0,0.0,0.0,0.0,1.585,1.7795,2.1516,2.531,2.5819,0.0,0.0,2.7864,2.6712,2.5399,2.3005,2.0662,1.8724,1.7796,0.0,0.0,1.9322,2.0725,2.2019,2.2304,2.1586,2.1604,0.0,0.0,2.3985,0.0,0.0,0.0,0.0,0.0,0.0,0.0,0.0,0.0,0.0,0.0,3.0889,3.0889,3.0049,2.9626,2.9626,2.874,2.8291,2.8291,2.748,2.7051,2.7002,2.6093,2.5645,2.5538,2.4746,2.4336,2.4258,2.3432,2.3091,0.0,2.3091,2.3091,2.3091,2.3091,2.3091,2.3091,2.3091,2.3091,2.3091,0.0,0.0,0.0,0.0,0.0,0.0,0.662,0.6685,0.616,0.4646,0.3939,0.305,0.1598,0.1622,0.2545,0.4658,0.4835,0.0,0.0,0.0,0.0,0.0,0.0,0.0,0.0,0.0,0.8155,0.8239,0.8315,0.0,0.0,0.0,0.0,0.0,0.0,0.0,0.6788,0.7773,0.0,0.0,0.0,0.0,0.0,0.0,0.0,0.0,0.0,0.0,0.0,0.0,0.0,0.0,1.5627,1.8148,0.0,0.0,2.6298,2.7475,2.6255,2.5856,2.5,2.1987,1.9761,1.8257,1.7702,0.0,1.8229,1.9265,2.0386,2.1462,2.2353,2.2308,2.2326,2.2911,0.0,0.0,0.0,0.0,0.0,0.0,0.0,0.0,0.0,0.0,0.0,0.0,0.0,3.0771,3.0488,2.9893,2.9453,2.9189,2.8603,2.8291,2.8291,2.7441,2.7012,2.7002,2.6093,2.5547,2.5312,2.4697,2.4277,2.4004,2.3354,2.3091,0.0,2.3091,2.3091,2.3047,2.2306,2.2031,2.2031,2.2031,2.2031,2.2129,0.0,0.0,0.0,0.0,0.0,0.6484,0.6807,0.6807,0.6165,0.4475,0.3858,0.2972,0.1284,0.157,0.2742,0.4988,0.5047,0.0,0.0,0.0,0.0,0.0,0.0,0.0,0.0,0.0,0.9567,0.9321,0.9439,0.8859,0.0,0.0,0.0,0.0,0.0,0.0,0.0,0.0,0.0,0.0,0.0,0.0,0.0,0.0,0.0,0.0,0.0,0.0,0.0,0.0,0.0,0.0,0.0,0.0,0.0,0.0,2.4584,2.5946,2.5244,2.5219,2.4668,2.1575,1.9671,1.8438,0.0,0.0,1.8159,1.9569,2.0289,2.1108,2.2442,2.252,2.2438,2.2639,0.0,2.3019,0.0,0.0,0.0,0.0,0.0,0.0,0.0,0.0,0.0,0.0,0.0,3.0488,3.0039,2.9609,2.9238,2.8926,2.8506,2.8291,2.8291,2.7441,2.7012,2.7002,2.6093,2.5566,2.5254,2.4805,2.4375,2.3945,2.3516,2.3218,0.0,2.3091,2.3091,2.3003,2.1756,2.1525,2.18,2.1426,2.1525,2.1943,0.0,0.0,0.0,0.0,0.0,0.6562,0.6678,0.6831,0.6549,0.5501,0.4328,0.362,0.3742,0.271,0.3041,0.5588,0.5377,0.0,0.0,0.0,0.0,0.0,0.0,0.0,0.0,0.0,1.0656,0.9801,0.9614,0.8918,0.7804,0.7662,0.7516,0.7415,0.0,0.0,0.0,0.0,0.0,0.0,0.0,0.0,0.0,0.0,0.0,0.0,0.0,0.0,0.0,0.0,0.0,0.0,0.0,1.5008,1.5718,0.0,2.2675,2.5316,2.5784,2.5379,2.4472,2.2612,2.1037,1.9612,0.0,0.0,1.9698,2.0535,2.0672,2.119,2.2785,2.1792,2.1252,2.2838,2.212,0.0,0.0,0.0,0.0,0.0,0.0,0.0,0.0,0.0,0.0,0.0,3.0459,0.0,2.9655,2.916,2.8926,2.8916,2.8506,2.8291,2.8291,2.7441,2.7012,2.7002,2.6093,2.5693,2.5664,2.5273,2.4824,2.4385,2.3965,2.3535,0.0,2.3091,2.3091,2.3003,2.1756,2.2031,2.295,2.1747,2.2076,2.3091,0.0,0.0,0.0,0.0,0.0,0.0,0.6661,0.6026,0.5188,0.4296,0.3821,0.3296,0.2513,0.3654,0.4789,0.5593,0.5524,0.0,0.0,0.0,0.0,0.0,0.0,0.0,0.0,1.2271,1.242,1.2261,1.1497,1.0522,0.9274,0.8242,0.7719,0.7668,0.757,0.7417,0.0,0.0,0.0,0.0,0.0,0.0,0.0,0.0,0.0,0.0,0.0,0.0,0.0,0.0,0.0,0.0,0.0,0.0,0.0,1.9131,2.0763,2.1638,2.2947,2.321,2.293,2.2045,2.1043,2.0168,1.9835,0.0,1.9819,2.0909,2.1112,2.1511,2.2843,2.2669,2.2524,2.3028,2.2775,0.0,0.0,0.0,0.0,0.0,0.0,0.0,0.0,0.0,0.0,0.0,3.0459,3.001,2.959,2.915,2.8789,2.8496,2.8359,2.8291,2.8291,2.7441,2.7012,2.7002,2.6093,2.5693,2.5664,2.4961,2.4551,2.4375,2.3662,2.3227,2.3091,2.3091,2.3091,2.3003,2.1756,2.1525,2.18,2.1436,2.1525,2.1987,0.0,0.0,0.0,0.0,0.0,0.0,0.6664,0.6073,0.5413,0.4919,0.4452,0.4093,0.3932,0.4958,0.5894,0.637,0.6449,0.0,0.0,0.0,0.0,0.0,0.0,0.0,1.2907,1.354,1.3802,1.3584,1.3071,1.1825,0.9998,0.917,0.845,0.7807,0.7719,0.7597,0.0,0.0,0.0,0.0,0.0,0.0,1.5645,0.0,0.0,0.0,0.0,0.0,0.0,0.0,0.0,0.0,0.0,0.0,0.0,0.0,1.9289,1.9749,2.1728,2.252,2.257,2.1732,2.1329,0.0,0.0,0.0,2.0496,2.1519,2.1513,2.1667,2.2862,2.3091,2.3091,2.3091,2.3091,0.0,0.0,0.0,0.0,0.0,0.0,0.0,0.0,0.0,0.0,0.0,3.0215,2.9775,2.9346,2.8916,2.8564,2.8301,2.8291,2.8291,2.8291,2.7441,2.7012,2.7002,2.6093,2.5693,2.5664,2.499,2.457,2.4375,2.3682,2.3247,0.0,2.3091,2.3091,2.3003,2.1756,2.1569,2.1933,2.148,2.1569,2.2076,0.0,0.0,0.0,0.0,0.0,0.0,0.0,0.6609,0.6631,0.6734,0.5803,0.5673,0.7096,0.6461,0.6448,0.7684,0.7814,0.0,0.0,0.0,0.0,0.0,0.0,0.0,1.3296,1.443,1.4701,1.4022,1.4211,1.2827,1.0149,1.0321,0.9474,0.7828,0.7828,0.7753,0.7732,0.918,1.0592,1.2042,1.3327,1.4477,0.0,0.0,0.0,0.0,0.0,0.0,0.0,0.0,0.0,0.0,0.0,0.0,0.0,0.0,0.0,0.0,0.0,2.297,2.3017,2.1753,2.1813,2.2046,2.1338,0.0,0.0,0.0,2.1907,2.1719,2.2906,2.3091,2.3091,2.3091,0.0,0.0,0.0,0.0,0.0,0.0,0.0,0.0,0.0,0.0,0.0,3.0234,2.9814,2.9385,2.8945,2.8525,2.8291,2.8291,2.8291,2.8291,2.8291,2.7441,2.7012,2.7002,2.6093,2.5674,2.5625,2.5225,2.4785,0.0,2.3926,2.3516,2.3091,2.3091,2.3091,2.3003,2.1845,2.212,2.296,2.1845,2.2129,2.3091,0.0,0.0,0.0,0.0,0.0,0.0,0.0,0.0,0.0,0.0,0.5395,0.5471,0.5841,0.6645,0.7325,0.0,0.0,0.0,0.0,0.0,0.0,0.0,0.0,0.0,1.454,1.5041,1.5325,1.5343,1.4424,1.3109,1.1414,1.0533,0.9331,0.7934,0.7934,0.7917,0.7979,0.9284,1.0592,1.1978,1.3087,1.4257,0.0,0.0,0.0,0.0,1.5319,1.5683,0.0,0.0,0.0,0.0,0.0,0.0,0.0,0.0,1.9935,1.9862,2.197,0.0,2.1952,2.2518,2.2567,2.237,0.0,0.0,0.0,0.0,0.0,0.0,0.0,0.0,0.0,0.0,0.0,0.0,0.0,0.0,0.0,0.0,0.0,0.0,0.0,0.0,0.0,3.0234,2.9814,2.9385,2.8945,2.8525,2.8291,2.8291,2.8291,2.8291,2.8291,2.7441,2.7012,2.7002,2.6093,2.5557,2.5215,2.4766,2.4336,2.3916,2.3477,2.3188,2.3091,2.3091,2.3091,2.3047,2.2775,2.2862,2.3057,2.2775,2.2862,2.3091,0.0,0.0,0.0,0.0,0.0,0.0,0.0,0.0,0.0,0.0,0.6031,0.6166,0.6284,0.7085,0.7628,0.0,0.0,0.0,0.0,0.0,0.0,0.0,0.0,1.2434,1.5112,1.5317,1.5538,1.5784,1.5274,1.3953,1.1901,1.1363,0.9983,0.7988,0.7988,0.8333,0.8966,0.9596,1.0678,1.1973,1.2978,0.0,0.0,0.0,0.0,0.0,1.626,1.6764,0.0,1.7859,1.843,1.8908,0.0,0.0,0.0,0.0,2.079,2.0857,2.168,2.1887,2.2026,2.2911,2.2779,2.251,2.251,0.0,0.0,0.0,0.0,0.0,0.0,0.0,0.0,0.0,0.0,0.0,0.0,0.0,0.0,0.0,0.0,0.0,0.0,0.0,3.0625,2.9961,2.9697,2.9297,2.8662,2.8418,2.8291,2.8291,2.8291,2.8291,2.8291,2.7441,2.7012,2.7002,2.6093,2.5605,2.5352,2.4707,2.4287,2.4043,2.3364,2.3091,2.3091,2.3091,2.3091,2.3091,2.3091,2.3091,2.3091,2.3091,2.3091,2.3091,0.0,0.0,0.0,0.0,0.0,0.0,0.0,0.0,0.0,0.0,0.0,0.0,0.0,0.0,0.0,0.0,0.0,0.0,0.0,0.0,0.0,0.0,1.1318,1.2573,1.5278,1.5378,1.5538,1.5784,1.6079,1.4837,1.2193,1.2488,1.1186,0.8577,0.8577,0.9118,0.9998,0.9998,1.0632,1.1682,1.2689,0.0,0.0,0.0,0.0,0.0,0.0,0.0,0.0,1.9204,1.9844,2.0605,2.0605,0.0,0.0,0.0,0.0,0.0,2.1396,2.1979,2.2702,2.2852,2.2676,2.2402,2.2334,0.0,0.0,0.0,0.0,0.0,0.0,0.0,0.0,0.0,0.0,0.0,0.0,0.0,0.0,0.0,0.0,0.0,0.0,3.0752,3.0449,2.9629,2.9512,2.9131,2.833,2.8291,2.8291,2.8291,2.8291,2.8262,2.8193,2.7412,2.7012,2.7002,2.6093,2.5654,2.5557,2.4795,2.4385,2.4277,0.0,0.0,2.3091,2.3091,2.3091,2.3091,2.3091,2.3091,2.3091,2.3091,2.3091,2.3091,0.0,0.0,0.0,0.0,0.0,0.0,0.0,0.0,0.0,0.0,0.0,0.0,0.0,0.0,0.0,0.0,0.0,0.0,0.0,0.0,0.0,1.1699,1.1485,1.2489,1.503,1.5271,1.5538,1.5784,1.5872,1.5089,1.3584,1.3624,1.2802,1.1312,1.1312,1.0828,0.9998,0.9998,1.0096,1.0373,1.1406,0.0,0.0,0.0,0.0,0.0,0.0,0.0,0.0,2.004,2.044,2.0605,2.0605,0.0,0.0,0.0,0.0,0.0,2.1602,2.2533,2.3154,2.23,2.2031,2.1885,2.1473,0.0,0.0,0.0,0.0,0.0,0.0,0.0,0.0,0.0,0.0,0.0,0.0,0.0,0.0,0.0,0.0,0.0,0.0,3.0098,3.0098,2.9665,2.9228,2.8809,2.832,2.8291,2.8291,2.8291,2.8291,2.8125,2.7816,2.7266,2.7012,2.7002,2.6093,2.5537,2.5146,2.4648,2.4219,2.3857,0.0,2.3091,2.3091,2.3091,2.3091,2.3091,2.3091,2.3091,2.3091,2.3091,2.3091,2.3091,0.0,0.0,0.0,0.0,0.0,0.0,0.0,0.0,0.0,0.0,0.0,0.0,0.0,0.0,0.0,0.0,0.0,0.0,0.0,0.0,0.9121,1.1571,1.1514,1.2991,1.6377,1.593,1.602,1.681,1.6157,1.5146,1.3872,1.3151,1.2866,1.2963,1.2237,1.1989,1.2032,1.0583,1.0823,1.2065,0.0,0.0,0.0,0.0,0.0,0.0,0.0,0.0,0.0,0.0,2.0605,2.0605,2.0605,0.0,0.0,0.0,0.0,0.0,2.1163,2.2271,2.324,2.2582,2.3026,2.3501,2.329,2.2907,0.0,0.0,0.0,0.0,0.0,0.0,0.0,0.0,0.0,0.0,0.0,0.0,0.0,0.0,0.0,0.0,3.106,3.0568,2.9922,2.9268,2.9033,2.874,2.831,2.8291,2.8291,2.8291,2.8291,2.8096,2.7718,2.7236,2.6904,2.667,2.5986,2.5508,2.5096,2.4619,2.4189,2.3769,0.0,2.3091,2.3091,2.3091,2.3091,2.3091,2.3091,2.3091,2.3091,2.3091,2.3091,2.3091,0.0,0.0,0.0,0.0,0.0,0.0,0.0,0.0,0.0,0.0,0.0,0.0,0.0,0.0,0.0,0.0,0.0,0.0,0.0,0.7938,0.8916,1.1063,1.1439,1.3473,1.7511,1.6642,1.6631,1.7692,1.6709,1.5568,1.4316,1.3301,1.3349,1.4316,1.3253,1.3204,1.3776,1.1745,1.1891,1.3327,0.0,0.0,0.0,0.0,0.0,0.0,0.0,0.0,0.0,0.0,0.0,0.0,0.0,0.0,0.0,2.0605,2.081,2.1065,2.1085,2.23,2.3545,2.3551,2.4161,2.4859,2.501,2.4651,0.0,0.0,0.0,0.0,0.0,0.0,0.0,0.0,0.0,0.0,0.0,0.0,0.0,0.0,0.0,3.0812,3.2287,3.0882,2.9629,2.8965,2.8828,2.8633,2.831,2.8291,2.8291,2.8291,2.8193,2.7939,2.7519,2.709,2.6709,2.6387,2.5947,2.5557,2.5205,2.4668,2.4238,2.3906,2.3325,2.3091,2.3091,2.3091,2.3091,2.3091,2.3091,2.3091,2.3091,2.3091,2.3091,2.3091,0.0,0.0,0.0,0.0,0.0,0.0,0.0,0.0,0.0,0.0,0.0,0.0,0.0,0.0,0.0,0.0,0.0,0.0,0.0,0.7828,0.8511,1.0017,1.1239,1.353,1.7153,1.7153,1.731,1.7692,1.7598,1.6897,1.5683,1.554,1.5581,1.5683,1.554,1.4902,1.3872,1.368,1.3006,1.2139,1.3273,0.0,0.0,0.0,0.0,0.0,0.0,0.0,0.0,0.0,0.0,0.0,0.0,0.0,2.0605,2.0605,2.0625,2.0918,2.2195,2.3377,2.4412,2.5212,2.4814,2.4406,2.502,2.4738,0.0,2.7561,0.0,0.0,0.0,0.0,0.0,0.0,0.0,0.0,0.0,0.0,0.0,0.0,3.334,3.2232,3.2374,3.0329,2.8984,2.8926,2.8555,2.833,2.8291,2.8291,2.8291,2.8291,2.792,2.75,2.707,2.665,2.6416,2.6387,2.5947,2.5674,2.5615,2.4758,2.4394,2.4326,2.3452,2.3091,2.3091,2.3091,2.3091,2.3091,2.3091,2.3091,2.3091,2.3091,2.3091,2.3091,0.0,0.0,0.0,0.0,0.0,0.0,0.0,0.0,0.0,0.0,0.0,0.7924,0.7982,0.0,0.0,0.0,0.0,0.0,0.0,0.7763,0.8412,0.982,1.1196,1.3208,1.5944,1.622,1.6768,1.7692,1.6897,1.6244,1.5784,1.5784,1.5784,1.5784,1.5784,1.5534,1.5045,1.4214,1.4076,1.4322,1.4022,1.4048,0.0,0.0,0.0,0.0,0.0,0.0,0.0,0.0,2.038,2.0605,2.0605,2.0605,2.0605,2.0605,2.0605,2.0858,2.1952,2.3264,2.4623,2.5885,2.6439,0.0,0.0,2.7313,2.7645,2.9391,2.9496,0.0,0.0,0.0,0.0,0.0,0.0,0.0,0.0,0.0,0.0,3.5068,3.3265,3.2155,3.2831,3.0478,2.8809,2.8555,2.8389,2.8291,2.8291,2.8291,2.8291,2.8291,2.7933,2.7461,2.7021,2.6602,2.625,2.5977,2.5762,2.5401,2.4855,2.457,2.4075,2.3559,2.3237,2.3091,2.3091,2.3091,2.3091,2.3091,2.3091,2.3091,2.3091,2.3091,2.3091,2.3091,0.0,0.0,0.0,0.0,0.0,0.0,0.0,0.0,0.7706,0.0,0.0,0.0,0.0,0.7777,0.0,0.0,0.0,0.0,0.7516,0.7662,0.8144,0.9144,1.0513,1.1987,1.3531,1.4609,1.5946,1.752,1.6385,1.5784,1.5784,1.5784,1.5784,1.5784,1.5784,1.5784,1.573,1.476,1.4921,1.5724,1.4754,1.4638,0.0,0.0,0.0,0.0,0.0,0.0,0.0,0.0,1.9535,1.9927,2.0284,2.04,2.04,2.04,2.0582,2.0989,2.1787,2.3121,2.4657,2.6177,0.0,0.0,2.9176,2.9289,2.9566,3.0859,3.1399,0.0,0.0,0.0,0.0,0.0,0.0,0.0,0.0,0.0,3.4781,3.5961,3.4125,3.2864,3.3178,3.0874,2.9059,2.8364,2.8291,2.8232,2.8105,2.8096,2.8037,2.7891,2.748,2.7119,2.6816,2.6396,2.6035,2.5693,2.5596,2.5205,2.4619,2.4482,2.4023,2.3286,2.3149,2.3091,2.3091,2.3091,2.3091,2.3091,2.3091,2.3091,2.3091,2.3091,2.3091,2.3091,0.0,0.0,0.0,0.0,0.0,0.0,0.0,0.0,0.7706,0.7948,0.7906,0.0,0.0,0.0,0.0,0.0,0.0,0.0,0.7405,0.7512,0.7662,0.7801,0.9096,0.981,0.981,1.2371,1.4844,1.7206,1.6273,1.5784,1.5778,1.5784,1.5784,1.5778,1.5784,1.5778,1.5805,1.5518,1.5558,1.5792,1.5504,1.5263,1.5008,0.0,0.0,0.0,0.0,0.0,0.0,0.0,1.8075,1.8477,1.9563,1.9874,1.9912,1.9912,2.0518,2.1313,2.1858,2.3087,2.4582,0.0,0.0,0.0,3.0105,3.0193,3.0256,3.1876,0.0,3.2215,3.2215,0.0,0.0,0.0,0.0,0.0,0.0,0.0,3.7374,3.7927,3.6306,3.466,3.335,3.1465,2.9765,2.8398,2.8291,2.8105,2.7738,2.7718,2.7461,2.7021,2.6602,2.6387,2.6387,2.5908,2.5693,2.5684,2.5283,2.5116,2.5096,2.4609,2.418,2.376,2.3286,2.3091,2.3091,2.3091,2.3091,2.3091,2.3091,2.3091,2.3091,2.3091,2.3091,2.3091,0.0,0.0,0.0,0.0,0.0,0.0,0.0,0.0,0.778,0.7868,0.7884,0.0,0.0,0.0,0.0,0.0,0.0,0.0,0.7214,0.7353,0.7506,0.7655,0.9037,0.9714,0.9575,1.2172,1.4381,1.6241,1.592,1.5678,1.5531,1.5684,1.5718,1.5531,1.5738,1.6121,1.6631,1.6538,1.6469,1.6346,1.6297,1.5602,1.4656,0.0,0.0,0.0,0.0,0.0,0.0,0.0,0.0,0.0,1.8739,1.9374,2.0025,2.0629,2.0989,2.1532,2.3109,2.4119,0.0,0.0,0.0,0.0,0.0,3.0193,0.0,0.0,0.0,3.2215,0.0,0.0,0.0,3.3809,3.4964,3.5981,3.6581,3.6656,3.6719,3.6883,3.5551,3.4501,3.4106,3.1772,3.012,2.9765,2.8857,2.8105,2.7738,2.7718,2.7461,2.7021,2.6602,2.6387,2.6387,2.5908,2.5693,2.5684,2.5283,2.4912,2.459,2.417,2.374,2.3276,2.3149,2.3091,2.3091,2.3091,2.3091,2.3091,2.3091,2.3091,2.3091,2.3091,2.3091,2.3091,0.0,0.0,0.0,0.0,0.0,0.0,0.8531,0.8331,0.8168,0.7767,0.7807,0.7851,0.0,0.0,0.0,0.0,0.0,0.0,0.7238,0.7319,0.7441,0.7594,0.843,0.9362,1.033,1.1802,1.3566,1.5658,1.5658,1.5504,1.5231,1.5524,1.5784,1.612,1.6434,1.6917,1.7501,1.7546,1.7352,1.7008,1.7051,1.629,1.5145,0.0,0.0,0.0,0.0,0.0,0.0,0.0,0.0,0.0,1.8089,1.872,1.9266,2.0575,2.1216,2.1805,2.3232,0.0,0.0,0.0,0.0,0.0,0.0,0.0,0.0,0.0,0.0,0.0,0.0,0.0,0.0,3.4424,3.529,3.5981,3.6367,3.6405,3.6405,3.6405,3.5667,3.4897,3.4137,3.2101,3.0523,2.9782,2.8527,2.7598,2.7187,2.7158,2.6963,2.6523,2.6084,2.5869,2.5869,2.5605,2.5391,2.5157,2.4941,2.459,2.416,2.3906,2.3555,2.3091,2.3091,2.3091,2.3091,2.3091,2.3091,2.3091,2.3091,2.3091,2.3091,2.3091,2.3091,2.3091,0.0,0.0,1.1992,1.0939,0.0,0.0,0.9489,0.9149,0.876,0.77,0.76,0.7658,0.0,0.0,0.0,0.7773,0.0,0.0,0.0,0.7409,0.7441,0.7594,0.7628,0.8871,1.1495,1.1378,1.2607,1.5167,1.5311,1.5249,1.5102,1.5427,1.6162,1.7266,1.7651,1.7967,1.8282,1.8435,1.8169,1.7622,1.7813,1.7161,1.609,1.6119,0.0,0.0,0.0,0.0,0.0,0.0,0.0,0.0,1.7406,1.789,1.8128,1.9965,2.1212,2.2128,2.2671,0.0,0.0,0.0,0.0,0.0,0.0,0.0,0.0,0.0,0.0,0.0,0.0,0.0,0.0,3.5257,3.5931,3.6355,3.6405,3.6405,3.6405,3.6405,3.6367,3.5633,3.3863,3.2557,3.1013,2.9112,2.7885,2.6927,2.6416,2.6387,2.6182,2.5703,2.5303,2.5116,2.5116,2.5077,2.4805,2.4414,2.4375,2.416,2.3789,2.375,2.3516,2.3091,2.3091,2.3091,2.3091,2.3091,2.3091,2.3091,2.3091,2.3091,2.3091,2.3091,2.3091,2.3091,0.0,0.0,1.2264,1.2211,0.0,0.0,0.9581,0.9363,0.8953,0.7629,0.7624,0.7689,0.7489,0.7573,0.0,0.7478,0.7453,0.0,0.0,0.7302,0.7441,0.7594,0.7821,0.8686,1.0325,1.1077,1.2122,1.3516,1.4585,1.5335,1.5886,1.6498,1.7114,1.7717,1.8302,1.8593,1.8603,1.9032,1.8593,1.7749,1.8435,1.7661,1.6062,1.6421,1.5729,0.0,0.0,0.0,0.0,0.0,0.0,0.0,1.5684,1.6974,1.8379,1.9492,2.0822,2.2217,0.0,2.4731,0.0,0.0,0.0,0.0,0.0,0.0,0.0,0.0,0.0,0.0,0.0,0.0,0.0,3.4788,3.532,3.5868,3.6342,3.6405,3.6405,3.6405,3.5981,3.5528,3.5112,3.3491,3.1908,3.0548,2.918,2.7833,2.6456,2.6387,2.6182,2.5703,2.5303,2.5116,2.5116,2.4727,2.4512,2.4414,2.4082,2.3877,2.3779,2.3437,2.3188,2.3091,2.3091,2.3091,2.3091,2.3091,2.3091,2.3091,2.3091,2.3091,2.3091,2.3091,2.3091,2.3091,0.0,0.0,0.0,0.0,0.0,0.0,0.0,0.0,0.9855,0.8386,0.7937,0.7651,0.7499,0.7553,0.0,0.0,0.746,0.0,0.0,0.7258,0.7363,0.759,0.8459,0.9514,1.0676,1.1697,1.2979,1.4456,1.4861,1.5354,1.5923,1.6977,1.7892,1.8687,1.8948,1.9177,1.931,1.9524,1.9181,1.8499,1.8957,1.833,1.7115,1.7179,1.6363,1.5281,1.5281,0.0,0.0,0.0,0.0,0.0,0.0,0.0,1.7133,1.9042,2.0193,2.1382,0.0,0.0,0.0,0.0,0.0,0.0,0.0,0.0,0.0,0.0,0.0,0.0,0.0,0.0,0.0,3.4625,3.4919,3.5295,3.5893,3.5968,3.6069,3.638,3.5881,3.5395,3.5132,3.3497,3.204,3.1125,2.9839,2.8742,2.7908,2.7088,2.6539,2.6297,2.5112,2.4463,2.4463,2.4228,2.4014,2.3799,2.4306,2.475,2.5035,2.3704,2.3091,2.3091,2.3091,2.3091,2.3091,2.3091,2.3091,2.3091,2.3091,2.342,2.3844,2.3299,2.343,2.3844,0.0,0.0,0.0,0.0,0.0,0.0,0.0,0.0,0.0,0.9309,0.8206,0.755,0.7522,0.7499,0.7472,0.0,0.0,0.0,0.0,0.0,0.0,0.7621,0.9087,1.0369,1.146,1.2363,1.3875,1.6015,1.5531,1.5574,1.6188,1.7408,1.8581,1.9668,1.9611,1.9638,1.966,1.9775,1.9561,1.918,1.9258,1.8917,1.8317,1.7989,1.7132,1.6113,1.6113,1.6277,1.635,1.5473,0.0,0.0,0.0,0.0,1.5919,1.8183,1.9307,2.0333,0.0,0.0,0.0,0.0,0.0,0.0,0.0,0.0,0.0,0.0,0.0,0.0,0.0,0.0,0.0,3.4474,3.4575,3.4731,3.5282,3.5445,3.5633,3.6044,3.568,3.5107,3.45,3.2995,3.1803,3.1128,3.0052,2.9364,2.9272,2.7691,2.677,2.677,2.5032,2.4093,2.4093,2.4014,2.3796,2.343,2.4479,2.5433,2.6141,2.4264,2.3507,2.3681,2.3474,2.3387,2.3387,2.3178,2.3222,2.3387,2.3178,2.393,2.4967,2.38,2.4006,2.4702,0.0,0.0,0.0,0.0,0.0,0.0,0.0,0.0,0.0,0.0,0.8106,0.7353,0.7173,0.7048,0.6963,0.6834,0.6926,0.6987,0.6987,0.0,0.0,0.777,0.8824,1.0037,1.145,1.1948,1.3308,1.5563,1.5921,1.6685,1.7978,1.8572,1.9212,1.9869,2.0285,1.981,1.8802,1.9209,1.9121,1.8724,1.9131,1.8983,1.854,1.8492,1.7649,1.6501,1.6501,1.6186,1.5729,1.558,1.598,0.0,0.0,0.0,1.6839,1.6078,1.7665,1.9846,0.0,0.0,0.0,0.0,0.0,0.0,0.0,0.0,0.0,0.0,0.0,0.0,0.0,0.0,0.0,3.3834,3.401,3.4198,3.4705,3.5194,3.5345,3.4989,3.4876,3.4424,3.3395,3.2639,3.1742,3.0588,2.9945,2.9326,2.8746,2.7117,2.6208,2.6208,2.5519,2.5205,2.5205,2.4843,2.4647,2.4542,2.3774,2.3991,2.4999,2.4713,2.5126,2.5975,2.4999,2.4585,2.45,2.3507,2.3671,2.4457,2.3474,2.4392,2.6141,2.4999,2.466,2.4914,0.0,0.0,0.0,0.0,0.0,0.0,0.0,0.0,0.0,0.0,0.0,0.9003,0.8208,0.8039,0.7679,0.676,0.6841,0.6886,0.6886,0.7051,0.7255,0.7553,0.9325,1.0488,1.087,1.2429,1.4082,1.5889,1.5883,1.7012,1.9212,1.9174,1.9573,2.0273,2.0225,1.9756,1.8994,1.8945,1.8783,1.8598,1.8584,1.8594,1.8578,1.8344,1.7914,1.7389,1.7389,1.7339,1.7198,1.6584,1.6902,1.7372,1.6037,0.0,0.0,0.0,0.0,0.0,0.0,0.0,0.0,0.0,0.0,0.0,0.0,0.0,0.0,0.0,0.0,0.0,0.0,0.0,0.0,0.0,3.3219,3.3633,3.4186,3.4462,3.465,3.4668,3.4449,3.4073,3.3583,3.2729,3.1992,3.146,3.0915,3.0499,3.0168,2.8599,2.7685,2.7685,2.6578,2.5998,2.5998,2.5822,2.6036,2.6644,2.6149,2.6491,2.7614,2.7614,2.7209,2.6431,2.5294,2.4787,2.4702,2.3551,2.3757,2.4745,2.4253,2.542,2.7279,2.6171,2.6119,2.6644,0.0,0.0,0.0,0.0,0.0,0.0,0.0,0.0,0.0,0.0,0.0,0.0,0.9352,0.0,0.0,0.0,0.7092,0.7077,0.6868,0.6829,0.7004,0.7299,0.9615,1.077,1.0409,1.2692,1.4593,1.605,1.5696,1.6975,1.9746,1.9434,1.9783,2.0586,2.0107,1.9678,1.9258,1.8783,1.8666,1.8724,1.8223,1.8227,1.8559,1.813,1.8008,1.8008,1.8008,1.8178,1.8337,0.0,0.0,1.8141,1.6826,1.6887,0.0,0.0,0.0,0.0,0.0,0.0,0.0,0.0,0.0,0.0,0.0,0.0,0.0,0.0,0.0,0.0,0.0,0.0,0.0,0.0,3.2521,3.2842,3.3395,3.3596,3.3847,3.4261,3.3935,3.3571,3.3294,3.2378,3.1813,3.1813,3.1298,3.1047,3.1185,2.9602,2.8719,2.8719,2.7516,2.6924,2.6924,2.6924,2.7168,2.7683,2.7683,2.8267,2.9365,2.9365,2.8621,2.7261,2.6119,2.5493,2.5168,2.4307,2.4296,2.483,2.5126,2.6408,2.8004,2.7197,2.7238,2.7602,0.0,0.0,0.0,0.0,0.0,0.0,0.0,0.0,0.0,0.0,0.0,0.0,1.0134,0.9982,0.9282,0.788,0.7855,0.7592,0.6743,0.6712,0.6844,0.7095,0.9231,0.0,1.0399,1.2292,1.4047,1.5614,1.5361,1.6616,1.9316,1.9297,1.9783,2.0586,2.0107,1.9678,1.9258,1.8783,1.8877,1.918,1.835,1.8227,1.8559,1.813,1.8008,1.8008,1.8008,0.0,0.0,0.0,0.0,0.0,0.0,0.0,0.0,0.0,0.0,0.0,0.0,0.0,0.0,0.0,0.0,0.0,0.0,0.0,0.0,0.0,0.0,0.0,0.0,0.0,0.0,0.0,3.206,3.1675,3.2227,3.2767,3.3174,3.3156,3.3174,3.2747,3.1625,3.1022,3.0696,3.0696,3.0193,3.0105,3.062,2.9055,2.8131,2.8131,2.8068,2.8004,2.8004,2.8004,2.7522,2.6595,2.6595,2.7168,2.8176,2.8176,2.8727,2.9585,2.8426,2.736,2.6389,2.6348,2.5724,2.4914,2.5975,2.7116,2.8096,2.8056,2.7412,2.6719,0.0,0.0,0.0,0.0,0.0,0.0,0.0,0.0,0.0,0.0,0.0,0.0,0.0,1.0878,1.0322,0.888,0.8794,0.8728,0.8529,0.8431,0.8182,0.78,1.0028,1.0778,0.9852,1.2034,1.361,1.4384,1.4944,1.6137,1.795,1.8572,1.9326,2.0156,2.0273,2.0098,1.9695,1.9823,2.0042,2.0221,1.9845,1.9972,2.0325,1.9865,1.9299,1.8811,0.0,0.0,0.0,0.0,0.0,0.0,0.0,0.0,0.0,0.0,0.0,0.0,0.0,0.0,0.0,0.0,0.0,0.0,0.0,0.0,0.0,0.0,0.0,0.0,0.0,0.0,0.0,0.0,0.0,3.1461,3.165,3.1863,3.2127,3.2478,3.2215,3.1976,3.1926,3.1135,3.062,3.062,3.0105,2.988,3.008,2.9516,2.9197,2.9197,2.9197,2.9197,2.9197,2.9197,2.8988,2.8633,2.8633,2.8831,2.9197,2.9197,2.9404,2.9792,2.9365,2.8171,2.6431,2.5714,2.5588,2.5933,2.6348,2.7168,2.8176,2.8937,2.849,2.7562,0.0,0.0,0.0,1.4168,0.0,1.3573,1.3473,1.3247,1.3053,1.3053,0.0,0.0,0.0,0.0,1.1443,0.9938,0.9485,0.9319,0.9421,0.9339,0.9111,0.8662,1.0603,1.1175,1.005,1.2172,1.3466,1.3709,1.4784,1.5973,1.7216,1.8164,1.8978,1.9717,2.0,2.0238,2.0349,2.0514,2.085,2.1185,2.0753,2.1015,2.1621,2.106,0.0,0.0,0.0,0.0,0.0,0.0,0.0,0.0,0.0,0.0,0.0,0.0,0.0,0.0,0.0,0.0,0.0,0.0,0.0,0.0,0.0,0.0,0.0,0.0,0.0,0.0,0.0,0.0,0.0,0.0,0.0,3.0922,3.111,3.1135,3.1336,3.1876,3.1461,3.1273,3.1637,3.0871,3.0331,3.0331,2.9993,0.0,2.9792,2.9792,2.9792,2.9792,2.9792,2.9792,2.9792,2.9792,2.9792,2.9792,2.9792,2.9792,2.9792,2.9792,2.9792,2.9792,2.9792,2.8752,2.6964,2.6202,2.5911,2.5964,2.6348,2.6707,2.7186,2.8688,2.8267,2.7064,1.273,1.3667,1.4429,1.4135,1.3834,1.3493,1.3253,1.2978,1.277,1.2784,0.0,0.0,0.0,0.0,0.0,1.0998,0.9981,0.9382,0.9372,0.9372,0.9431,0.956,1.0954,1.1498,1.1039,1.2713,1.3627,1.3688,1.4971,1.6122,1.7162,1.8145,1.8812,1.9268,1.9268,1.9985,2.1136,2.077,2.1145,2.1945,2.107,2.1327,2.223,0.0,0.0,0.0,2.2229,2.1644,0.0,2.0263,0.0,0.0,0.0,0.0,0.0,0.0,0.0,0.0,0.0,0.0,0.0,0.0,0.0,0.0,2.6913,0.0,2.8303,0.0,0.0,0.0,0.0,0.0,0.0,0.0,0.0,0.0,3.052,3.0595,3.0783,3.1339,3.0909,3.0595,3.0647,3.0118,2.9792,2.9792,2.9792,2.9792,2.9792,2.9792,2.9792,2.9792,2.9792,2.9792,2.9792,2.9792,2.9792,2.9792,2.9792,2.9792,2.9792,2.9792,2.9792,2.9792,2.9792,2.9157,2.8136,2.8096,2.6808,2.4999,2.6047,2.5797,2.5126,2.7267,2.6685,2.4957,1.3999,1.4248,1.4429,1.4135,1.3667,1.3307,1.322,1.2766,1.2543,0.0,0.0,0.0,1.3066,1.316,1.2929,1.2304,1.1999,1.1727,1.149,1.1477,1.1258,1.0745,1.2045,1.2401,1.151,1.267,1.3211,1.3071,1.4561,1.5455,1.5784,1.7394,1.8373,1.8783,1.8783,1.9354,2.0278,2.0796,2.1661,2.2681,2.2962,2.3697,0.0,0.0,0.0,0.0,0.0,2.2582,2.1691,0.0,2.0195,1.9544,0.0,0.0,0.0,0.0,0.0,0.0,1.8241,0.0,0.0,0.0,0.0,0.0,2.3137,2.5099,2.6991,0.0,0.0,0.0,0.0,0.0,0.0,0.0,0.0,0.0,2.9993,3.0018,3.0467,3.1695,3.0777,3.0455,3.15,3.0496,2.9792,0.0,2.9792,2.9792,2.9792,2.9792,2.9792,2.9792,2.9792,2.9792,2.9792,2.9792,2.9792,2.9792,2.9792,2.9792,2.9792,2.9792,2.9792,2.9792,2.9792,2.9624,2.9197,2.7585,2.7035,2.7064,2.5786,2.5588,2.6088,2.6719,2.6047,2.483,1.4342,1.4708,1.4944,1.4804,1.4767,1.4737,1.4737,1.4176,1.3903,0.0,0.0,0.0,1.409,1.3551,1.3086,1.2811,1.2904,1.2851,1.2549,1.2605,1.2484,1.2064,1.2902,1.3047,1.2359,1.3,1.318,1.2784,1.4508,1.5312,1.5234,1.7123,1.8144,1.8344,1.8344,1.8833,1.9708,2.083,0.0,0.0,2.3678,0.0,0.0,2.5259,2.4975,0.0,0.0,0.0,2.3236,2.2521,2.1691,0.0,0.0,0.0,0.0,0.0,0.0,0.0,0.0,0.0,0.0,0.0,0.0,0.0,2.1765,2.3553,2.5166,0.0,2.5455,0.0,0.0,0.0,0.0,0.0,0.0,0.0,0.0,2.9792,3.0253,3.1542,3.0903,3.0725,3.1566,3.089,3.0203,2.983,2.9792,2.9792,2.9792,2.9792,2.9792,2.9792,2.9792,2.9792,2.9792,2.9792,2.9792,2.9792,2.9792,2.9792,2.9792,2.9792,2.9792,2.9753,2.9287,2.9365,2.9585,2.6883,2.6461,2.7197,2.4957,2.451,2.5147,2.5641,2.5094,2.4168,0.0,1.4977,1.5696,1.5696,1.6381,1.689,1.689,1.63,1.603,0.0,1.6395,1.605,1.5433,1.4207,1.3304,1.2911,1.3066,1.308,1.2804,1.3039,1.3213,1.3213,1.3447,1.35,1.3313,1.3453,1.3373,1.2984,1.4723,1.5505,1.5411,1.7182,1.8008,1.8008,1.8008,1.8496,1.9396,2.082,0.0,2.2687,2.3765,2.4745,0.0,0.0,2.6047,2.6499,2.6499,2.5921,2.5075,2.4501,2.3385,0.0,0.0,0.0,0.0,0.0,2.224,0.0,0.0,0.0,0.0,0.0,0.0,0.0,2.1797,2.2627,2.3275,2.2869,2.3187,0.0,0.0,0.0,0.0,0.0,0.0,0.0,0.0,2.9702,3.0177,3.1217,3.1241,3.1278,3.1499,3.1426,3.0983,3.0037,2.9869,2.9792,2.9792,2.9792,2.9792,2.9792,2.9792,2.9792,2.9792,2.9792,2.9792,2.9792,2.9792,2.9792,2.9792,2.9792,2.9792,2.9753,2.8727,2.8806,2.9365,2.6284,2.5672,2.6431,2.4059,2.3178,2.3387,2.4286,2.3963,2.3266,1.4088,1.4977,1.5696,1.5696,1.6381,1.689,1.689,1.6546,1.6405,1.6771,1.6969,1.6702,1.5722,1.5201,1.4514,1.3514,1.3273,1.308,1.2804,1.3039,1.3213,1.3213,1.3447,1.3686,1.3915,1.3507,1.3615,1.4248,1.4938,1.5655,1.6358,1.7467,1.8008,1.8008,1.8008,1.8496,1.9396,2.082,0.0,2.2245,2.4409,0.0,2.5649,2.6147,2.6399,2.6499,2.6499,2.6383,2.6008,2.4741,2.363,2.2746,0.0,0.0,0.0,2.2645,0.0,0.0,0.0,0.0,0.0,0.0,0.0,0.0,2.0631,2.1614,2.2726,0.0,2.2896,0.0,0.0,0.0,0.0,0.0,0.0,0.0,0.0,0.0,0.0,3.2141,3.1669,3.1779,3.331,3.2784,3.1924,3.1007,3.0241,2.9792,2.9792,2.9792,2.9792,2.9792,2.9792,2.9792,2.9792,2.9792,2.9792,2.9792,2.9792,2.9792,2.9792,2.9792,2.9792,2.9792,2.9573,2.9067,2.8307,2.6789,2.6789,2.7481,2.4339,2.3671,2.4372,2.3671,2.3309,2.3184,1.4088,1.5387,1.6519,1.6519,1.7729,1.8758,1.8758,1.8413,1.8296,1.8704,1.8171,1.7579,1.7062,1.6181,1.5358,1.4662,1.4608,1.4572,1.4508,1.4291,1.4231,1.442,1.392,1.374,1.4082,1.336,1.3539,1.4608,1.5008,1.5685,1.6636,1.7579,1.79,1.7738,1.8362,1.9008,1.9693,0.0,2.2214,2.2659,2.4484,0.0,2.5272,2.5824,2.6248,2.6499,2.6499,2.6499,2.633,2.529,2.4834,0.0,0.0,2.4276,2.4405,0.0,2.4526,2.4302,0.0,0.0,0.0,2.2685,0.0,0.0,0.0,2.1156,2.1582,2.1349,0.0,0.0,0.0,0.0,0.0,0.0,0.0,0.0,0.0,0.0,0.0,3.0889,3.1127,3.1742,3.3171,3.289,3.2213,3.1278,3.0317,2.9792,2.9792,2.9792,2.9792,2.9792,2.9792,2.9792,2.9792,2.9792,2.9792,2.9792,2.9792,2.9792,2.9792,2.9792,2.9792,2.9753,2.9197,2.8636,2.7964,2.6337,2.5953,2.6232,2.3963,2.3464,2.3907,2.359,2.3467,2.3525,1.3988,1.5737,1.7202,1.7096,1.8943,2.0449,2.037,2.0019,1.9951,2.0419,1.9391,1.8515,1.8323,1.7042,1.61,1.584,1.5831,1.5953,1.6319,1.5662,1.5433,1.5779,1.4664,1.409,1.4281,1.3352,1.3519,1.4872,1.5081,1.5763,1.6888,1.7808,1.8091,1.7807,1.901,1.9878,2.0532,0.0,0.0,2.3358,0.0,2.4725,2.4732,2.536,2.5858,2.6197,2.6298,2.6399,2.6424,2.5925,2.6109,2.6411,2.5946,2.6122,0.0,0.0,0.0,0.0,0.0,0.0,0.0,0.0,0.0,2.2526,0.0,0.0,0.0,0.0,0.0,0.0,0.0,0.0,0.0,0.0,0.0,0.0,0.0,0.0,0.0,2.9336,3.0302,3.1325,3.25,3.2464,3.2033,3.1241,3.0317,2.9792,2.9792,2.9792,2.9792,2.9792,2.9792,2.9792,2.9792,2.9792,2.9792,2.9792,2.9792,2.9792,2.9792,2.9792,2.9792,2.9753,2.8819,2.8187,2.7643,2.587,2.4872,2.4382,2.3563,2.3218,2.3276,2.375,2.3906,2.3975,1.3606,1.5423,1.681,1.6409,1.8362,1.9863,1.9492,1.9394,1.9512,1.9932,1.9828,1.9374,1.84,1.7546,1.6944,1.6599,1.5667,1.5618,1.6766,1.625,1.5966,1.6152,1.5708,1.5327,1.5003,1.3765,1.4041,1.5847,1.5401,1.6123,1.7862,1.8744,1.9112,1.9126,2.0052,2.1158,0.0,0.0,2.3162,0.0,2.4569,2.4531,0.0,2.5209,2.536,2.5071,2.5523,2.6059,2.6487,0.0,2.6436,2.6487,0.0,2.6436,2.6499,2.6499,0.0,0.0,0.0,0.0,0.0,0.0,2.5366,0.0,0.0,0.0,2.2348,2.1932,0.0,0.0,0.0,0.0,0.0,0.0,0.0,0.0,0.0,0.0,0.0,2.9169,2.9605,3.0452,3.2401,3.1852,3.1315,3.1217,3.0317,2.9792,2.9792,2.9792,2.9792,2.9792,2.9792,2.9792,2.9792,2.9792,2.9792,2.9792,2.9792,2.9792,2.9792,2.9792,2.9792,2.9792,2.9663,2.8502,2.6637,2.6389,2.5105,2.3295,2.3609,2.3721,2.3769,2.4189,2.4346,2.4404,1.398,1.542,1.6639,1.6997,1.8434,1.9492,1.9316,1.9492,1.9805,2.0234,2.0078,1.9724,1.9288,0.0,0.0,0.0,0.0,1.7415,0.0,0.0,1.7237,1.7796,1.6325,1.5442,1.5453,1.3801,1.3961,1.6,1.5473,1.6158,1.8008,1.8877,1.9152,1.8975,2.0615,0.0,2.2348,0.0,2.3666,0.0,0.0,0.0,0.0,2.472,2.5197,2.5297,2.5523,2.5996,2.6499,0.0,2.6499,0.0,0.0,0.0,0.0,0.0,0.0,0.0,0.0,0.0,0.0,0.0,0.0,0.0,2.4667,0.0,2.3824,0.0,0.0,0.0,0.0,0.0,0.0,0.0,2.1492,0.0,0.0,0.0,0.0,0.0,0.0,0.0,3.0602,3.1053,3.1217,3.1217,3.0317,2.9792,2.9792,2.9792,2.9792,2.9792,2.9792,2.9792,2.9792,2.9792,2.9792,2.9792,2.9792,2.9792,2.9792,2.9792,2.9792,2.9792,2.9792,2.891,2.736,2.676,2.5557,2.4077,2.4147,2.4004,2.3838,2.4258,2.458,2.4863,1.484,0.0,1.6392,1.724,1.8363,1.9111,1.9111,1.9473,1.9893,2.037,2.0107,1.9912,1.9912,1.9639,0.0,0.0,1.8734,1.888,0.0,0.0,1.8349,1.9199,1.7338,0.0,1.5963,1.4504,1.447,1.6,1.5727,1.6402,1.8008,1.9144,1.9468,1.9254,2.1467,2.2509,2.2596,0.0,2.4004,2.4029,2.4431,2.4104,2.3409,2.4073,2.487,2.5573,2.5435,2.585,2.6499,2.6499,2.6499,0.0,2.6499,0.0,0.0,0.0,0.0,0.0,2.6763,0.0,0.0,0.0,0.0,0.0,0.0,0.0,0.0,0.0,0.0,0.0,0.0,0.0,0.0,0.0,0.0,2.1523,0.0,0.0,0.0,0.0,0.0,0.0,0.0,2.9706,3.0367,3.0367,0.0,2.9792,2.9792,2.9792,2.9792,2.9792,2.9792,2.9792,2.9792,2.9792,2.9792,2.9792,2.9792,2.9792,2.9792,2.9792,2.9792,2.9792,2.9792,2.9157,2.8056,2.725,2.6088,2.4786,2.4725,2.4496,2.4297,2.4624,2.498,2.5293,1.6175,1.6153,0.0,1.6526,1.7722,1.8627,1.8627,1.9023,1.9453,1.9883,0.0,0.0,0.0,0.0,0.0,0.0,0.0,1.917,2.0478,0.0,1.8971,0.0,0.0,1.8197,0.0,1.6294,1.6059,1.6,1.6366,1.7035,1.8042,1.9748,2.0547,2.0655,2.2931,2.3935,2.3935,2.3991,2.4004,2.4004,2.4017,2.4004,2.3916,0.0,2.4161,2.5523,2.4988,0.0,0.0,2.6499,2.6499,0.0,0.0,0.0,0.0,0.0,0.0,0.0,0.0,0.0,0.0,2.8059,0.0,0.0,0.0,0.0,2.6552,0.0,0.0,0.0,0.0,0.0,0.0,0.0,0.0,0.0,0.0,0.0,0.0,0.0,0.0,0.0,0.0,2.7562,2.8203,0.0,2.9197,2.9792,2.9792,2.9792,2.9792,2.9792,2.9792,2.9792,2.9792,2.9792,2.9792,2.9792,2.9792,2.9792,2.9792,2.9792,2.9792,2.9792,2.9792,2.9157,2.8096,2.8044,2.6767,2.484,2.5203,2.5347,2.536,2.5585,2.5654,2.5674,1.6349,0.0,0.0,0.0,0.0,1.8616,1.9878,1.9853,0.0,0.0,2.1153,0.0,0.0,2.1848,2.2015,0.0,0.0,2.2038,2.2138,2.1084,0.0,0.0,0.0,1.8775,0.0,0.0,1.6822,1.7122,1.7054,1.7644,1.8888,2.0042,2.091,2.1534,2.2825,2.364,0.0,0.0,0.0,0.0,0.0,2.3847,2.4412,0.0,2.3684,2.4556,2.4757,2.5285,0.0,2.6361,2.6499,2.6499,2.6499,2.6871,2.7196,2.6658,2.7863,2.9207,0.0,0.0,2.9512,2.911,0.0,0.0,0.0,0.0,0.0,0.0,0.0,0.0,0.0,0.0,0.0,0.0,0.0,0.0,0.0,0.0,0.0,0.0,0.0,0.0,0.0,0.0,0.0,0.0,0.0,0.0,2.9728,2.9792,2.9955,3.0331,2.998,2.9967,3.0331,2.998,2.9792,2.9792,2.9792,2.9792,2.9792,2.9792,2.9792,2.9792,2.9792,2.9573,2.9157,2.8426,2.7683,2.6981,2.7058,2.7031,2.691,2.5752,2.5749,2.629,1.6959,0.0,0.0,0.0,0.0,0.0,0.0,0.0,0.0,0.0,2.2888,0.0,2.3031,0.0,2.391,0.0,2.3486,2.3692,2.3161,2.2349,0.0,2.2017,2.0768,0.0,0.0,0.0,0.0,0.0,1.7715,1.8075,1.8844,2.0042,2.091,2.1502,0.0,2.354,2.374,0.0,2.4362,0.0,0.0,2.3547,0.0,0.0,2.3584,2.4305,0.0,2.4996,2.5649,2.6059,2.6323,2.6555,2.685,2.7297,2.7604,2.7061,2.829,2.9544,2.8489,2.9019,0.0,2.9372,2.9361,0.0,2.8825,0.0,0.0,0.0,0.0,0.0,0.0,0.0,0.0,0.0,0.0,0.0,0.0,2.1738,0.0,0.0,0.0,0.0,0.0,0.0,0.0,0.0,0.0,0.0,0.0,2.9792,3.0043,3.0595,3.008,3.0055,3.0608,3.0068,2.9792,2.9792,2.9792,2.9792,2.9792,2.9792,2.9792,2.9792,2.9792,2.9792,2.9753,2.9028,2.8466,2.8111,2.8399,2.842,2.8105,2.7052,2.707,2.7622,1.7915,1.8061,0.0,0.0,1.9298,0.0,0.0,0.0,2.3897,0.0,2.4889,2.5216,2.5205,2.5611,2.5487,2.4457,2.4405,2.4228,2.3694,2.3232,0.0,0.0,2.2027,2.1076,1.9116,0.0,0.0,0.0,0.0,1.8437,1.811,1.9814,2.0623,2.0773,2.2962,0.0,2.3183,2.4286,2.4123,2.3145,2.3108,2.312,2.3145,2.3108,2.381,2.4725,2.423,2.4707,2.5598,2.5624,2.6034,2.6624,2.7384,2.7703,2.7769,2.767,2.8554,2.9241,2.7799,2.8195,2.9001,2.9001,2.8963,0.0,0.0,0.0,2.9792,0.0,0.0,0.0,0.0,0.0,0.0,0.0,0.0,0.0,0.0,0.0,0.0,0.0,0.0,0.0,0.0,0.0,0.0,0.0,0.0,0.0,0.0,2.9779,3.0055,3.0633,3.0118,3.0093,3.0645,3.0105,2.9817,2.9792,2.9792,2.9792,2.9792,2.9792,2.9792,2.9792,2.9829,2.9817,2.9792,2.9829,2.9182,2.8271,2.9267,2.9386,2.9077,2.9339,2.943,2.9407,1.8027,1.8825,1.985,0.0,2.1266,2.2013,0.0,0.0,0.0,0.0,2.576,2.5622,2.5502,2.6368,2.6472,2.5368,2.6033,0.0,0.0,0.0,0.0,2.3136,2.2403,2.1431,2.0206,2.0333,0.0,1.8875,0.0,0.0,1.8977,2.0074,2.0942,2.1628,0.0,0.0,2.3158,2.3904,2.4042,2.374,2.3283,2.3358,2.3728,0.0,2.381,2.4775,2.4625,2.5034,2.5661,2.6135,2.6373,2.6521,2.6748,2.767,2.8427,2.7162,2.898,3.1037,2.9384,2.9738,3.0598,3.0598,3.0087,2.9616,0.0,0.0,0.0,0.0,0.0,0.0,0.0,0.0,0.0,0.0,0.0,0.0,0.0,0.0,0.0,2.3016,0.0,0.0,0.0,0.0,0.0,0.0,0.0,0.0,0.0,0.0,3.0218,3.116,3.0683,3.0658,3.1185,3.067,3.0193,2.9792,2.9792,2.9792,2.9792,2.9792,2.9792,2.9817,3.0231,3.0168,2.9829,3.0231,2.9986,2.944,3.0081,3.0737,3.126,3.0442,2.9814,2.9407,1.9188,0.0,0.0,2.2857,0.0,0.0,2.5127,2.5253,0.0,2.704,2.6964,0.0,2.7015,2.7633,2.7662,2.676,2.7084,0.0,2.6524,0.0,0.0,2.3551,2.2962,2.2,2.0644,2.0419,0.0,1.9561,0.0,0.0,1.8995,1.9724,2.0494,2.1365,0.0,2.2763,2.312,2.3446,2.3766,2.3954,2.3333,2.3446,0.0,2.364,2.4161,2.5159,2.5159,2.5347,2.5649,2.5975,2.6285,2.6555,2.6905,2.767,2.8247,2.7284,2.8879,3.0697,2.9752,3.0332,3.1278,3.1706,3.1402,3.102,3.102,3.0709,3.0419,0.0,3.0113,2.9585,0.0,0.0,0.0,0.0,0.0,0.0,0.0,0.0,0.0,0.0,2.3844,0.0,0.0,0.0,0.0,0.0,0.0,0.0,0.0,0.0,3.0281,3.1361,3.0645,3.062,3.1386,3.0633,3.0093,2.9792,2.9792,2.9792,2.9792,2.9792,2.993,3.0156,3.0231,3.0218,3.0156,3.0231,3.0068,2.9867,3.0645,3.1625,3.2506,3.1829,3.1348,3.1012,0.0,0.0,0.0,0.0,0.0,0.0,0.0,2.6776,0.0,2.8084,0.0,2.8373,2.8737,2.8712,2.8449,2.7946,0.0,2.7002,2.6524,2.6499,2.5652,2.3781,2.3551,2.2638,2.0818,2.0213,1.9883,0.0,0.0,0.0,1.8545,1.9153,1.9879,0.0,0.0,0.0,0.0,2.3108,2.3396,2.3841,2.3308,2.3446,2.4004,2.4004,2.4669,2.5598,2.5719,2.5749,2.5711,2.5711,2.6084,2.6636,2.7408,2.7669,2.7683,2.7662,2.8484,2.9416,2.9486,3.0332,3.1426,3.2393,3.2593,3.2593,3.2593,3.196,3.1352,3.1217,3.0558,2.9934,0.0,0.0,0.0,0.0,0.0,0.0,0.0,0.0,0.0,0.0,0.0,0.0,0.0,0.0,0.0,0.0,0.0,0.0,0.0,0.0,3.0281,3.1361,3.0495,3.0482,3.1486,3.057,3.0043,2.9892,2.9892,2.9867,2.9792,2.9792,3.0093,3.0583,3.0105,3.0218,3.0683,3.0193,3.0005,3.0105,3.1097,3.2102,3.2968,3.3056,3.3124,3.3124,0.0,0.0,0.0,0.0,0.0,2.7329,2.7745,2.821,2.8561,2.8725,2.875,2.8612,2.8285,2.7846,2.7344,2.6839,2.6688,0.0,0.0,0.0,0.0,2.4791,2.3927,2.2962,2.1773,2.0534,1.9746,0.0,0.0,1.8422,1.8149,1.966,0.0,0.0,0.0,0.0,2.3108,2.3108,0.0,2.3246,2.3145,2.3446,2.4004,2.4004,2.4669,2.5686,2.6427,2.6521,2.6336,2.6336,2.6411,2.6609,2.7189,2.7503,2.7676,2.7433,2.8324,2.9416,2.9486,3.0332,3.1426,3.2393,3.2593,3.2593,3.2593,3.2464,3.2141,3.1352,3.1068,3.0733,2.9934,0.0,0.0,0.0,0.0,0.0,0.0,0.0,0.0,0.0,0.0,2.5839,0.0,0.0,0.0,0.0,0.0,0.0,0.0,0.0,3.0281,0.0,3.121,3.1424,0.0,0.0,3.1348,3.047,3.047,3.0231,2.9792,2.9792,3.0093,3.0608,3.052,3.0771,3.1248,3.1148,3.111,3.1173,3.1813,3.219,3.2416,3.2905,3.3124,3.3124,0.0,0.0,0.0,0.0,0.0,0.0,0.0,2.9013,2.9264,2.8938,2.8436,2.8084,2.8109,2.7607,2.7216,2.6952,2.6663,2.6499,2.6499,2.6499,2.606,2.504,2.4528,2.3551,2.2027,2.1114,2.0316,1.9609,0.0,1.9166,1.9022,2.0096,0.0,0.0,0.0,2.3108,0.0,0.0,0.0,2.3108,2.3108,2.3622,2.445,2.4928,2.5492,2.624,2.7541,2.7348,2.6555,2.6973,2.685,2.6549,2.6801,2.6964,2.7058,2.6905,2.8112,2.9556,3.0132,3.1439,3.289,3.3871,3.409,3.409,3.409,3.3719,3.3206,3.2749,3.1888,3.0895,2.996,2.9792,0.0,0.0,0.0,0.0,0.0,0.0,0.0,0.0,0.0,0.0,0.0,0.0,0.0,0.0,0.0,2.8261,2.9301,0.0,3.0156,0.0,0.0,0.0,3.1788,0.0,3.1399,3.062,3.0884,3.0583,2.9817,3.0369,3.062,3.0633,3.0896,3.116,3.1386,3.1386,3.1549,3.1838,3.2102,3.239,3.2692,3.2968,3.3124,3.3124,0.0,2.6953,0.0,0.0,2.7908,2.8423,2.8825,2.9415,2.9628,2.9126,2.8147,2.762,2.8059,2.7507,2.714,2.714,2.6564,2.6164,2.6164,2.6164,2.5838,2.504,2.5004,2.4264,2.2664,2.2028,2.1277,0.0,0.0,0.0,2.005,2.0608,0.0,0.0,0.0,0.0,0.0,0.0,2.3108,2.3108,2.3108,2.371,2.4721,2.5514,2.6039,2.6515,2.8128,2.7887,2.685,2.7484,2.724,2.6688,2.6801,2.6978,2.7138,2.7138,2.8465,3.0177,3.1007,3.2615,3.4245,3.5246,3.5504,3.5504,3.5504,3.4872,3.4245,3.4027,3.2664,3.1217,3.0279,3.0113,0.0,0.0,0.0,0.0,0.0,0.0,0.0,0.0,0.0,0.0,2.8124,0.0,0.0,0.0,0.0,2.8846,2.9753,2.9792,3.0043,0.0,0.0,3.0871,3.1386,0.0,3.1135,3.062,3.1135,3.0896,2.9993,3.0947,3.1235,3.0972,3.1273,3.1449,3.1574,3.17,3.2001,3.239,3.239,3.2679,3.3124,3.3124,3.3124,3.3124,0.0,0.0,0.0,0.0,0.0,2.8838,2.8888,2.9415,2.9779,2.9716,2.8725,2.8047,2.8097,2.7203,2.6562,2.6562,2.5688,2.5158,2.5158,2.5158,2.5087,2.5004,2.5004,2.4898,2.4707,2.3413,2.2432,0.0,0.0,2.1029,0.0,2.1388,0.0,0.0,0.0,0.0,0.0,2.3108,2.3108,2.3108,2.3108,2.3484,2.413,2.4728,2.5237,2.587,2.7321,2.7736,2.7604,2.767,2.7511,2.7329,2.7795,2.852,2.9201,2.9166,3.0277,3.1673,3.1993,3.3029,3.4245,3.5246,3.5504,3.5504,3.5504,3.5439,3.51,3.4211,3.3171,3.2177,3.1254,3.1068,3.0796,0.0,0.0,0.0,0.0,0.0,0.0,0.0,0.0,0.0,0.0,2.9028,0.0,0.0,2.9624,2.9702,2.9792,2.9792,3.0043,3.0595,3.062,3.0871,3.1386,3.1386,3.1135,3.062,3.1135,3.1085,3.0557,3.1135,3.1637,3.2039,3.1587,3.1675,3.2177,3.2704,3.2955,3.3006,3.3006,3.3074,3.3124,3.3124,3.3124,3.3124,0.0,0.0,0.0,0.0,0.0,0.0,0.0,2.9352,2.9277,2.9277,2.8586,2.7984,2.7645,2.6952,2.6245,2.5664,2.4987,2.4425,2.4133,2.439,2.4695,2.4992,2.5594,2.5629,2.5004,2.4436,2.3455,0.0,0.0,0.0,0.0,0.0,0.0,0.0,0.0,2.3108,2.3108,2.3108,2.3108,2.3108,2.3108,2.3446,2.4117,2.5171,2.5595,2.5914,2.8389,2.8266,2.7129,2.8149,2.8669,2.8769,2.7911,2.8908,3.029,2.9661,3.0987,3.2654,3.2774,3.3824,3.4986,3.5392,3.5504,3.5504,3.5504,3.5504,3.5392,3.4986,3.4109,3.3136,3.2213,3.1573,3.1068,3.0696,0.0,0.0,0.0,0.0,0.0,0.0,0.0,0.0,0.0,0.0,0.0,0.0,0.0,2.9792,2.9792,2.9792,2.9892,3.0118,0.0,3.0721,3.0922,3.1235,3.1135,3.062,3.1474,3.1436,3.0658,3.1851,3.2528,3.2704,3.2127,3.2202,3.2754,3.298,3.3124,3.3124,3.3124,3.3124,3.3124,3.3124,3.3124,3.3124,2.9189,0.0,2.895,0.0,2.9176,2.9264,2.9503,2.9189,2.8775,2.8486,2.8109,2.772,2.7318,2.6826,2.6094,2.5087,2.4319,2.3594,2.2915,2.3251,2.3711,2.4366,2.5461,0.0,2.5441,2.5441,2.4585,2.283,2.3456,0.0,0.0,0.0,0.0,0.0,2.3108,2.3108,2.3108,2.3108,2.3108,2.3108,2.3108,2.3346,2.3878,2.52,2.5557,2.5744,2.8524,2.8524,2.7417,2.8588,2.9897,3.0652,2.8582,2.9763,3.1702,3.0822,3.2129,3.3813,3.3623,3.4517,3.5504,3.5504,3.5504,3.5504,3.5504,3.5504,3.5504,3.5504,3.4953,3.4143,3.3171,3.2464,3.1852,3.1278,0.0,0.0,0.0,2.9792,0.0,0.0,2.9792,2.9792,2.9792,2.9792,0.0,0.0,0.0,0.0,2.9792,2.9792,0.0,0.0,0.0,0.0,3.062,3.0984,3.0972,3.062,3.1537,3.1574,3.0896,3.239,3.3124,3.3099,3.2641,3.2704,3.3124,3.3124,3.3124,3.3124,3.3124,3.3124,3.3124,3.3124,3.3124,3.3124,2.9666,2.9315,2.9076,2.9679,2.9779,2.9591,2.8988,2.89,2.8536,2.7444,2.7293,2.7329,2.7281,2.6826,2.6094,2.5087,2.3732,2.2477,2.1476,2.1429,2.1865,0.0,0.0,2.5476,2.6452,2.6487,2.5925,2.4755,0.0,0.0,2.3078,0.0,2.3108,2.3108,2.3108,2.3108,2.3108,2.3108,2.3108,2.3108,2.3108,2.3108,2.3246,2.4393,2.482,2.5068,2.7046,2.8266,2.8971,2.9002,3.0996,3.2976,3.0324,3.1544,3.3849,3.3226,3.4208,3.534,3.4651,3.4981,3.5504,3.5504,3.5504,3.5504,3.5504,3.5504,3.5504,3.5504,3.5504,3.5166,3.4177,3.3993,3.3345,3.1499,0.0,0.0,0.0,0.0,0.0,2.9792,2.9792,2.9792,2.9792,2.9792,0.0,0.0,0.0,0.0,0.0,0.0,0.0,2.9792,3.0331,0.0,3.062,3.062,3.062,3.062,3.1148,3.1386,3.1411,3.2566,3.3124,3.3124,3.3111,3.3111,3.3124,3.3124,3.3124,3.3124,3.3124,3.3124,3.3124,3.3124,3.3124,3.3124,2.9754,2.9641,2.9578,2.9767,2.9792,2.9729,2.9541,2.8863,2.8247,2.7896,2.7228,2.6751,2.6751,2.66,2.5826,0.0,2.334,2.219,0.0,2.1036,2.1865,2.288,2.426,2.5476,2.6499,2.6499,2.5925,2.4788,0.0,0.0,0.0,2.3509,2.3715,2.3715,2.3715,2.3715,2.3715,2.3715,2.3471,2.3145,2.3534,2.3459,2.3233,2.4362,2.4788,2.5055,2.7,2.755,2.7436,2.8359,3.0055,3.1711,3.1213,3.288,3.4754,3.3487,3.4255,3.5459,3.5235,3.534,3.5504,3.5504,3.5504,3.5504,3.5504,3.5504,3.5504,3.5504,3.5504,3.5392,3.51,3.4461,3.3602,3.2357,3.1609,0.0,2.9934,0.0,3.0758,3.0758,3.0758,3.0758,3.0758,3.0177,0.0,0.0,0.0,0.0,0.0,0.0,0.0,0.0,3.0871,0.0,3.1148,3.1148,3.1148,3.1148,3.1687,3.2152,3.2554,3.2918,3.3124,3.3124,3.3124,3.3124,3.3124,3.3124,3.3124,3.3124,3.3124,3.3124,3.3124,3.3124,3.3124,3.3124,2.9792,2.9792,2.9729,2.9503,2.9465,2.9402,2.9189,2.8561,2.8034,2.7821,2.7241,2.6725,2.6512,2.6499,0.0,2.3672,2.3113,2.2046,2.0025,2.0491,2.1465,2.2833,2.3892,2.5063,2.6452,2.6499,0.0,2.4788,2.4362,2.391,2.3434,2.3828,2.4004,2.4004,2.4004,2.4004,2.3979,2.3766,2.359,2.3446,2.3584,2.3421,2.3233,2.4362,2.4788,2.5055,2.7,2.7384,2.7151,2.8538,3.0088,3.15,3.1828,3.3302,3.4798,3.4204,3.4723,3.5504,3.5504,3.5504,3.5504,3.5504,3.5504,3.5504,3.5504,3.5504,3.5504,3.5504,3.5504,3.5504,3.5504,3.4986,3.4259,3.3276,3.2629,3.1924,3.0983,0.0,3.1742,0.0,0.0,0.0,0.0,3.0658,3.0177,0.0,0.0,0.0,0.0,0.0,3.062,3.062,3.1323,3.17,3.17,3.1499,3.1499,3.17,3.2051,3.2516,3.3124,3.3124,3.3124,3.3124,3.3124,3.3124,3.3124,3.3124,3.3124,3.3124,3.3124,3.3124,3.3124,3.3124,3.3124,3.3124,2.9792,2.9792,2.9616,2.9051,2.895,2.8775,2.8298,2.816,2.7921,2.7406,2.7268,2.703,2.6446,2.6383,2.5569,2.3551,0.0,0.0,2.0025,1.9941,2.0818,2.2797,2.3304,2.4433,2.6452,2.6499,2.5971,2.4838,2.376,2.3496,2.4054,2.4092,2.4104,2.4104,2.4067,2.4054,2.4017,2.3409,2.3471,2.3954,2.3384,2.3158,2.3283,2.4374,2.4788,2.5055,2.6947,2.7604,2.7815,2.917,3.0667,3.1969,3.199,3.2844,3.4081,3.5124,3.5427,3.5392,3.5472,3.5504,3.5504,3.5504,3.5504,3.5504,3.5504,3.5504,3.5504,3.5504,3.5504,3.5504,3.5504,3.5504,3.5166,3.4177,3.3993,3.3656,3.2693,3.265,3.2686,0.0,0.0,0.0,3.1499,3.1278,3.0833,0.0,0.0,0.0,0.0,0.0,3.062,3.062,3.1662,3.2215,3.2215,3.175,3.1763,3.2277,3.2277,3.2554,3.3124,3.3124,3.3124,3.3124,3.3124,3.3124,3.3124,3.3124,3.3124,3.3124,3.3124,3.3124,3.3124,3.3124,3.3124,3.3124,0.0,0.0,2.9741,2.9616,2.9591,2.9541,2.9415,2.8662,2.8059,2.7921,2.7216,2.6348,2.5453,2.537,2.4552,2.2553,2.2974,2.2388,2.0044,2.0225,2.1182,2.282,2.3304,2.4433,2.6452,2.6499,2.6147,2.541,2.4713,2.4462,2.4632,2.5034,2.5222,2.5197,2.4808,2.4619,2.4562,2.4029,2.3866,2.3991,2.3853,2.3791,2.3866,2.4525,2.4788,2.4958,2.632,2.6782,2.6905,2.7648,2.8618,2.9686,3.0537,3.163,3.2883,3.4324,3.454,3.4509,3.5279,3.5504,3.5504,3.5504,3.5504,3.5504,3.5504,3.5504,3.5504,3.5504,3.5504,3.5504,3.5504,3.5504,3.5166,3.4177,3.3993,3.35,3.2041,3.2876,3.35,0.0,3.34,3.3602,3.3345,3.2033,3.1106,0.0,0.0,2.9792,2.9792,3.0319,3.062,3.062,3.1662,3.2215,3.2215,3.2516,3.2742,3.2867,3.2867,3.2943,3.3124,3.3124,3.3124,3.3124,3.3124,3.3124,3.3124,3.3124,3.3124,3.3124,3.3124,3.3124,3.3124,3.3124,3.3124,3.3124,2.9792,2.9792,2.9704,2.9453,2.9402,2.9402,2.9402,2.8875,2.8398,2.8134,2.7582,2.6652,2.5171,2.5004,2.4192,2.2178,2.2515,2.2083,2.0339,2.0478,2.1387,2.3109,2.338,2.4433,2.6452,2.6499,2.621,2.5598,2.482,2.4695,2.5184,2.546,2.5598,2.5586,2.531,2.5172,2.5146,2.4607,2.4381,2.4381,2.4381,2.4217,2.4079,2.487,2.5172,2.5285,2.6185,2.6499,2.6575,2.7128,2.791,2.8855,2.9733,3.0626,3.1702,3.3412,3.4056,3.4409,3.527,3.5504,3.5504,3.5504,3.5504,3.5504,3.5504,3.5504,3.5504,3.5504,3.5504,3.5504,3.5504,3.5504,3.5326,3.4758,3.4691,3.4393,3.3513,3.4109,3.4559,3.4237,3.4486,3.4509,3.4027,3.2713,3.1669,3.1217,3.0317,0.0,2.9792,3.008,3.0357,3.0608,3.1662,3.2215,3.2215,3.278,3.2943,3.2692,3.2955,3.3124,3.3124,3.3124,3.3124,3.3124,3.3124,3.3124,3.3124,3.3124,3.3124,3.3124,3.3124,3.3124,3.3124,3.3124,3.3124,3.3124,2.9792,2.9792,2.9641,2.9151,2.9026,2.9026,2.9026,2.895,2.87,2.8185,2.7912,2.698,2.5004,2.4636,2.3815,2.2018,2.1877,2.1553,2.0742,2.0644,2.1482,2.3516,2.3522,2.4433,2.6452,2.6499,2.6248,2.5724,2.482,2.4833,2.5724,2.5724,2.5724,2.5724,2.5636,2.5598,2.5561,2.5046,2.4838,2.4901,2.4825,2.4594,2.433,2.5247,2.5598,2.5674,2.6285,2.6499,2.6562,2.704,2.7712,2.8465,2.9009,2.9605,3.0503,3.2404,3.35,3.4273,3.5245,3.5504,3.5504,3.5504,3.5504,3.5504,3.5504,3.5504,3.5504,3.5504,3.5504,3.5504,3.5504,3.5504,3.5504,3.5504,3.5504,3.5474,3.537,0.0,3.5474,3.5355,3.5444,3.51,3.4095,3.3136,3.2313,3.1619,3.047,2.9907,3.0163,3.0021,3.0131,3.0608,3.1574,3.2177,3.234,3.283,3.283,3.2353,3.2842,3.3124,3.3124,3.3124,3.3124,3.3124,3.3124,3.3124,3.3124,3.3124,3.3124,3.3124,3.3124,3.3124,3.3124,3.3124,3.3124,3.3124,2.9792,2.9792,2.9767,2.9679,2.9654,2.9654,2.9654,2.9239,2.87,2.8185,2.6956,2.5525,2.3911,2.2962,2.2167,2.1402,2.1312,2.1282,2.1133,2.0781,2.1624,2.398,2.3701,2.4433,2.6452,2.6499,2.6449,2.6361,2.6197,2.6197,2.6361,2.6361,2.6361,2.6336,2.5812,2.5598,2.5561,2.5046,2.5071,2.5435,2.4963,2.5034,2.5372,2.5536,2.5598,2.5674,2.6285,2.6499,2.6512,2.66,2.6716,2.6942,2.7465,2.8182,2.9223,3.1392,3.2039,3.2568,3.4857,3.5504,3.5504,3.5504,3.5504,3.5504,3.5504,3.5504,3.5504,3.5504,3.5504,3.5504,3.5504,3.5504,3.5504,3.5504,3.5504,3.5295,3.4711,0.0,3.5295,3.4728,3.516,3.51,3.4095,3.3136,3.2778,3.3216,3.1082,3.0394,3.1742,3.0969,3.052,3.062,3.1198,3.1976,3.293,3.3031,3.3031,3.2943,3.3074,3.3124,3.3124,3.3124,3.3124,3.3124,3.3124,3.3124,3.3124,3.3124,3.3124,3.3124,3.3124,3.3124,3.3124,3.3124,3.3124,3.3124,2.9792,2.9792,2.9792,2.9792,2.9792,2.9573,2.8976,2.8638,2.8273,2.7736,2.6512,2.5245,2.4071,2.3005,2.2056,2.1251,2.119,2.1395,2.1853,2.1514,2.1948,2.3311,2.3703,2.4687,2.6465,2.6185,2.6185,2.6499,2.6185,2.6185,2.6499,2.6499,2.6499,2.6487,2.6223,2.6097,2.6084,2.5799,2.5661,2.5598,2.5674,2.5661,2.5636,2.5971,2.6097,2.6135,2.6399,2.6499,2.6499,2.6499,2.6499,2.6537,2.6788,2.7535,2.8514,2.9757,3.1842,3.3864,3.4503,3.51,3.5504,3.5504,3.5504,3.5504,3.5504,3.5504,3.5504,3.5504,3.5504,3.5504,3.5504,3.5504,3.5624,3.5968,3.5744,3.5519,3.5582,3.5534,3.5385,3.507,3.5119,3.5001,3.4525,3.3431,3.2842,3.3149,3.1332,3.0694,3.1717,3.1025,3.0871,3.1461,3.17,3.2378,3.3508,3.352,3.3671,3.396,3.3658,3.352,3.3508,3.3206,3.3124,3.3124,3.3124,3.3124,3.3124,3.3124,3.3124,3.3124,3.3124,3.3124,3.3124,3.3124,3.3124,3.3124,2.9792,2.9792,2.9792,2.9792,2.9792,2.9417,2.8255,2.8096,2.7826,2.7019,2.595,2.4988,2.4167,2.3027,2.2098,2.1544,2.1405,2.1748,2.2555,2.2266,2.2258,2.283,2.383,2.5034,2.6465,2.6059,2.6047,2.6499,2.6047,2.6059,2.6499,2.6499,2.6499,2.6499,2.6499,2.6499,2.6499,2.6499,2.6235,2.5837,2.6311,2.6223,2.585,2.6323,2.6499,2.6499,2.6499,2.6499,2.6499,2.6499,2.6499,2.6512,2.665,2.7231,2.8088,2.8847,3.1808,3.4673,3.3891,3.4394,3.5133,3.5133,3.5326,3.5504,3.5504,3.5624,3.5729,3.5729,3.5848,3.5953,3.5953,3.5833,3.5893,3.6402,0.0,3.5684,3.6193,3.5818,3.5466,3.5355,3.5092,3.4768,3.4431,3.3439,3.2817,3.283,3.1584,3.108,3.1714,3.1244,3.1486,3.2566,3.2604,3.3018,3.3884,3.4022,3.4299,3.4668,3.4161,3.3897,3.3884,3.3332,3.3124,3.3124,3.3124,3.3124,3.3124,3.3124,3.3124,3.3124,3.3124,3.3124,3.3124,3.3124,3.3124,3.3124,2.9792,2.9792,2.9792,2.9792,2.9792,2.9417,2.8255,2.8096,2.7535,2.5938,2.4914,2.408,2.3442,2.215,2.1593,2.2344,2.206,2.2197,2.2994,2.2705,2.2707,2.321,2.4325,2.5442,2.6499,2.6449,2.6449,2.6499,2.6449,2.6449,2.6499,2.6499,2.6499,2.6499,2.6499,2.6499,2.6499,2.6499,2.6461,2.6436,2.6474,2.6461,2.6436,2.6474,2.6499,2.6499,2.6499,2.6499,2.6499,2.6499,2.6499,2.6587,2.709,2.7316,2.7733,2.9689,3.1495,3.2784,3.2713,3.338,3.4095,3.4095,3.4806,3.5504,3.5504,3.5968,3.6417,3.6417,3.6866,3.727,3.727,3.6806,3.6432,3.6477,0.0,0.0,3.5564,3.5534,3.537,3.4995,3.4922,3.4387,3.3087,3.2869,3.283,3.2974,3.197,3.1782,3.283,3.2388,3.2604,3.3746,3.3771,3.3822,3.3897,3.4412,3.4675,3.4668,3.4161,3.3897,3.3884,3.3332,3.3124,3.3124,3.3124,3.3124,3.3124,3.3124,3.3124,3.3124,3.3124,3.3124,3.3124,3.3124,3.3124,3.3124,2.9792,2.9792,2.9573,2.8858,2.9326,2.8949,2.6449,2.6655,2.664,2.5297,2.4166,2.359,2.3813,2.2754,2.2158,2.248,2.2363,2.2519,2.3052,2.2701,2.2747,2.3262,2.3778,2.4668,2.5912,2.6303,2.6499,2.6499,2.6499,2.6499,2.6499,2.6499,2.6499,2.6499,2.6499,2.6499,2.6499,2.6499,2.6499,2.6524,2.6864,2.7002,2.704,2.7392,2.7304,2.7002,2.7002,2.6788,2.6499,2.6499,2.6499,2.6587,2.714,2.7519,2.8082,2.9603,3.0182,3.0377,3.0755,3.2407,3.3993,3.3993,3.4758,3.5431,3.5185,3.5312,3.543,3.5175,3.5323,3.548,3.548,3.5826,3.612,3.612,0.0,3.6252,3.6641,3.5775,3.5218,3.5489,3.4692,3.3956,3.341,3.3129,3.2989,3.3085,3.2339,3.2259,3.3018,3.2883,3.3106,3.3872,3.3897,3.406,3.4412,3.4274,3.4387,3.4668,3.4161,3.3897,3.3884,3.3332,3.3124,3.3124,3.3124,3.3124,3.3124,3.3124,3.3124,3.3124,3.3124,3.3124,3.3124,3.3124,3.3124,3.3124,2.9792,2.9792,2.9534,2.8767,2.8976,2.8371,2.5755,2.5672,2.5492,2.4228,2.3504,2.3219,2.3606,2.2956,2.2568,2.2705,2.2588,2.2685,2.3062,2.2701,2.2747,2.3262,2.358,2.4326,2.557,2.6179,2.6499,2.6499,2.6499,2.6499,2.6499,2.6499,2.6499,2.6499,2.6675,2.6751,2.6763,2.6939,2.7014,2.704,2.7394,2.7544,2.7582,2.7959,2.7871,2.7544,2.7544,2.7293,2.7014,2.7014,2.7014,2.7115,2.762,2.8185,2.875,2.9352,2.9365,2.9289,2.9691,3.1415,3.3206,3.3484,3.4472,3.5266,3.4955,3.5203,3.5338,3.4764,3.4758,3.4881,3.4881,3.561,3.6194,3.6194,3.6369,3.6701,3.733,3.595,3.5096,3.5656,3.4514,3.3642,3.3511,3.3255,3.3006,3.2817,3.2604,3.2654,3.3056,3.3124,3.3332,3.3884,3.3734,3.3909,3.4462,3.4261,3.4349,3.4668,3.4161,3.3897,3.3884,3.3332,3.3124,3.3124,3.3124,3.3124,3.3124,3.3124,3.3124,3.3124,3.3124,3.3124,3.3124,3.3124,3.3124,3.3124,2.9792,2.9792,2.9792,2.9792,2.8858,2.7735,2.6637,2.5546,2.4259,2.2696,2.2838,2.2935,2.2568,2.2519,2.2685,2.3062,2.2754,2.2695,2.3062,2.2744,2.2757,2.3273,2.3908,2.4641,2.5582,2.6191,2.6499,2.6499,2.6499,2.6499,2.6499,2.6499,2.6499,2.6512,2.7065,2.7281,2.7318,2.7871,2.8109,2.8097,2.8109,2.8109,2.8109,2.8109,2.8109,2.8109,2.8109,2.8109,2.8109,2.8109,2.8109,2.8197,2.8712,2.9327,2.9679,2.9063,2.934,2.9792,2.9792,3.0482,3.1426,3.2357,3.3811,3.4977,3.4915,3.5849,3.6488,3.5495,3.5758,3.6144,3.6144,3.6523,3.6761,3.6761,3.6614,3.6716,3.7295,3.595,3.5017,3.5242,3.4352,3.3539,3.3147,3.3124,3.283,3.2265,3.2754,3.3124,3.3124,3.3124,3.3332,3.3884,3.337,3.3345,3.3897,3.4449,3.4713,3.4655,3.4161,3.3884,3.3872,3.3319,3.3124,3.3124,3.3124,3.3124,3.3124,3.3124,3.3124,3.3124,3.3124,3.3124,3.3124,3.3124,3.3124,3.3124,2.9792,2.9792,2.9534,2.8767,2.8988,2.841,2.5714,2.5714,2.5251,2.3175,2.3013,2.3052,2.2925,2.3652,2.3821,2.3169,2.3723,2.3821,2.3125,2.3723,2.4198,2.4336,2.4625,2.5214,2.6224,2.6793,2.6889,2.6499,2.6499,2.6499,2.6499,2.6499,2.6499,2.6512,2.7065,2.7102,2.6801,2.7708,2.7883,2.7595,2.8373,2.865,2.8725,2.9126,2.9038,2.865,2.865,2.8436,2.8109,2.8109,2.8109,2.8197,2.8712,2.9327,2.9754,2.9578,2.9654,2.9792,2.9792,2.9998,3.0509,3.187,3.3037,3.3909,3.4039,3.402,3.3841,3.3229,3.2963,3.2835,3.2835,3.3834,3.4543,3.4059,3.552,3.6519,3.5994,3.5494,3.5107,3.4902,3.3931,3.3208,3.3099,3.3124,3.3048,3.283,3.298,3.3124,3.3124,3.3124,3.3508,3.4449,3.3571,3.3533,3.4462,3.3872,3.3571,3.3571,3.3395,3.3319,3.3319,3.3156,3.3124,3.3124,3.3124,3.3124,3.3124,3.3124,3.3124,3.3124,3.3124,3.3124,3.3124,3.3124,3.3124,3.3124,2.9792,2.9792,2.9443,2.8307,2.8688,2.8279,2.5839,2.6058,2.5784,2.3815,2.369,2.3687,2.3559,2.3904,2.4049,2.38,2.4006,2.3844,2.3135,2.4168,2.4999,2.5462,2.597,2.631,2.651,2.704,2.7153,2.6826,2.6826,2.6927,2.714,2.714,2.7027,2.6851,2.7595,2.762,2.718,2.8298,2.8586,2.8335,2.9001,2.9277,2.9315,2.9666,2.9578,2.9277,2.9277,2.9063,2.8775,2.8775,2.8775,2.8825,2.9164,2.9515,2.9792,2.9792,2.9792,2.9792,2.9792,2.9792,3.006,3.119,3.2203,3.2944,3.3027,3.2935,3.2672,3.2007,3.1788,3.1725,3.1725,3.3064,3.4004,3.3621,3.5052,3.6061,3.5698,3.5104,3.4686,3.4721,3.3755,3.3124,3.3124,3.3124,3.3124,3.3124,3.3124,3.3169,3.3395,3.3407,3.3809,3.4655,3.4073,3.4048,3.4668,3.3847,3.3294,3.3124,3.3307,3.3294,3.3124,3.3124,3.3124,3.3124,3.3124,3.3124,3.3124,3.3124,3.3124,3.3124,3.3124,3.3124,3.3124,3.3124,3.3124,3.3124,2.9792,2.9702,2.9365,2.8426,2.8176,2.7763,2.6801,2.6637,2.611,2.4603,2.4734,2.4756,2.4303,2.3772,2.3757,2.4585,2.3714,2.3135,2.3266,2.4339,2.542,2.6431,2.7614,2.7722,2.6593,2.7151,2.7406,2.7356,2.7356,2.7607,2.8109,2.8109,2.7833,2.7406,2.8461,2.8587,2.8185,2.9315,2.9767,2.9716,2.9779,2.9792,2.9792,2.9792,2.9792,2.9792,2.9792,2.9792,2.9792,2.9792,2.9792,2.9792,2.9792,2.9792,2.9792,2.9792,2.9792,2.9792,2.9792,2.9792,2.9917,3.0419,3.128,3.1986,3.195,3.2396,3.2528,3.1514,3.1725,3.2077,3.2077,3.3395,3.4461,3.4461,3.4887,3.5409,3.5852,3.4701,3.3961,3.4487,3.367,3.3124,3.3124,3.3124,3.3136,3.3187,3.3156,3.3395,3.3935,3.3972,3.4223,3.4731,3.4751,3.4705,3.4756,3.4248,3.3696,3.3156,3.3608,3.3558,3.3124,3.3124,3.3124,3.3124,3.3124,3.3124,3.3124,3.3124,3.3124,3.3124,3.3124,3.3124,3.3124,3.3124,3.3124,3.3124,2.9792,2.9067,2.8688,2.9326,2.8688,2.8004,2.7804,2.7763,2.7325,2.6162,2.6075,2.5764,2.4777,2.5325,2.5136,2.3594,2.3266,2.3464,2.4372,2.5515,2.6224,2.6483,2.8371,2.8721,2.7168,2.8075,2.836,2.7921,2.7921,2.7996,2.8109,2.8109,2.8047,2.7959,2.8599,2.8587,2.8185,2.9315,2.9528,2.9151,2.9616,2.9792,2.9792,2.9792,2.9792,2.9792,2.9792,2.9792,2.9792,2.9792,2.9792,2.9792,2.9792,2.9792,2.9792,2.9792,2.9792,2.9792,2.9792,2.9792,2.9817,2.9942,3.0149,3.052,3.1358,3.1333,3.105,3.0823,3.0884,3.0959,3.0959,3.1943,3.2755,3.2755,3.394,3.46,3.3885,3.4199,3.4214,3.3543,3.324,3.3124,3.3124,3.3124,3.3257,3.3684,3.3721,3.396,3.4512,3.455,3.4756,3.5307,3.4906,3.4881,3.532,3.4768,3.4274,3.3721,3.3407,3.3194,3.3124,3.3124,3.3124,3.3124,3.3124,3.3124,3.3124,3.3124,3.3124,3.3124,3.3124,3.3124,3.3124,3.3124,3.3124,3.3124,2.8976,2.8108,2.736,2.7412,2.7371,2.7319,2.7319,2.7763,2.7723,2.6637,2.6524,2.6058,2.4914,2.484,2.4392,2.3222,2.3091,2.3343,2.3963,2.5052,2.5672,2.5672,2.7302,2.8068,2.7691,2.8213,2.852,2.8461,2.8461,2.8637,2.8913,2.8913,2.8762,2.8524,2.9089,2.9026,2.8549,2.9428,2.9616,2.9365,2.9666,2.9792,2.9792,2.9792,2.9792,2.9792,2.9792,2.9792,2.9792,2.9792,2.9792,2.9792,2.9792,2.9792,2.9792,2.9792,2.9792,2.9792,2.9792,2.9792,2.9792,2.9792,2.9792,2.9942,3.0495,3.0419,3.0294,3.0557,3.0809,3.1072,3.1336,3.2064,3.2629,3.2629,3.3352,3.3755,3.3197,3.3598,3.3713,3.3154,3.3124,3.3181,3.3445,3.347,3.3696,3.4248,3.4299,3.4537,3.5044,3.5069,3.532,3.5918,3.5655,3.5516,3.5495,3.5207,3.4655,3.3897,3.3608,3.3332,3.3124,3.3124,3.3124,3.3124,3.3124,3.3124,3.3124,3.3124,3.3124,3.3124,3.3124,3.3124,3.3124,3.3124,3.3124,3.3124,2.7815,2.6953,2.5964,2.521,2.5714,2.6348,2.6719,2.7522,2.7763,2.6883,2.676,2.6254,2.4957,2.38,2.3091,2.3091,2.3091,2.3178,2.3387,2.4296,2.4787,2.4787,2.588,2.6842,2.751,2.7924,2.8418,2.9038,2.9038,2.9327,2.9792,2.9792,2.9528,2.9063,2.9578,2.9528,2.9076,2.9591,2.9792,2.9792,2.9585,2.9624,2.9792,2.9573,2.9624,2.9792,2.9792,2.9792,2.9792,2.9792,2.9792,2.9792,2.9792,2.9792,2.9792,2.9792,2.9792,2.9792,2.9792,2.9792,2.9817,2.9905,2.993,2.9955,3.0043,2.9993,3.0068,3.052,3.1097,3.1675,3.2127,3.2692,3.3124,3.3124,3.3124,3.3106,3.3206,3.3174,3.3106,3.3206,3.3262,3.3395,3.3859,3.3985,3.4274,3.4781,3.4818,3.5056,3.5608,3.5633,3.5893,3.6392,3.6405,3.6144,3.5646,3.5545,3.5044,3.4173,3.3985,3.3608,3.3124,3.3124,3.3124,3.3124,3.3124,3.3124,3.3124,3.3124,3.3124,3.3124,3.3124,3.3124,3.3124,3.3124,3.3124,3.3124,2.6719,2.5797,2.5294,2.6141,2.5588,2.5661,2.7602,2.8016,2.8056,2.7884,2.7884,2.7105,2.5031,2.38,2.3091,2.3091,2.3091,2.3507,2.45,2.4702,2.4787,2.4787,2.588,2.6099,2.5241,2.7134,2.86,2.9679,2.9679,2.9716,2.9792,2.9792,2.9754,2.9679,2.9754,2.9741,2.9679,2.9767,2.9792,2.9702,2.8727,2.8937,2.9702,2.8727,2.8937,2.9792,2.9792,2.9792,2.9792,2.9792,2.9792,2.9792,2.9792,2.9792,2.9792,2.9792,2.9792,2.9792,2.9792,2.9792,2.9905,3.0382,3.0507,3.062,3.1072,3.0821,3.052,3.0608,3.1411,3.2127,3.2202,3.2692,3.3124,3.3124,3.3124,3.3244,3.3721,3.3382,3.3257,3.3734,3.3784,3.3822,3.3884,3.4324,3.4793,3.5345,3.5382,3.5667,3.6267,3.6304,3.6329,3.6405,3.6405,3.6367,3.6304,3.578,3.542,3.527,3.4349,3.3608,3.3124,3.3124,3.3124,3.3124,3.3124,3.3124,3.3124,3.3124,3.3124,3.3124,3.3124,3.3124,3.3124,3.3124,3.3124,3.3124,2.5546,2.4628,2.4006,2.451,2.4178,2.4372,2.6025,2.6789,2.7209,2.7209,2.7209,2.6584,2.4999,2.38,2.3091,2.3091,2.3091,2.3299,2.3844,2.3844,2.3844,2.3844,2.4349,2.4681,2.4787,2.5775,2.6819,2.7959,2.9209,2.9792,2.9792,2.9792,2.9792,2.9753,2.9145,2.8846,2.8806,2.8211,2.7959,2.7919,2.7412,2.7867,2.8806,2.8307,2.8806,2.9792,2.9792,2.9792,2.9792,2.9792,2.9792,2.9792,2.9792,2.9792,2.9854,3.0168,3.003,2.9867,3.0168,3.003,2.993,3.0482,3.062,3.0758,3.1273,3.1449,3.1512,3.1512,3.1888,3.2303,3.2641,3.2905,3.3124,3.3124,3.3124,3.3156,3.3407,3.3232,3.3212,3.3407,3.3709,3.4022,3.4324,3.4818,3.5357,3.5968,3.5994,3.6107,3.6405,3.6405,3.6405,3.6405,3.6405,3.6267,3.5906,3.5621,3.5194,3.4625,3.4135,3.3771,3.3533,3.3262,3.3124,3.3136,3.3407,3.3533,3.3533,3.3533,3.3533,3.3508,3.3206,3.3124,3.3124,3.3124,3.3124,3.3124]}]]